[[{"header":{"parameterUnit":"m.s-1","parameterCategory":1,"la1":30.6,"la2":28.766,"lo1":-90.7593,"lo2":-88.6598,"dy":0.0162,"dx":0.0183,"nx":116,"ny":114,"refTime":"2023-10-04T12:00:00:Z","depth":0,"parameterNumber":2,"parameterNumberName":"U-component_of_WINDS"},"data":[0.0,0.0,0.0,0.0,0.0,0.0,0.0,0.0,0.0,0.0,0.0,0.0,0.0,0.0,0.0,0.0,0.0,0.0,0.0,0.0,0.0,0.0,0.0,0.0,0.0,0.0,0.0,0.0,0.0,0.0,0.0,0.0,0.0,0.0,0.0,0.0,0.0,0.0,0.0,0.0,0.0,0.0,0.0,0.0,0.0,0.0,0.0,0.0,0.0,0.0,0.0,0.0,0.0,0.0,0.0,0.0,0.0,0.0,0.0,0.0,0.0,0.0,0.0,0.0,0.0,0.0,0.0,0.0,0.0,0.0,0.0,0.0,0.0,0.0,0.0,0.0,0.0,0.0,0.0,0.0,0.0,0.0,0.0,0.0,0.0,0.0,0.0,0.0,0.0,0.0,0.0,0.0,0.0,0.0,0.0,0.0,0.0,0.0,0.0,0.0,0.0,0.0,0.0,0.0,0.0,0.0,0.0,0.0,0.0,0.0,0.0,0.0,0.0,0.0,0.0,0.0,0.0,0.0,0.0,0.0,0.0,0.0,0.0,0.0,0.0,0.0,0.0,0.0,0.0,0.0,0.0,0.0,0.0,0.0,0.0,0.0,0.0,0.0,0.0,0.0,0.0,0.0,0.0,0.0,0.0,0.0,0.0,0.0,0.0,0.0,0.0,0.0,0.0,0.0,0.0,0.0,0.0,0.0,0.0,0.0,0.0,0.0,0.0,0.0,0.0,0.0,0.0,0.0,0.0,0.0,0.0,0.0,0.0,0.0,0.0,0.0,0.0,0.0,0.0,0.0,0.0,0.0,0.0,0.0,0.0,0.0,0.0,0.0,0.0,0.0,0.0,0.0,0.0,0.0,0.0,0.0,0.0,0.0,0.0,0.0,0.0,0.0,0.0,0.0,0.0,0.0,0.0,0.0,0.0,0.0,0.0,0.0,0.0,0.0,0.0,0.0,0.0,0.0,0.0,0.0,0.0,0.0,0.0,0.0,0.0,0.0,0.0,0.0,0.0,0.0,0.0,0.0,0.0,0.0,0.0,0.0,0.0,0.0,0.0,0.0,0.0,0.0,0.0,0.0,0.0,0.0,0.0,0.0,0.0,0.0,0.0,0.0,0.0,0.0,0.0,0.0,0.0,0.0,0.0,0.0,0.0,0.0,0.0,0.0,0.0,0.0,0.0,0.0,0.0,0.0,0.0,0.0,0.0,0.0,0.0,0.0,0.0,0.0,0.0,0.0,0.0,0.0,0.0,0.0,0.0,0.0,0.0,0.0,0.0,0.0,0.0,0.0,0.0,0.0,0.0,0.0,0.0,0.0,0.0,0.0,0.0,0.0,0.0,0.0,0.0,0.0,0.0,0.0,0.0,0.0,0.0,0.0,0.0,0.0,0.0,0.0,0.0,0.0,0.0,0.0,0.0,0.0,0.0,0.0,0.0,0.0,0.0,0.0,0.0,0.0,0.0,0.0,0.0,0.0,0.0,0.0,0.0,0.0,0.0,0.0,0.0,0.0,0.0,0.0,0.0,0.0,0.0,0.0,0.0,0.0,0.0,0.0,0.0,0.0,0.0,0.0,0.0,0.0,0.0,0.0,0.0,0.0,0.0,0.0,0.0,0.0,0.0,0.0,0.0,0.0,0.0,0.0,0.0,0.0,0.0,0.0,0.0,0.0,0.0,0.0,0.0,0.0,0.0,0.0,0.0,0.0,0.0,0.0,0.0,0.0,0.0,0.0,0.0,0.0,0.0,0.0,0.0,0.0,0.0,0.0,0.0,0.0,0.0,0.0,0.0,0.0,0.0,0.0,0.0,0.0,0.0,0.0,0.0,0.0,0.0,0.0,0.0,0.0,0.0,0.0,0.0,0.0,0.0,0.0,0.0,0.0,0.0,0.0,0.0,0.0,0.0,0.0,0.0,0.0,0.0,0.0,0.0,0.0,0.0,0.0,0.0,0.0,0.0,0.0,0.0,0.0,0.0,0.0,0.0,0.0,0.0,0.0,0.0,0.0,0.0,0.0,0.0,0.0,0.0,0.0,0.0,0.0,0.0,0.0,0.0,0.0,0.0,0.0,0.0,0.0,0.0,0.0,0.0,0.0,0.0,0.0,0.0,0.0,0.0,0.0,0.0,0.0,0.0,0.0,0.0,0.0,0.0,0.0,0.0,0.0,0.0,0.0,0.0,0.0,0.0,0.0,0.0,0.0,0.0,0.0,0.0,0.0,0.0,0.0,0.0,0.0,0.0,0.0,0.0,0.0,0.0,0.0,0.0,0.0,0.0,0.0,0.0,0.0,0.0,0.0,0.0,0.0,0.0,0.0,0.0,0.0,0.0,0.0,0.0,0.0,0.0,0.0,0.0,0.0,0.0,0.0,0.0,0.0,0.0,0.0,0.0,0.0,0.0,0.0,0.0,0.0,0.0,0.0,0.0,0.0,0.0,0.0,0.0,0.0,0.0,0.0,0.0,0.0,0.0,0.0,0.0,0.0,0.0,0.0,0.0,0.0,0.0,0.0,0.0,0.0,0.0,0.0,0.0,0.0,0.0,0.0,0.0,0.0,0.0,0.0,0.0,0.0,0.0,0.0,0.0,0.0,0.0,0.0,0.0,0.0,0.0,0.0,0.0,0.0,0.0,0.0,0.0,0.0,0.0,0.0,0.0,0.0,0.0,0.0,0.0,0.0,0.0,0.0,0.0,0.0,0.0,0.0,0.0,0.0,0.0,0.0,0.0,0.0,0.0,0.0,0.0,0.0,0.0,0.0,0.0,0.0,0.0,0.0,0.0,0.0,0.0,0.0,0.0,0.0,0.0,0.0,0.0,0.0,0.0,0.0,0.0,0.0,0.0,0.0,0.0,0.0,0.0,0.0,0.0,0.0,0.0,0.0,0.0,0.0,0.0,0.0,0.0,0.0,0.0,0.0,0.0,0.0,0.0,0.0,0.0,0.0,0.0,0.0,0.0,0.0,0.0,0.0,0.0,0.0,0.0,0.0,0.0,0.0,0.0,0.0,0.0,0.0,0.0,0.0,0.0,0.0,0.0,0.0,0.0,0.0,0.0,0.0,0.0,0.0,0.0,0.0,0.0,0.0,0.0,0.0,0.0,0.0,0.0,0.0,0.0,0.0,0.0,0.0,0.0,0.0,0.0,0.0,0.0,0.0,0.0,0.0,0.0,0.0,0.0,0.0,0.0,0.0,0.0,0.0,0.0,0.0,0.0,0.0,0.0,0.0,0.0,0.0,0.0,0.0,0.0,0.0,0.0,0.0,0.0,0.0,0.0,0.0,0.0,0.0,0.0,0.0,0.0,0.0,0.0,0.0,0.0,0.0,0.0,0.0,0.0,0.0,0.0,0.0,0.0,0.0,0.0,0.0,0.0,0.0,0.0,0.0,0.0,0.0,0.0,0.0,0.0,0.0,0.0,0.0,0.0,0.0,0.0,0.0,0.0,0.0,0.0,0.0,0.0,0.0,0.0,0.0,0.0,0.0,0.0,0.0,0.0,0.0,0.0,0.0,0.0,0.0,0.0,0.0,0.0,0.0,0.0,0.0,0.0,0.0,0.0,0.0,0.0,0.0,0.0,0.0,0.0,0.0,0.0,0.0,0.0,0.0,0.0,0.0,0.0,0.0,0.0,0.0,0.0,0.0,0.0,0.0,0.0,0.0,0.0,0.0,0.0,0.0,0.0,0.0,0.0,0.0,0.0,0.0,0.0,0.0,0.0,0.0,0.0,0.0,0.0,0.0,0.0,0.0,0.0,0.0,0.0,0.0,0.0,0.0,0.0,0.0,0.0,0.0,0.0,0.0,0.0,0.0,0.0,0.0,0.0,0.0,0.0,0.0,0.0,0.0,0.0,0.0,0.0,0.0,0.0,0.0,0.0,0.0,0.0,0.0,0.0,0.0,0.0,0.0,0.0,0.0,0.0,0.0,0.0,0.0,0.0,0.0,0.0,0.0,0.0,0.0,0.0,0.0,0.0,0.0,0.0,0.0,0.0,0.0,0.0,0.0,0.0,0.0,0.0,0.0,0.0,0.0,0.0,0.0,0.0,0.0,0.0,0.0,0.0,0.0,0.0,0.0,0.0,0.0,0.0,0.0,0.0,0.0,0.0,0.0,0.0,0.0,0.0,0.0,0.0,0.0,0.0,0.0,0.0,0.0,0.0,0.0,0.0,0.0,0.0,0.0,0.0,0.0,0.0,0.0,0.0,0.0,0.0,0.0,0.0,0.0,0.0,0.0,0.0,0.0,0.0,0.0,0.0,0.0,0.0,0.0,0.0,0.0,0.0,0.0,0.0,0.0,0.0,0.0,0.0,0.0,0.0,0.0,0.0,0.0,0.0,0.0,0.0,0.0,0.0,0.0,0.0,0.0,0.0,0.0,0.0,0.0,0.0,0.0,0.0,0.0,0.0,0.0,0.0,0.0,0.0,0.0,0.0,0.0,0.0,0.0,0.0,0.0,0.0,0.0,0.0,0.0,0.0,0.0,0.0,0.0,0.0,0.0,0.0,0.0,0.0,0.0,0.0,0.0,0.0,0.0,0.0,0.0,0.0,0.0,0.0,0.0,0.0,0.0,0.0,0.0,0.0,0.0,0.0,0.0,0.0,0.0,0.0,0.0,0.0,0.0,0.0,0.0,0.0,0.0,0.0,0.0,0.0,0.0,0.0,0.0,0.0,0.0,0.0,0.0,0.0,0.0,0.0,0.0,0.0,0.0,0.0,0.0,0.0,0.0,0.0,0.0,0.0,0.0,0.0,0.0,0.0,0.0,0.0,0.0,0.0,0.0,0.0,0.0,0.0,0.0,0.0,0.0,0.0,0.0,0.0,0.0,0.0,0.0,0.0,0.0,0.0,0.0,0.0,0.0,0.0,0.0,0.0,0.0,0.0,0.0,0.0,0.0,0.0,0.0,0.0,0.0,0.0,0.0,0.0,0.0,0.0,0.0,0.0,0.0,0.0,0.0,0.0,0.0,0.0,0.0,0.0,0.0,0.0,0.0,0.0,0.0,0.0,0.0,0.0,0.0,0.0,0.0,0.0,0.0,0.0,0.0,0.0,0.0,0.0,0.0,0.0,0.0,0.0,0.0,0.0,0.0,0.0,0.0,0.0,0.0,0.0,0.0,0.0,0.0,0.0,0.0,0.0,0.0,0.0,0.0,0.0,0.0,0.0,0.0,0.0,0.0,0.0,0.0,0.0,0.0,0.0,0.0,0.0,0.0,0.0,0.0,0.0,0.0,0.0,0.0,0.0,0.0,0.0,0.0,0.0,0.0,0.0,0.0,0.0,0.0,0.0,0.0,0.0,0.0,0.0,0.0,0.0,0.0,0.0,0.0,0.0,0.0,0.0,0.0,0.0,0.0,0.0,0.0,0.0,0.0,0.0,0.0,0.0,0.0,0.0,0.0,0.0,0.0,0.0,0.0,0.0,0.0,0.0,0.0,0.0,0.0,0.0,0.0,0.0,0.0,0.0,0.0,0.0,0.0,0.0,0.0,0.0,0.0,0.0,0.0,0.0,0.0,0.0,0.0,0.0,0.0,0.0,0.0,0.0,0.0,0.0,0.0,0.0,0.0,0.0,0.0,0.0,0.0,0.0,0.0,0.0,0.0,0.0,0.0,0.0,0.0,0.0,0.0,0.0,0.0,0.0,0.0,0.0,0.0,0.0,0.0,0.0,0.0,0.0,0.0,0.0,0.0,0.0,0.0,0.0,0.0,0.0,0.0,0.0,0.0,0.0,0.0,0.0,0.0,0.0,0.0,0.0,0.0,0.0,0.0,0.0,0.0,0.0,0.0,0.0,0.0,0.0,0.0,0.0,0.0,0.0,0.0,0.0,0.0,0.0,0.0,0.0,0.0,0.0,0.0,0.0,0.0,0.0,0.0,0.0,0.0,0.0,0.0,0.0,0.0,0.0,0.0,0.0,0.0,0.0,0.0,0.0,0.0,0.0,0.0,0.0,0.0,0.0,0.0,0.0,0.0,0.0,0.0,0.0,0.0,0.0,0.0,0.0,0.0,0.0,0.0,0.0,0.0,0.0,0.0,0.0,0.0,0.0,0.0,0.0,0.0,0.0,0.0,0.0,0.0,0.0,0.0,0.0,0.0,1.7071,1.4408,0.0,0.0,0.0,0.0,0.0,0.0,0.0,0.0,0.0,0.0,0.0,0.0,0.0,0.0,0.0,0.0,0.0,0.0,0.0,0.0,0.0,0.0,0.0,0.0,0.0,0.0,0.0,0.0,0.0,0.0,0.0,0.0,0.0,0.0,0.0,0.0,0.0,1.3924,1.4771,1.532,1.563,1.6541,1.6063,1.4517,0.0,0.0,0.0,0.0,0.0,0.0,0.0,0.0,0.0,0.0,0.0,0.0,0.0,0.0,0.0,0.0,0.0,0.0,0.0,0.0,0.0,0.0,0.0,0.0,0.0,0.0,0.0,0.0,0.0,0.0,0.0,0.0,0.0,0.0,0.0,0.0,0.0,0.0,0.0,0.0,0.0,0.0,0.0,0.0,0.0,0.0,0.0,0.0,0.0,0.0,0.0,0.0,0.0,0.0,0.0,0.0,0.0,0.0,0.0,0.0,0.0,0.0,0.0,0.0,0.0,0.0,0.0,0.0,0.0,0.0,1.7977,1.6507,0.0,0.0,0.0,0.0,0.0,0.0,0.0,0.0,0.0,0.0,0.0,0.0,0.0,0.0,0.0,0.0,0.0,0.0,0.0,0.0,0.0,0.0,0.0,1.1002,1.193,1.2642,1.2834,1.356,0.0,0.0,0.0,0.0,0.0,0.0,0.0,1.4822,1.4506,1.3719,1.5227,1.6769,1.8374,1.9124,1.8025,1.541,1.5536,0.0,0.0,0.0,0.0,0.0,0.0,0.0,0.0,0.0,0.0,0.0,0.0,0.0,0.0,0.0,0.0,0.0,0.0,0.0,0.0,0.0,0.0,0.0,0.0,0.0,0.0,0.0,0.0,0.0,0.0,0.0,0.0,0.0,0.0,0.0,0.0,0.0,0.0,0.0,0.0,0.0,0.0,0.0,0.0,0.0,0.0,0.0,0.0,0.0,0.0,0.0,0.0,0.0,0.0,0.0,0.0,0.0,0.0,0.0,0.0,0.0,0.0,0.0,1.9663,1.9684,1.8855,1.9062,1.9161,1.9198,1.9858,1.9776,1.9109,1.7935,0.0,0.0,0.0,0.0,0.0,0.0,0.0,0.0,0.0,0.0,0.0,0.0,0.0,0.0,0.0,0.0,0.0,0.0,0.0,0.0,0.0,1.1541,1.2565,1.268,1.3349,1.4151,1.5132,0.0,0.0,0.0,0.0,0.0,1.3779,1.4504,1.5053,1.5383,1.6479,1.7822,1.9398,1.9112,1.8965,1.8934,1.9141,1.8885,1.8294,0.0,0.0,0.0,0.0,0.0,0.0,0.0,0.0,0.0,0.0,0.0,0.0,0.0,0.0,0.0,0.0,0.0,0.0,0.0,0.0,0.0,0.0,0.0,0.0,0.0,0.0,0.0,0.0,0.0,0.0,0.0,0.0,0.0,0.0,0.0,0.0,0.0,0.0,0.0,0.0,0.0,1.3468,1.4728,0.0,0.0,0.0,0.0,0.0,0.0,0.0,0.0,0.0,0.0,0.0,0.0,0.0,1.2132,1.7238,1.9051,2.0407,2.1305,2.2831,2.2776,2.1379,2.2776,2.34,2.34,2.3511,0.0,1.8001,1.8836,0.0,0.0,0.0,0.0,0.0,0.0,0.0,0.0,0.0,0.0,0.0,0.0,0.0,0.0,0.0,0.0,0.0,0.0,0.0,0.0,0.0,1.3233,1.4835,1.4835,1.6022,1.6715,1.6619,1.5036,0.0,0.0,0.0,1.404,1.432,1.4298,1.5038,1.6598,1.8927,2.0665,2.1793,2.2159,2.2451,2.2642,2.2839,2.1555,1.9206,1.9106,0.0,0.0,0.0,0.0,0.0,0.0,0.0,0.0,0.0,0.0,0.0,0.0,0.0,0.0,0.0,0.0,0.0,0.0,0.0,0.0,0.0,0.0,0.0,0.0,0.0,0.0,0.0,0.0,0.0,0.0,0.0,0.0,0.0,0.0,0.0,0.0,0.0,0.0,0.0,1.3646,1.4699,1.5765,1.6427,1.6769,0.0,0.0,0.0,0.0,0.0,0.0,0.0,0.0,0.0,1.766,1.8684,1.9895,2.1345,2.2721,2.3309,2.3162,2.4777,2.5181,2.452,2.4783,2.4931,2.4954,2.5385,2.3951,2.1308,2.0586,2.1561,2.3254,0.0,0.0,0.0,0.0,1.7594,1.7733,0.0,0.0,0.0,0.0,0.0,0.0,0.0,0.0,0.0,0.0,0.0,0.0,1.1738,1.4772,1.6811,1.6811,1.7953,1.8299,1.7446,1.5811,1.4862,1.4862,1.4249,1.423,1.4914,1.4993,1.618,1.8573,2.1347,2.3103,2.3899,2.4687,2.5053,2.5014,2.5205,2.3616,2.0738,2.0429,1.9827,1.9026,0.0,0.0,0.0,0.0,0.0,0.0,0.0,0.0,0.0,0.0,0.0,0.0,0.0,0.0,0.0,0.0,0.0,0.0,0.0,0.0,0.0,0.0,0.0,0.0,0.0,0.0,0.0,0.0,0.0,0.0,0.0,0.0,0.0,0.0,0.0,0.0,0.0,1.4325,1.5855,1.6554,1.7934,1.86,0.0,0.0,0.0,0.0,0.0,0.0,1.9164,1.9091,1.9237,1.9659,2.3382,2.5126,2.4612,2.6337,2.6209,2.4226,2.5864,2.6621,2.6597,2.6055,2.6028,2.644,2.6982,2.5896,2.3602,2.2037,2.2405,2.3812,2.2318,2.0482,1.8645,1.8717,1.8352,1.818,0.0,0.0,0.0,0.0,0.0,0.0,0.0,0.0,0.0,0.0,0.0,1.2623,1.2623,1.5624,1.7645,1.7645,1.7722,1.7407,1.6599,1.492,1.3978,1.3978,1.3926,1.4234,1.4972,1.72,1.958,2.2057,2.3169,2.414,2.4928,2.5168,2.5187,2.5005,2.5215,2.4763,2.3794,2.2652,2.1706,2.0771,1.8601,0.0,0.0,0.0,0.0,0.0,0.0,0.0,0.0,0.0,0.0,0.0,0.0,0.0,0.0,0.0,0.0,0.0,0.0,0.0,0.0,0.0,0.0,0.0,0.0,0.0,0.0,0.0,0.0,0.0,0.0,0.0,0.0,0.0,0.0,0.0,0.0,0.0,0.0,1.6627,1.9744,0.0,0.0,0.0,0.0,2.5731,2.3749,2.3235,2.5236,2.3694,2.3437,2.4962,2.3088,2.3217,2.5695,2.7824,2.731,2.4207,2.5917,2.6689,2.6706,2.6639,2.742,2.8842,2.8865,2.6415,2.2415,2.2694,2.2975,2.3117,2.1824,2.1238,2.1095,2.0856,2.0574,2.057,0.0,0.0,0.0,0.0,0.0,0.0,0.0,0.0,1.0094,1.0094,1.2075,1.3695,1.4253,1.7792,2.0396,2.0982,2.1512,2.1235,1.9862,1.7612,1.6118,1.5599,1.4503,1.4547,1.5944,1.9398,2.1372,2.179,2.3794,2.4908,2.5187,2.5264,2.5264,2.5207,2.5264,2.5149,2.4851,2.4274,2.3275,2.197,2.0896,1.9625,0.0,0.0,0.0,0.0,0.0,0.0,0.0,0.0,0.0,0.0,0.0,0.0,0.0,0.0,0.0,0.0,0.0,0.0,0.0,0.0,0.0,0.0,0.0,0.0,0.0,0.0,0.0,0.0,0.0,0.0,0.0,0.0,0.0,0.0,0.0,0.0,0.0,2.0495,2.2538,0.0,2.2661,2.1904,2.2225,2.4152,2.5162,2.5658,2.5548,2.5401,2.5585,2.6153,2.5676,2.586,2.6833,2.826,2.8184,2.6562,2.6644,2.6691,2.6691,2.6691,2.7019,2.7512,2.7512,2.6601,2.5118,2.5289,2.4842,2.3988,2.3446,2.3343,2.3487,2.2908,2.2641,2.2699,0.0,0.0,0.0,0.0,0.0,0.0,0.0,0.0,1.021,1.0502,1.2767,1.467,1.5541,1.9169,2.1773,2.2387,2.294,2.2296,2.0035,1.8504,1.6971,1.5297,1.5188,1.6123,1.8133,2.1143,2.2717,2.2786,2.4495,2.5322,2.5303,2.5303,2.5466,2.5746,2.5746,2.5746,2.5726,2.5601,2.4562,2.2952,2.2347,2.0671,1.8458,0.0,0.0,0.0,0.0,0.0,0.0,0.0,0.0,0.0,0.0,0.0,0.0,0.0,0.0,0.0,0.0,0.0,0.0,0.0,0.0,0.0,0.0,0.0,0.0,0.0,0.0,0.0,0.0,0.0,0.0,0.0,0.0,0.0,0.0,1.8454,2.095,2.3233,2.506,2.595,2.5435,2.5003,2.4714,2.4629,2.6686,2.7548,2.6649,2.7126,2.742,2.742,2.7769,2.7952,2.7952,2.8627,2.8626,2.7897,2.7618,2.7385,2.7199,2.7199,2.73,2.7435,2.6928,2.6691,2.6691,2.6691,2.6116,2.5212,2.4855,2.4679,2.4587,2.4244,2.3927,2.3756,0.0,0.0,0.0,0.0,0.0,0.0,1.0094,1.0094,1.0383,1.1214,1.3599,1.5522,1.6369,1.9535,2.1573,2.1551,2.1571,2.0179,1.6804,1.7279,1.624,1.295,1.5973,1.8924,2.144,2.2469,2.3739,2.5313,2.537,2.537,2.5303,2.5322,2.5784,2.6593,2.6631,2.6651,2.6651,2.6631,2.5582,2.3832,2.2805,2.1315,1.965,0.0,0.0,0.0,0.0,0.0,0.0,0.0,0.0,0.0,0.0,0.0,0.0,0.0,0.0,0.0,0.0,0.0,0.0,0.0,0.0,0.0,0.0,0.0,0.0,0.0,0.0,0.0,0.0,0.0,0.0,0.0,0.0,0.0,1.6749,2.0847,2.3997,2.4577,2.7276,2.8482,2.7002,2.8153,2.8723,2.7934,2.8576,2.8994,2.903,2.8957,2.8938,2.8957,2.8975,2.8994,2.8994,2.8994,2.8626,2.7915,2.8623,2.8661,2.8163,2.8197,2.8484,2.8873,2.7351,2.6691,2.6691,2.6725,2.6725,2.6639,2.5799,2.4996,2.4367,2.471,2.436,2.3717,0.0,0.0,0.0,0.0,0.0,0.0,1.0194,1.0094,0.9979,0.9633,1.2863,1.5285,1.5541,1.9169,2.1845,2.2469,2.1956,2.0696,1.8525,1.7966,1.7029,1.5528,1.7555,1.9605,2.1536,2.3672,2.5007,2.5459,2.5456,2.5447,2.539,2.6025,2.6439,2.6689,2.7292,2.7566,2.7616,2.7556,2.7248,2.6631,2.4947,2.3643,2.2609,0.0,0.0,0.0,0.0,0.0,0.0,0.0,0.0,0.0,0.0,0.0,0.0,0.0,0.0,0.0,0.0,0.0,0.0,0.0,0.0,0.0,0.0,0.0,0.0,0.0,0.0,0.0,0.0,0.0,0.0,0.0,1.8594,2.024,2.0715,2.3245,2.5746,2.754,2.9482,3.0481,3.0061,2.9944,2.9787,2.9567,2.9219,2.9255,2.9843,2.8209,2.753,2.8117,2.8705,2.8994,2.8994,2.8994,2.8533,2.7589,2.7827,2.7624,2.7131,2.7875,2.8281,2.8366,2.7199,2.6691,2.6759,2.7486,2.7351,2.6572,2.5265,2.4781,2.4677,2.3683,2.3478,2.3551,0.0,0.0,0.0,0.0,0.0,0.0,1.0675,1.0325,0.994,0.946,1.2786,1.5189,1.5189,1.8708,2.1259,2.1771,2.1679,2.0581,1.8172,1.7183,1.7125,1.8082,1.9439,2.0997,2.2686,2.4587,2.5527,2.5508,2.5898,2.604,2.6021,2.6887,2.7479,2.7843,2.8318,2.8509,2.8526,2.8844,2.8972,2.8846,2.7717,2.6139,2.4389,2.3752,2.265,2.1424,2.1092,2.1475,2.1969,2.0618,0.0,0.0,0.0,0.0,0.0,0.0,0.0,0.0,0.0,0.0,0.0,0.0,0.0,0.0,0.0,0.0,0.0,0.0,0.0,0.0,0.0,0.0,0.0,0.0,2.1483,2.4538,2.5682,2.6783,2.8169,2.9976,3.1428,3.2103,3.1622,3.1665,3.1421,3.0742,3.0595,3.0577,3.0705,2.9586,2.8136,2.6337,2.8925,2.9696,2.8333,2.9127,2.8978,2.789,2.8216,2.8049,2.7434,2.8357,2.856,2.8163,2.7469,2.6996,2.6742,2.7334,2.7046,2.6183,0.0,0.0,0.0,0.0,2.3236,2.3566,0.0,0.0,0.0,0.0,0.0,0.0,1.1291,1.0733,1.021,1.0113,1.2997,1.5055,1.5055,1.8016,2.0054,2.0158,2.0688,1.9746,1.6702,1.5551,1.6615,2.0237,2.1235,2.2514,2.427,2.5166,2.5586,2.5527,2.6465,2.6875,2.6836,2.7795,2.8666,2.9418,2.9595,2.9613,2.9571,3.0433,3.0775,3.0706,3.0706,2.8783,2.5918,2.5822,2.4735,2.3158,2.2363,2.2521,2.2954,2.1787,0.0,0.0,0.0,0.0,0.0,0.0,0.0,0.0,0.0,0.0,0.0,0.0,0.0,0.0,0.0,0.0,0.0,0.0,0.0,0.0,0.0,0.0,0.0,0.0,2.4847,2.8639,3.0938,3.0969,3.1059,3.1913,3.2915,3.3194,3.2223,3.3058,3.3073,3.1641,3.2118,3.2192,3.1568,3.1733,0.0,0.0,0.0,3.0411,2.7475,2.9292,2.9582,2.842,2.9133,2.9069,2.8375,2.8968,2.8853,2.8098,2.7892,2.7385,2.6708,2.6793,2.6285,2.5505,2.582,2.545,2.4611,2.3428,2.3294,2.3674,0.0,0.0,0.0,0.0,0.0,0.0,1.1483,1.1252,1.0906,1.019,1.2478,1.4151,1.4151,1.6618,1.8547,1.9184,1.8178,1.7202,1.6534,1.4428,1.5366,2.0181,2.1224,2.2551,2.4347,2.5225,2.5664,2.5664,2.6543,2.6953,2.6914,2.8372,2.9223,2.9533,3.0779,3.1384,3.1519,3.2328,3.2634,3.2576,3.2576,3.1731,3.0375,2.966,2.906,2.8499,2.7642,2.744,2.712,2.4253,2.3747,2.4081,2.2671,2.178,0.0,0.0,0.0,0.0,0.0,0.0,0.0,0.0,0.0,0.0,0.0,0.0,0.0,0.0,0.0,0.0,0.0,0.0,0.0,2.7067,2.9848,3.2191,3.3875,3.4518,3.4498,3.3458,3.3294,3.3183,3.2985,3.2894,3.2706,3.2394,3.1916,3.1843,3.2339,3.0632,2.9439,2.9053,2.942,2.9017,2.7732,2.9365,2.9582,2.8394,2.8557,0.0,2.7983,2.7823,2.7621,2.7474,2.7709,2.7385,2.6742,2.7351,2.6454,2.4706,2.4431,2.3856,2.3007,2.2024,2.253,2.3554,0.0,0.0,0.0,0.0,0.0,0.0,1.2045,1.168,1.0944,0.9671,1.1714,1.344,1.3863,1.5452,1.6997,1.8241,1.7228,1.7241,1.8943,1.7471,1.8293,2.223,2.2823,2.3675,2.5013,2.5481,2.5918,2.6348,2.7226,2.7832,2.8223,2.9434,3.0023,3.008,3.0868,3.1484,3.1992,3.2834,3.3421,3.3838,3.4216,3.407,3.3519,3.2173,3.1591,3.1341,3.0061,2.9602,2.9218,2.6702,2.5844,2.5611,2.4321,2.3619,2.3024,0.0,0.0,0.0,0.0,0.0,0.0,0.0,0.0,0.0,0.0,0.0,0.0,0.0,0.0,2.1927,2.3212,0.0,2.7392,2.9555,3.1948,3.4095,3.5636,3.6381,3.6059,3.4282,3.4231,3.4111,3.3567,3.3314,3.3201,3.3201,3.2834,3.2596,3.2614,3.1843,3.0852,2.9641,3.0393,2.9843,2.7824,2.9402,2.9582,2.8394,2.8394,2.8112,2.7589,2.7378,2.7178,2.7021,2.7182,2.7165,2.6987,2.7004,2.6461,2.5559,2.4505,2.3622,2.2891,2.2411,2.2965,2.3868,0.0,0.0,0.0,0.0,0.0,0.0,0.0,1.2103,1.1118,0.9575,1.1175,1.2757,1.3574,1.4286,1.5195,1.6369,1.6176,1.7318,2.0404,2.0307,2.1405,2.4264,2.4537,2.4959,2.5684,2.5703,2.6133,2.6992,2.7871,2.8711,2.9512,3.0499,3.0923,3.0856,3.1222,3.178,3.2485,3.3378,3.4144,3.482,3.5412,3.5641,3.5416,3.3799,3.3273,3.3158,3.1302,3.0535,3.011,2.8272,2.7072,2.6226,2.5513,2.5187,2.4505,2.1641,2.1671,0.0,0.0,0.0,0.0,0.0,0.0,0.0,0.0,2.1951,2.2905,2.3806,2.4746,2.5785,2.7107,2.8569,3.0068,3.1618,3.375,3.567,3.6975,3.7351,3.682,3.4994,3.5119,3.5042,3.4128,3.3899,3.3807,3.3807,3.3807,3.3532,3.2871,3.3311,3.2394,2.9764,3.1439,3.1011,2.8173,2.9436,2.9489,2.8298,2.8368,2.8084,2.7512,2.7512,2.7348,2.7002,2.6873,2.6987,2.7251,2.6645,2.6492,2.6419,2.509,2.4082,2.3356,2.3424,2.3801,2.4284,0.0,0.0,0.0,0.0,0.0,0.0,0.0,0.0,1.2219,1.1252,1.1368,1.1872,1.2738,1.2911,1.2738,1.2156,1.3382,1.4998,1.6948,1.8369,2.0706,2.4155,2.4999,2.5473,2.5703,2.5703,2.6133,2.6992,2.7871,2.8711,2.9531,3.1118,3.181,3.1811,3.3437,3.4214,3.4361,3.5285,3.5702,3.5747,3.5833,3.5757,3.5474,3.4524,3.4581,3.4883,3.2434,3.1066,3.0033,2.757,2.6163,2.5432,2.5325,2.4807,2.4159,2.3756,2.3234,2.2372,2.045,1.822,1.6828,1.8447,2.1352,2.3787,0.0,2.7195,3.0074,2.9113,2.9864,3.111,3.236,3.3803,3.5261,3.6503,3.7563,3.8279,3.8462,3.7906,3.7147,3.619,3.5465,3.5017,3.488,3.4229,3.3807,3.3807,3.3807,3.3752,3.3678,3.3073,3.2577,3.2228,3.177,3.0856,2.9419,2.9582,2.9089,2.7954,2.8264,2.835,2.8272,2.8272,2.8246,2.8174,2.7512,2.7272,2.7286,2.7199,2.6586,2.564,2.5649,2.4936,2.3968,2.4229,2.4408,2.4495,0.0,0.0,0.0,0.0,0.0,0.0,0.0,0.0,0.0,1.0829,1.0637,1.1169,1.2543,1.2699,1.2353,1.1483,1.2041,1.4025,1.778,1.8677,2.0843,2.4818,2.5323,2.5542,2.5644,2.6133,2.6836,2.7754,2.8633,2.9453,3.0215,3.087,3.1429,3.1865,3.2636,3.3558,3.456,3.4995,3.5488,3.5957,3.5923,3.553,3.4847,3.3961,3.316,3.2193,2.9658,2.8166,0.0,2.5077,2.4137,2.3924,2.4443,2.4378,2.3899,2.2882,2.1999,2.1012,1.9528,1.961,2.0488,2.2112,2.4756,2.7226,2.8173,3.0705,3.2735,3.2202,3.3668,3.5192,3.5703,3.5939,3.654,3.7961,3.7264,3.6905,3.7863,3.6872,3.5752,3.4945,3.3293,3.2394,3.2871,3.3018,3.2908,3.243,3.3275,3.3605,3.3128,3.2797,3.2173,3.1237,3.0889,3.0229,2.9241,2.9241,2.8891,2.8183,2.8324,2.829,2.8102,2.7862,2.7414,2.676,2.6912,2.669,2.6279,2.6472,2.6451,2.6242,2.563,2.5294,2.5105,2.4568,2.4519,2.47,0.0,0.0,0.0,0.0,0.0,0.0,0.0,0.0,0.0,0.0,1.0248,1.0572,1.1857,1.1986,1.1738,1.1098,1.1483,1.3632,1.809,1.883,2.0889,2.4957,2.5139,2.5284,2.5573,2.6208,2.6992,2.791,2.8809,2.9629,3.0371,3.082,3.132,3.1854,3.2375,3.3322,3.4551,3.4863,3.5234,3.5644,3.5586,3.4857,3.3619,3.2238,3.0573,2.8714,2.6873,2.5365,2.3998,2.2546,2.1914,2.1914,2.3026,2.3544,2.3448,2.1933,2.0584,1.9575,1.9587,2.1069,2.3204,2.5625,2.8091,3.042,3.2256,3.3833,3.4974,3.5218,3.6453,3.7436,3.7204,3.6705,3.66,3.7544,3.6366,3.5768,3.6993,3.5716,3.4211,3.2996,3.0693,2.9187,2.9122,3.084,3.188,3.1733,3.3018,3.355,3.2963,3.2522,3.1733,3.0577,3.0099,2.949,2.87,2.87,2.8438,2.7929,2.8039,2.8047,2.7897,2.7823,2.714,2.607,2.6619,2.6409,2.575,2.5979,2.6316,2.6579,2.5745,2.5549,2.5668,2.4888,2.4714,2.4912,0.0,0.0,0.0,0.0,0.0,0.0,0.0,0.0,0.0,0.0,0.0,0.0,0.0,1.0171,1.0171,1.0133,1.168,1.3777,1.6407,1.81,2.0573,2.4082,2.4245,2.4649,2.5486,2.558,2.6074,2.6934,2.7871,2.875,2.957,3.1328,3.2069,3.1969,3.3795,3.462,3.4668,3.5566,3.5488,3.4746,3.4746,3.3619,3.1715,2.921,2.7048,2.5341,2.5274,2.3639,2.1383,2.048,1.9662,1.9312,2.1039,2.2169,2.2659,2.1748,1.9721,1.8447,2.1448,2.1872,2.2563,2.7159,3.0323,3.2919,3.5333,3.6863,3.8008,3.8803,3.8172,3.7259,3.6474,3.6332,3.6056,3.5229,3.5754,3.6278,3.6315,3.4881,3.2996,3.0771,2.8261,2.5829,2.3561,2.7543,3.0925,3.2467,3.333,3.3788,3.3752,3.2265,3.1403,3.1366,2.9861,2.8669,2.7954,2.7926,2.753,2.6758,2.7147,2.753,2.7926,2.8626,2.8294,2.7162,2.7186,2.6843,2.6267,2.6289,2.619,2.6042,2.6124,2.5741,2.5158,2.5308,2.5244,2.512,0.0,0.0,0.0,0.0,0.0,0.0,0.0,0.0,0.0,0.0,0.0,0.0,0.0,0.0,0.0,0.0,1.0156,1.1479,1.4574,1.5849,1.8016,2.1468,2.3226,2.4303,2.463,2.5759,2.6524,2.6894,2.7793,2.8398,2.8711,2.9277,2.9798,3.0291,3.1448,3.2299,3.2891,3.3203,3.3223,3.2949,3.1777,3.0538,2.8972,2.5262,2.3395,2.2353,0.0,1.8125,1.7754,1.6924,1.6471,1.6535,1.8248,1.8977,1.9051,1.8274,1.9439,2.108,2.159,2.4369,2.7864,3.1073,3.3733,3.6096,3.7959,3.9121,3.9377,3.7821,3.5955,3.393,3.1852,3.0157,2.9683,3.1521,3.0728,3.1168,3.4908,3.136,2.891,3.0371,2.7513,2.5663,2.6358,2.7255,2.8264,2.9329,3.1641,3.3324,3.4031,3.2889,3.2017,3.1681,3.0192,2.9013,2.8237,2.7992,2.7765,2.75,2.7862,2.7974,2.7897,2.8147,2.7226,2.5438,2.5964,2.5863,2.5302,2.53,2.5672,2.6223,2.5736,2.5476,2.5369,2.5434,2.541,2.5375,0.0,0.0,0.0,0.0,0.0,0.0,0.0,0.0,0.0,0.0,0.0,0.0,0.0,0.0,0.0,0.0,0.0,1.0517,1.3286,1.4003,1.5695,1.8811,2.0504,2.1526,2.1827,2.3554,2.4467,2.4505,2.5757,2.6406,2.6445,2.6426,2.6836,2.7656,2.8471,2.937,3.0217,3.021,2.9902,2.9297,2.7871,2.6348,2.4588,2.1513,2.0009,0.0,1.597,1.4937,1.5032,1.456,1.4396,1.466,1.6053,1.6744,1.7149,1.7871,1.9843,2.2178,2.3987,2.7683,3.1744,3.4759,3.6715,3.8216,3.9265,3.9342,3.8605,3.6526,3.4328,3.1835,2.8802,2.6769,2.6187,2.816,2.7204,2.801,3.3148,3.0117,2.8128,3.0152,2.7886,2.6518,2.7403,2.7289,2.7345,2.7772,3.0503,3.2348,3.2752,3.2133,3.1722,3.1663,3.0448,2.9362,2.842,2.8075,2.7754,2.747,2.8058,2.8218,2.8004,2.8306,2.7161,2.497,2.5709,2.5394,2.4393,2.4681,2.5305,2.6032,2.5518,2.5335,2.5394,2.5464,2.546,2.5402,0.0,0.0,0.0,0.0,0.0,0.0,0.0,0.0,0.0,0.0,0.0,0.0,0.0,0.0,0.0,0.0,0.0,0.0,1.2449,1.2642,1.3777,1.6195,1.6426,1.6816,1.7504,1.9322,2.0193,2.0059,2.1922,2.2831,2.2832,2.2891,2.332,2.4043,2.4961,2.5792,2.6532,2.6575,2.5644,2.4062,2.3203,2.1348,1.8963,1.7957,1.6932,1.5935,1.5027,1.4078,1.3261,1.3434,1.3543,1.3785,1.4761,1.5739,1.7149,2.032,2.1041,2.2149,2.8338,3.158,3.4133,3.797,3.9112,3.9265,3.9131,3.7586,3.5895,3.4829,3.2978,3.0508,2.7046,2.5732,2.5189,2.5225,2.5276,2.6783,3.1129,3.104,3.0415,3.0171,2.9342,2.8278,2.695,2.7869,2.8384,2.7956,3.0118,3.1146,3.0436,3.0375,3.0705,3.1446,3.0644,2.9648,2.8502,2.8136,2.7535,2.6774,2.7748,2.8222,2.8247,2.9005,2.8032,2.5781,2.6366,2.5541,2.3889,2.4601,2.521,2.5639,2.5578,2.541,2.5221,2.5395,2.5333,2.5197,0.0,0.0,0.0,0.0,0.0,0.0,0.0,0.0,0.0,0.0,0.0,0.0,0.0,0.0,0.0,0.0,0.0,0.0,1.0733,1.1988,1.2949,1.3493,1.5344,1.6414,1.6554,1.7649,1.8264,1.8337,1.8834,1.913,1.9227,1.9296,1.9082,1.8728,2.0148,2.0566,2.0259,2.0853,2.0921,2.0469,1.8965,1.793,1.6952,1.4198,1.4039,1.4998,1.2834,1.2271,1.2636,1.3179,1.4146,1.542,1.7011,1.8521,1.9809,2.0276,2.3867,2.8063,2.9813,3.3921,3.7913,3.8942,3.9246,3.8804,3.6897,3.5561,3.3714,3.0145,2.6587,2.3225,2.028,1.8035,1.8054,2.2379,2.2555,2.4254,3.0264,3.0084,2.9958,3.166,3.1648,3.1792,3.2522,3.3184,3.2455,2.9793,3.1274,3.2551,3.3152,3.3006,3.2797,3.2595,3.1093,3.0105,2.9745,2.8759,2.8045,2.7589,2.8103,2.8366,2.8366,2.8578,2.7876,2.6543,2.6627,2.6783,2.6916,2.6521,2.6828,2.7426,2.6624,2.5887,2.5239,2.5057,2.4955,2.487,0.0,0.0,0.0,0.0,0.0,0.0,0.0,0.0,0.0,0.0,0.0,0.0,0.0,0.0,0.0,0.0,0.0,0.0,0.0,1.1988,1.2452,1.23,1.3735,1.4471,1.4316,1.5657,1.6198,1.5895,1.6336,1.6419,1.6175,1.5864,1.5667,1.5592,1.6497,1.6875,1.6812,1.6874,1.6733,0.0,0.0,1.4176,1.3625,1.2051,1.2179,1.307,1.2044,1.1899,1.2482,1.4279,1.5284,1.6342,1.9586,2.134,2.259,2.4495,2.7817,3.1284,3.3201,3.6473,3.9304,3.9304,3.8723,3.7397,3.4491,3.2594,3.0278,2.6197,2.3265,2.0604,1.7844,1.5639,1.5772,2.0433,2.0515,2.2073,2.8039,2.8884,2.9811,3.2364,3.2889,3.3783,3.5742,3.5941,3.5157,3.3192,3.3096,3.2988,3.2635,3.316,3.3356,3.3168,3.2175,3.1344,3.0684,2.9888,2.9228,2.8649,2.9098,2.9217,2.9008,2.9172,2.8529,2.7296,2.7488,2.7548,2.7472,2.7224,2.7268,2.7432,2.6703,2.5843,2.4967,2.4726,2.4551,2.4404,0.0,0.0,0.0,0.0,0.0,0.0,0.0,0.0,0.0,0.0,1.1269,0.0,0.0,0.0,0.0,0.0,0.0,0.0,0.0,0.0,1.1951,1.1837,1.1986,1.2018,1.1887,1.3495,1.4032,1.3402,1.4073,1.4137,1.3602,1.2809,1.2779,1.3372,1.3515,1.3937,1.4473,1.3845,1.3148,1.238,1.1638,1.0865,1.0275,0.0,1.1104,1.1053,1.1912,1.1939,1.213,1.57,1.6733,1.7385,2.2355,2.4335,2.5723,3.0148,3.1885,3.3153,3.6844,3.8635,3.94,3.9189,3.7834,3.5661,3.2281,2.9361,2.6411,2.2975,2.1481,2.0127,1.785,1.6383,1.6471,1.9378,1.9399,2.0593,2.5041,2.7606,2.9914,3.2378,3.3455,3.4981,3.7471,3.7075,3.6712,3.6856,3.5299,3.3499,3.1502,3.2683,3.335,3.3275,3.3289,3.2616,3.1242,3.1093,3.0659,2.9911,3.0495,3.0476,2.9984,3.0281,2.9593,2.819,2.8484,2.8022,2.7067,2.7323,2.7073,2.6541,2.6322,2.551,2.4441,2.4356,2.4137,2.3868,0.0,0.0,0.0,0.0,0.0,0.0,0.0,0.0,0.0,0.0,1.2169,1.0818,0.0,0.0,0.0,0.0,0.0,0.0,0.0,0.0,0.0,1.0912,1.0958,1.1241,1.1808,1.1499,1.1718,1.2443,1.1288,1.1011,1.1579,1.09,1.0212,0.9591,1.0483,1.0506,0.991,1.0598,1.0787,1.0638,1.048,1.0324,1.0214,1.0294,0.0,0.0,1.1217,1.0221,0.9698,1.5094,1.8159,2.0499,2.517,2.8065,3.0023,3.1273,3.3628,3.5974,3.6731,3.8577,3.9954,3.8577,3.6959,3.4834,3.1405,2.7497,2.383,2.1101,1.8763,1.7285,1.7512,1.7363,1.7844,1.9882,2.0613,2.1264,2.221,2.6828,3.0465,3.1401,3.3883,3.6389,3.8615,3.733,3.6731,3.762,3.7381,3.6749,3.5714,3.5503,3.4558,3.2699,3.2672,3.2084,3.0891,3.1384,3.1597,3.1515,3.1936,3.1722,3.0968,3.1021,3.049,2.9505,2.861,2.8474,2.8867,2.789,2.7083,2.6441,2.6435,2.5344,2.378,2.3808,2.361,2.3298,0.0,0.0,0.0,0.0,0.0,0.0,0.0,1.256,1.2156,1.256,1.1115,1.0061,1.0057,0.9567,0.9392,0.0,0.0,0.0,0.0,0.0,0.0,0.0,1.1567,1.1958,1.2323,1.2005,1.1968,1.2195,0.0,1.0345,1.0368,0.9963,0.9536,0.9094,0.9611,0.9572,0.9151,0.9748,0.9994,0.9994,1.0113,1.0156,1.0133,0.0,0.0,0.0,0.9232,0.8741,0.8974,1.3082,1.6054,1.9226,2.5876,2.9545,3.1487,3.2141,3.4389,3.6696,3.6696,3.8558,3.9992,3.7855,3.6065,3.348,2.831,2.4793,2.1656,1.8178,1.6151,1.5245,1.6079,1.552,1.6124,1.9719,2.0222,2.0924,2.3169,2.6592,2.9631,3.1629,3.3335,3.5319,3.7834,3.6731,3.6281,3.7398,3.7249,3.6881,3.6306,3.5811,3.5018,3.3939,3.3932,3.3671,3.3143,3.3333,3.331,3.3165,3.2871,3.2202,3.117,3.0723,3.0082,2.9292,2.8713,2.8273,2.79,2.7266,2.5941,2.4321,2.4898,2.4093,2.2704,2.3058,2.2772,2.2159,0.0,0.0,0.0,0.0,0.0,0.0,0.0,1.1815,1.1205,1.1395,0.9794,0.9079,1.0248,0.9658,0.9352,0.0,0.0,0.0,0.0,0.0,0.0,0.0,0.0,0.0,1.2502,0.0,0.0,1.2133,1.1025,0.0,0.0,0.0,0.0,0.0,0.9488,0.9487,0.9501,0.9708,0.9806,0.0,0.0,1.0094,1.0075,0.0,0.0,0.0,0.0,0.7472,0.8199,1.122,1.3388,1.6199,2.4026,2.8088,3.0253,3.1667,3.3775,3.5829,3.6731,3.8577,3.9665,3.7302,3.5168,3.2077,2.6013,2.27,1.9909,1.6305,1.4742,1.4339,1.5318,1.445,1.4993,1.9281,1.9123,1.9804,2.3688,2.5704,2.8131,3.1781,3.29,3.4423,3.7099,3.6405,3.6194,3.7162,3.6749,3.6348,3.6132,3.5742,3.5416,3.5219,3.5131,3.5176,3.5354,3.4582,3.4126,3.3966,3.2826,3.1748,3.0761,3.0048,2.927,2.8437,2.8279,2.7263,2.5757,2.5721,2.4146,2.1844,2.2822,2.2405,2.1368,2.1902,2.1596,2.0858,0.0,0.0,0.0,0.0,0.0,0.0,0.0,1.1334,1.0598,1.1393,0.9298,0.863,1.1028,1.1139,1.0733,0.0,0.0,0.0,0.0,0.0,0.0,0.0,0.0,0.0,0.0,0.0,0.0,1.1929,1.0258,0.0,0.0,0.0,0.0,0.0,0.0,0.9455,0.9423,0.9678,0.0,0.0,0.0,0.0,0.0,0.0,0.0,0.0,0.0,0.6511,0.5952,1.0694,1.2025,1.2639,1.7945,2.1825,2.5111,2.8449,3.0746,3.2987,3.6853,3.8635,3.8962,3.7153,3.4293,3.0953,2.7218,2.2574,1.8731,1.7586,1.5996,1.5286,1.6897,1.7154,1.7523,1.8737,1.7704,1.7676,2.0389,2.288,2.6121,3.0773,3.3435,3.5761,3.7996,3.7505,3.7192,3.7619,3.6993,3.6665,3.6893,3.6623,3.611,3.5313,3.4704,3.4736,3.5475,3.3106,3.2247,3.2939,3.0902,2.9734,2.9377,2.9318,2.8526,2.7219,2.6547,2.5045,2.3041,2.2928,2.1736,2.0023,2.092,2.0595,1.9657,2.0017,1.99,1.9567,0.0,0.0,0.0,0.0,0.0,0.0,1.1305,1.1072,1.0728,1.0033,0.8573,0.8191,0.9721,1.0293,1.0603,1.0678,0.0,0.0,0.0,0.0,0.0,0.0,0.0,0.0,0.0,0.0,1.0475,1.1067,0.9798,0.0,0.0,0.0,0.0,0.0,0.0,0.8242,0.7851,0.8071,0.0,0.0,0.0,0.0,0.0,0.0,0.0,0.0,0.0,0.0,0.5268,0.7289,0.8469,0.942,1.1409,1.3994,1.7189,2.171,2.6449,3.0505,3.1626,3.5243,3.8139,3.5783,3.3062,2.9671,2.4667,2.0738,1.7476,1.5138,1.3637,1.3076,1.4239,1.4482,1.5133,1.6996,1.6854,1.7937,2.2004,2.3332,2.6066,3.1996,3.3506,3.5013,3.736,3.6437,3.5647,3.5546,3.4246,3.3754,3.444,3.4943,3.4684,3.3536,3.2963,3.2439,3.1945,3.0915,3.056,3.0862,2.9521,2.8155,2.6869,2.6326,2.5152,2.3496,2.3653,2.2323,2.0108,2.1037,1.962,1.7096,1.8577,1.8454,1.7551,1.8648,1.8631,1.8061,0.0,0.0,0.0,0.0,0.0,1.2304,1.1121,1.1036,1.0773,0.98,0.8455,0.8026,0.9169,0.956,1.0029,1.074,1.0445,0.0,0.0,0.0,0.0,0.0,0.0,0.0,0.0,0.0,0.9908,1.0095,0.943,0.9117,0.0,0.0,0.8371,0.7857,0.0,0.0,0.0,0.0,0.0,0.0,0.0,0.0,0.0,0.0,0.0,0.0,0.0,0.0,0.0,0.0,0.0,0.6986,0.7742,0.9031,1.1269,1.638,2.2227,2.7103,2.7458,3.1869,3.5887,3.3658,3.0852,2.7328,2.2282,1.8789,1.584,1.3248,1.2142,1.192,1.2737,1.2869,1.3723,1.6278,1.6783,1.8294,2.2406,2.3235,2.5463,3.0952,3.1912,3.3317,3.6374,3.613,3.5405,3.4487,3.3053,3.2084,3.1871,3.2046,3.1961,3.1508,3.1168,3.0549,2.961,2.8987,2.8513,2.8274,2.7057,2.5448,2.3585,2.327,2.2076,2.0238,2.069,1.9429,1.7205,1.8369,1.7135,1.4636,1.6291,1.6416,1.5799,1.6969,1.6956,1.6484,0.0,0.0,0.0,0.0,0.0,0.0,1.2672,1.1262,1.0514,1.1354,0.9215,0.827,1.0002,0.9421,0.9183,0.9848,1.069,0.0,0.0,0.0,0.0,0.0,0.0,0.0,0.0,0.0,0.899,0.9122,0.9108,0.9169,0.9271,0.8479,0.8077,0.7962,0.0,0.0,0.0,0.0,0.0,0.0,0.0,0.0,0.0,0.0,0.0,0.0,0.0,0.0,0.0,0.0,0.0,0.0,0.0,0.8312,0.8647,1.374,1.83,2.2414,2.581,2.9284,3.1733,3.0784,2.738,2.3583,2.0913,1.702,1.371,1.2862,1.2589,1.2747,1.3624,1.38,1.4619,1.7174,1.7646,1.8316,2.008,2.1771,2.3765,2.6369,2.8134,3.0842,3.5189,3.7281,3.7483,3.5343,3.4497,3.2765,2.9812,2.8077,2.7956,2.9577,2.9628,2.96,2.9585,2.7469,2.6014,2.5126,2.3009,2.1119,1.9598,2.0461,1.9823,1.8137,1.7847,1.6431,1.4356,1.4493,1.3915,1.3055,1.4258,1.4744,1.4744,1.4744,1.4742,1.4799,0.0,0.0,0.0,0.0,0.0,0.0,0.0,1.1392,1.077,0.9848,0.9006,0.8697,0.9245,0.9064,0.9159,0.9848,1.0144,0.0,0.0,0.0,0.0,0.0,0.0,0.0,0.0,0.903,0.9054,0.9097,0.9105,0.9169,0.9278,0.8486,0.783,0.7281,0.6502,0.6237,0.0,0.0,0.0,0.0,0.0,0.0,0.8681,0.0,0.0,0.0,0.0,0.0,0.0,0.0,0.0,0.0,0.0,0.0,0.0,1.024,1.397,1.7718,1.9305,2.2337,2.4957,2.453,2.2597,2.0098,1.7426,1.4878,1.2665,1.1223,1.0883,1.0923,1.116,1.2214,1.3679,1.5587,1.6903,1.8716,2.159,2.3017,2.5571,3.0462,3.4467,3.7152,3.7971,3.5696,3.4142,3.4032,2.9156,2.6265,2.6525,2.2122,2.1736,2.639,2.5394,2.44,2.3453,2.2807,2.2309,2.2004,2.0996,1.9465,1.7564,1.7592,1.6504,1.4583,1.4811,1.439,1.348,1.4198,1.3909,1.3049,1.3772,1.3841,1.3536,1.3936,1.4095,1.4161,0.0,0.0,0.0,0.0,0.0,0.0,0.0,1.156,1.0709,0.9935,0.9299,0.8902,0.89,0.918,0.9374,0.9408,0.9704,0.0,0.0,0.0,0.0,0.0,0.0,0.0,0.9169,0.9178,0.9028,0.8712,0.8768,0.8682,0.8445,0.7721,0.7129,0.6633,0.6197,0.607,0.0,0.0,0.0,0.0,0.0,0.0,0.9147,0.0,0.0,0.0,0.0,0.0,0.0,0.0,0.0,0.0,0.0,0.0,0.0,0.0,1.0344,1.2946,1.5038,1.7967,2.0391,2.0234,1.8726,1.6828,1.5095,1.316,1.1401,1.0314,1.061,1.0965,1.0591,1.2231,1.3859,1.4536,1.6926,1.9207,2.0704,2.2235,2.4971,2.9713,3.3971,3.6582,3.6738,3.4176,3.2038,3.0901,2.5711,2.233,2.1722,1.6766,1.5641,1.9396,1.9946,2.0279,2.059,2.059,2.0246,1.9553,1.9147,1.7625,1.5235,1.5162,1.4155,1.2419,1.2318,1.2031,0.0,1.1866,1.1856,1.1808,1.2424,1.2608,1.255,1.2929,1.2881,1.2745,0.0,0.0,0.0,0.0,0.0,0.0,0.0,1.17,1.0397,1.1196,0.9956,0.8979,0.8979,0.9652,0.9727,0.8773,0.9441,0.0,0.0,0.0,0.0,0.0,0.0,0.0,0.9321,0.9265,0.8874,0.8122,0.818,0.7849,0.7116,0.6491,0.6174,0.6113,0.6184,0.6241,0.0,0.0,0.0,0.0,0.0,0.0,0.0,0.0,0.0,0.0,0.0,0.0,0.0,0.0,0.0,0.0,0.0,0.0,0.0,0.0,0.0,0.0,0.0,1.5547,1.7363,1.7344,1.5578,1.3791,1.3652,1.1799,0.0,1.0252,1.1578,1.2463,1.1721,1.3605,1.5022,1.4217,1.7535,1.9688,1.8184,2.0391,2.304,2.5413,2.8537,3.1011,3.2389,3.2322,3.0504,2.6359,2.3462,2.004,1.592,1.1964,0.998,1.0224,1.3515,1.6788,1.9933,1.9976,1.9186,1.7581,1.7278,1.5595,1.272,1.3252,1.2728,1.1447,1.0236,0.9697,0.9568,0.8189,0.8429,0.9721,1.045,1.1111,1.1674,1.1719,1.1314,1.0885,0.0,0.0,0.0,0.0,0.0,0.0,0.0,0.0,0.0,0.0,1.0056,0.9825,0.9825,0.9979,0.9993,0.0,0.0,0.0,0.0,0.0,0.0,0.0,0.0,0.0,0.9529,0.8877,0.8476,0.8327,0.7744,0.7419,0.7308,0.6547,0.6219,0.623,0.5582,0.6064,0.0,0.0,0.0,0.0,0.0,0.0,0.0,0.0,0.0,0.0,0.5254,0.5097,0.0,0.0,0.0,0.0,0.0,0.0,0.0,0.0,0.7678,0.8201,1.0482,0.0,1.127,1.1855,1.1566,1.1084,0.0,1.0529,1.0472,1.1818,1.2409,1.2819,1.3239,1.4882,1.6129,1.5923,1.7806,1.94,1.9678,2.4291,2.7409,2.675,3.1092,3.3268,3.1001,2.6995,2.4076,2.3013,1.6883,1.2778,1.171,0.794,0.6942,0.9232,0.7923,0.9433,1.4018,1.413,1.4347,1.4731,1.4811,1.3827,1.1834,1.2106,1.1345,0.9735,0.9169,0.882,0.8579,0.7901,0.8138,0.8992,0.968,1.0043,1.027,1.0845,1.0949,1.0821,0.0,0.0,0.0,0.0,0.0,0.0,0.0,0.0,0.0,0.0,1.0094,1.0094,1.0094,1.0094,0.0,0.0,0.0,0.0,0.0,0.0,0.0,0.0,0.0,0.9547,0.9138,0.871,0.8125,0.7395,0.6991,0.6625,0.6284,0.5886,0.5721,0.5741,0.5682,0.6195,0.0,0.0,0.0,0.0,0.7207,0.0,0.0,0.0,0.0,0.0,0.5703,0.543,0.0,0.5566,0.5429,0.5167,0.0,0.0,0.0,0.0,0.7395,0.7896,0.881,0.9304,0.9843,1.1054,1.0778,1.0391,1.1127,1.0668,1.0529,1.2092,1.2498,1.2674,1.3017,1.4571,1.5834,1.5888,1.7343,1.9046,2.0747,2.4436,2.6875,2.6582,2.8437,2.866,2.5896,2.2346,1.919,1.6764,1.1608,0.8356,0.7634,0.4339,0.3153,0.4826,0.3264,0.5477,1.179,1.1854,1.2276,1.3164,1.33,1.2359,1.0508,1.0518,0.9768,0.8491,0.7581,0.7187,0.7191,0.6325,0.663,0.7818,0.8463,0.895,0.9336,1.0045,1.0151,0.9895,0.0,0.0,0.0,0.0,0.0,0.0,0.0,0.0,0.0,0.0,0.0,0.0,0.0,0.0,0.0,0.0,0.0,0.0,0.0,0.0,0.0,0.0,0.9418,0.9118,0.8451,0.8363,0.763,0.6223,0.615,0.5737,0.5021,0.5077,0.5096,0.5135,0.5879,0.627,0.6387,0.6249,0.6249,0.6289,0.6208,0.0,0.0,0.0,0.0,0.0,0.0,0.0,0.0,0.6365,0.6034,0.5508,0.634,0.0,0.0,0.0,0.0,0.0,0.8052,0.9214,1.0766,1.2303,1.1539,1.0788,1.2343,1.1343,1.0552,1.2154,1.2624,1.2713,1.2665,1.4429,1.5785,1.5426,1.6997,1.9169,2.1842,2.3354,2.4453,2.5117,2.3724,2.1798,1.941,1.7461,1.4471,0.9969,0.7081,0.5059,0.3864,0.1396,0.0,0.0,0.0145,0.3489,1.0315,1.0463,1.0883,1.1668,1.1761,1.0799,0.896,0.8809,0.8287,0.7399,0.6133,0.5664,0.5698,0.4524,0.4974,0.6368,0.7136,0.7835,0.8508,0.9348,0.9288,0.8811,0.0,0.0,0.0,0.0,0.0,0.0,0.0,0.0,0.0,0.0,0.0,0.0,0.0,0.0,0.0,0.0,0.0,0.0,0.0,0.0,0.0,0.7782,0.7708,0.7671,0.768,0.6957,0.6517,0.6364,0.5638,0.5213,0.5079,0.5087,0.51,0.5103,0.5249,0.5703,0.6348,0.5619,0.5684,0.623,0.5514,0.0,0.0,0.0,0.0,0.0,0.0,0.0,0.0,0.7541,0.7028,0.6654,0.7305,0.0,0.0,0.0,0.0,0.0,0.9639,1.051,1.1451,1.2448,1.1954,1.1477,1.2472,1.1343,1.0888,1.3652,1.4239,1.4444,1.5037,1.7809,1.9157,1.6553,1.845,2.1153,2.371,2.466,2.4219,2.1797,2.1188,1.929,1.4972,1.0369,0.7375,0.6577,0.3071,0.0943,0.0707,0.0218,0.0,0.0,0.0716,0.2335,0.4964,0.5336,0.6406,0.8231,0.8761,0.8382,0.7302,0.7709,0.7333,0.6426,0.6081,0.5551,0.4857,0.458,0.4574,0.4974,0.6248,0.683,0.7109,0.8448,0.8871,0.8871,0.0,0.0,0.0,0.0,0.0,0.0,0.0,0.0,0.0,0.0,0.0,0.0,0.0,0.0,0.0,0.0,0.0,0.0,0.0,0.0,0.781,0.7463,0.6557,0.6316,0.689,0.6506,0.6109,0.5703,0.5264,0.5039,0.5037,0.5037,0.5057,0.5099,0.51,0.5329,0.568,0.5273,0.5299,0.5558,0.0,0.0,0.0,0.0,0.0,0.0,0.0,0.0,0.0,0.0,0.7568,0.6799,0.8024,0.0,0.0,0.0,0.0,0.0,0.9401,1.0421,1.1834,1.3613,1.3067,1.2809,1.5487,1.371,1.2487,1.5932,1.4544,1.3198,1.4758,1.6511,1.8017,1.8907,2.2177,2.4413,2.3923,2.3526,2.2076,1.878,1.7445,1.4571,0.8981,0.6825,0.4933,0.2823,0.0973,0.0,0.0,0.0,0.0,0.0,0.0397,0.1171,0.2411,0.2643,0.4247,0.7279,0.7727,0.7355,0.6288,0.6641,0.6265,0.5354,0.5054,0.4794,0.4594,0.4305,0.4333,0.4577,0.561,0.6023,0.6202,0.7688,0.8455,0.8864,0.0,0.0,0.0,0.0,0.0,0.0,0.0,0.0,0.0,0.0,0.0,0.0,0.0,0.0,0.0,0.0,0.0,0.0,0.0,0.8321,0.7403,0.7223,0.5792,0.5342,0.6072,0.609,0.5776,0.5093,0.4774,0.4734,0.4996,0.5006,0.5018,0.5078,0.5078,0.5078,0.5078,0.5097,0.5057,0.5008,0.0,0.0,0.0,0.0,0.0,0.0,0.0,0.0,0.0,0.0,0.0,0.0,0.0,0.0,0.0,0.8555,0.8961,0.8957,0.915,1.0285,1.1909,1.4071,1.3491,1.3565,1.7985,1.5565,1.3609,1.7849,1.5417,1.3124,1.5052,1.5489,1.701,2.1439,2.4414,2.5659,2.4163,2.1894,1.9317,1.6519,1.352,0.9679,0.4523,0.427,0.3221,0.0227,0.0,0.0,0.0,0.0,0.0,0.0,0.0184,0.0608,0.1232,0.1663,0.3378,0.6358,0.6547,0.6239,0.5546,0.5653,0.5289,0.4619,0.4273,0.4253,0.4481,0.4228,0.426,0.4574,0.5262,0.5701,0.6149,0.7301,0.8159,0.8752,0.0,0.0,0.0,0.0,0.0,0.0,0.0,0.0,0.0,0.0,0.0,0.0,0.0,0.0,0.0,0.0,0.0,0.0,0.0,0.7953,0.7106,0.6412,0.5505,0.5053,0.5189,0.5192,0.5154,0.5108,0.3967,0.3973,0.5005,0.5003,0.4997,0.4997,0.4997,0.4997,0.5018,0.5078,0.5057,0.5008,0.4999,0.0,0.0,0.0,0.0,0.0,0.0,0.0,0.0,0.0,0.0,0.0,0.0,0.0,0.7793,0.873,0.9004,0.9153,0.9913,1.0734,1.1636,1.2633,1.2173,1.281,1.785,1.511,1.3056,1.857,1.8141,1.7035,1.7964,1.7625,1.8787,2.3592,2.2486,2.2151,2.5427,2.0575,1.6392,1.5625,1.0135,0.5702,0.4041,0.1763,0.027,0.0,0.0,0.0,0.0,0.0,0.0,0.0,0.0782,0.1187,0.1132,0.2636,0.3648,0.4027,0.4065,0.4288,0.4807,0.4803,0.467,0.4532,0.4498,0.4498,0.4515,0.447,0.4477,0.4574,0.5262,0.6358,0.7565,0.7652,0.8159,0.8692,0.0,0.0,0.0,0.0,0.0,0.0,0.0,0.0,0.0,0.0,0.0,0.0,0.0,0.0,0.0,0.0,0.0,0.0,0.0,0.8295,0.7391,0.7123,0.5797,0.5061,0.5043,0.5086,0.5098,0.5105,0.4519,0.4477,0.4937,0.4933,0.4966,0.5006,0.5006,0.5003,0.4997,0.5018,0.5018,0.4995,0.5008,0.4944,0.0,0.0,0.0,0.0,0.0,0.0,0.0,0.0,0.9042,0.8409,0.9723,0.9016,0.8086,1.0039,1.0195,0.9804,1.0122,1.0792,1.1871,1.3829,1.2849,1.29,1.8581,1.7152,1.5969,2.0747,1.9118,1.6934,1.7282,1.9013,2.1022,2.2979,2.3447,2.3345,2.2769,1.8709,1.4611,1.1475,0.7263,0.3794,0.1687,0.0568,0.0,0.0,0.0,0.0,0.0,0.0,0.0,0.0,0.0345,0.0449,0.0393,0.1034,0.1613,0.2156,0.3566,0.4374,0.4548,0.4548,0.4573,0.4519,0.4519,0.4519,0.4519,0.4519,0.4519,0.4519,0.4802,0.5491,0.6344,0.6328,0.6823,0.7401,0.0,0.0,0.0,0.0,0.0,0.0,0.0,0.0,0.0,0.0,0.0,0.0,0.0,0.0,0.0,0.0,0.0,0.0,1.0133,0.8804,0.7899,0.7652,0.624,0.5335,0.5,0.5039,0.4883,0.4531,0.4711,0.4811,0.4834,0.4852,0.5018,0.5308,0.5081,0.5096,0.5323,0.532,0.5176,0.4959,0.5176,0.5206,0.0,0.0,0.0,0.0,0.0,0.0,0.0,0.0,0.879,0.83,0.9563,0.8927,0.8108,1.0151,1.0289,0.9859,1.0135,1.0605,1.1639,1.4214,1.3103,1.3057,1.9354,1.8387,1.7529,2.232,2.101,1.8965,1.8884,1.9955,2.1088,2.1814,2.1911,2.131,1.9672,1.5507,1.1428,0.8061,0.4686,0.1997,0.0192,0.0,0.0,0.0,0.0,0.0,0.0,0.0,0.0,0.0,0.0,0.0,0.0,0.0224,0.0615,0.111,0.2899,0.3907,0.4122,0.4405,0.4519,0.4519,0.4519,0.4519,0.4519,0.4519,0.4519,0.4519,0.4519,0.4919,0.5483,0.5483,0.5954,0.6577,0.0,0.0,0.0,0.0,0.0,0.0,0.0,0.0,0.0,0.0,0.0,0.0,0.0,0.0,0.0,0.0,0.0,0.0,1.0194,0.9383,0.8548,0.773,0.6809,0.589,0.5022,0.5,0.445,0.332,0.4305,0.4767,0.4704,0.4771,0.5226,0.5966,0.5245,0.5326,0.5996,0.602,0.5548,0.4853,0.5529,0.5807,0.5807,0.0,0.0,0.0,0.0,0.0,0.0,0.0,0.82,0.863,0.6967,0.7038,0.789,0.8702,0.8937,0.91,0.9977,1.0215,1.0821,1.3283,1.2656,1.3214,2.0,1.8277,1.6922,2.2946,2.4186,2.4066,2.3665,2.0482,1.8539,2.036,1.7088,1.4889,1.6587,1.0887,0.639,0.6108,0.2496,0.0,0.0,0.0,0.0,0.0,0.0,0.0,0.0,0.0,0.0,0.0,0.0,0.0,0.0,0.0729,0.1066,0.1122,0.1853,0.2573,0.3329,0.4119,0.4463,0.4463,0.4463,0.4519,0.4519,0.4519,0.4519,0.4519,0.4519,0.4916,0.5495,0.5495,0.5958,0.6483,0.0,0.0,0.0,0.0,0.0,0.0,0.0,0.0,0.0,0.0,0.0,0.0,0.0,0.0,0.0,0.0,0.0,0.0,1.0194,0.938,0.8528,0.7675,0.6831,0.5933,0.5018,0.4858,0.4642,0.435,0.4559,0.47,0.4771,0.4789,0.5226,0.6014,0.6412,0.6404,0.6142,0.7284,0.6652,0.4928,0.5698,0.5887,0.5848,0.0,0.0,0.0,0.0,0.0,0.0,0.0,0.0,0.0,0.9877,0.956,0.9729,1.1868,1.1211,1.0122,1.1567,1.1956,1.226,1.3572,1.4341,1.5338,1.7455,1.747,1.8236,2.2481,2.3317,2.3135,2.2581,2.1548,2.0307,1.8821,1.6545,1.4268,1.2213,0.8627,0.5592,0.387,0.1487,0.0,0.0,-0.0449,-0.0561,-0.0056,-0.0505,-0.0561,0.0,0.0,0.0,0.0,0.0,0.0,0.0,0.0224,0.0336,0.0336,0.1066,0.1788,0.2548,0.2771,0.3219,0.3724,0.3669,0.395,0.4519,0.4519,0.4519,0.4519,0.4519,0.4632,0.4802,0.4802,0.4919,0.5089,0.0,0.0,0.0,0.0,0.0,0.0,0.0,0.0,0.0,0.0,0.0,0.0,0.0,0.0,0.0,0.0,0.0,0.0,0.0,0.939,0.8531,0.7685,0.6816,0.5909,0.4941,0.5217,0.5401,0.5443,0.4905,0.4679,0.4767,0.4789,0.5226,0.601,0.621,0.6206,0.6088,0.7059,0.6425,0.4857,0.5627,0.5835,0.5876,0.0,0.0,0.0,0.0,0.0,0.0,0.0,0.0,0.0,1.0909,1.096,1.1235,1.2425,1.2017,1.1415,1.2423,1.2921,1.3681,1.5802,1.6269,1.6407,1.7074,1.8152,1.9926,2.3198,2.3543,2.3088,2.2502,2.1308,1.9621,1.7157,1.4753,1.2181,0.9273,0.6482,0.413,0.2637,0.101,0.0,0.0,-0.0393,-0.0504,-0.0056,-0.0392,-0.0449,0.0,0.0,0.0,0.0,0.0,0.0,0.0,0.0,0.0,0.0,0.0449,0.0895,0.1334,0.1947,0.2452,0.2956,0.3169,0.3611,0.4064,0.4405,0.4519,0.4519,0.4519,0.4519,0.4519,0.4519,0.4519,0.4519,0.0,0.0,0.0,0.0,0.0,0.0,0.0,0.0,0.0,0.0,1.0234,0.0,0.0,0.0,0.0,0.0,0.0,0.0,0.0,0.939,0.8551,0.7743,0.6717,0.5758,0.4838,0.5902,0.6469,0.6478,0.5388,0.4834,0.4811,0.4789,0.5226,0.5969,0.5304,0.5338,0.5914,0.6126,0.5638,0.4765,0.5575,0.5934,0.612,0.7625,0.0,0.0,0.0,0.0,0.0,0.0,0.0,0.0,1.0691,1.1497,1.2376,1.1422,1.1925,1.2805,1.2892,1.3434,1.4876,1.8582,1.7926,1.6831,1.8573,1.9896,2.1578,2.4447,2.4266,2.3451,2.3029,2.0206,1.7315,1.5483,1.2193,0.921,0.7317,0.4429,0.2419,0.2023,0.0842,0.0,-0.0112,-0.0168,-0.0168,-0.0111,-0.0167,-0.0168,0.0,-0.0056,-0.0112,-0.0112,-0.0112,-0.0112,-0.0112,-0.0056,0.0,0.0,0.0,0.0,0.0055,0.1396,0.2023,0.2135,0.2899,0.3222,0.3332,0.4009,0.4291,0.4291,0.4291,0.4346,0.4405,0.4405,0.446,0.4519,0.0,0.0,0.0,0.0,0.0,0.0,0.0,0.0,0.0,0.0,0.0,0.0,0.0,0.0,0.0,0.0,0.0,0.0,0.0,0.939,0.8551,0.7743,0.6145,0.516,0.4878,0.6289,0.7059,0.7098,0.6379,0.5902,0.5636,0.5018,0.5145,0.594,0.6399,0.635,0.6016,0.7871,0.7408,0.5576,0.6948,0.7674,0.8013,0.9151,0.9821,0.0,0.0,0.0,0.0,0.0,0.0,0.0,1.1599,1.2089,1.3098,1.2993,1.3195,1.3627,1.4321,1.4552,1.4778,1.5579,1.6345,1.7929,2.1718,2.1449,2.108,2.3463,2.2898,2.2091,2.2461,1.9687,1.6557,1.4095,1.0998,0.7807,0.4639,0.3081,0.1853,0.0617,0.0168,-0.0224,-0.0785,-0.1403,-0.1514,-0.0895,-0.1401,-0.1234,-0.0056,-0.0561,-0.0842,-0.0842,-0.0842,-0.0842,-0.0842,-0.028,0.0,0.0,0.0,0.0,0.0,0.032,0.0785,0.1403,0.213,0.2454,0.2493,0.2603,0.2715,0.2715,0.2715,0.3051,0.3555,0.3613,0.4006,0.4519,0.0,0.0,0.0,0.0,0.0,0.0,0.0,0.0,0.0,0.0,0.0,0.0,0.0,0.0,0.0,0.0,0.0,0.0,0.0,0.0,0.836,0.7132,0.5739,0.4981,0.4959,0.6452,0.7231,0.7197,0.7267,0.7214,0.7038,0.6168,0.5978,0.6394,0.6808,0.6971,0.699,0.8211,0.8186,0.739,0.817,0.8571,0.8859,1.0081,1.0608,1.0957,1.2597,0.0,0.0,0.0,0.0,0.0,0.0,0.0,1.4061,1.2844,1.2954,1.3478,1.3572,1.4352,1.5371,1.6404,1.7812,1.9413,2.1115,2.0845,2.0551,2.1671,2.1343,2.0749,2.0277,1.7733,1.474,1.1907,0.8678,0.5686,0.3151,0.1853,0.0842,0.0112,-0.0336,-0.0673,-0.1066,-0.1789,-0.2063,-0.1672,-0.1961,-0.1853,-0.1122,-0.1403,-0.1624,-0.1616,-0.1616,-0.162,-0.1628,-0.1234,-0.1066,-0.1065,-0.0682,-0.0341,0.0,0.0,0.0224,0.0617,0.1347,0.168,0.1726,0.2062,0.2174,0.2174,0.2174,0.2679,0.3299,0.3392,0.3892,0.4519,0.0,0.0,0.0,0.0,0.0,0.0,0.0,0.0,0.0,0.0,0.0,0.0,0.0,0.0,0.0,0.0,0.0,0.0,0.0,0.0,0.0,0.6657,0.5976,0.5629,0.5618,0.7118,0.7837,0.7726,0.8343,0.8777,0.9009,0.7806,0.7265,0.7241,0.7241,0.7436,0.7784,0.8041,0.8505,0.9083,0.9281,0.9423,0.9633,1.0841,1.132,1.1527,1.2856,1.3183,1.303,1.3194,0.0,0.0,0.0,0.0,1.4572,1.2271,1.2406,1.3145,1.2428,1.3805,1.5977,1.8275,1.9586,2.0141,1.9454,1.9579,1.9797,1.9654,1.9634,1.9153,1.7531,1.5257,1.2618,0.9547,0.6375,0.3738,0.2245,0.0842,0.0,0.0,-0.0673,-0.1177,-0.1287,-0.1946,-0.238,-0.238,-0.2345,-0.23,-0.2186,-0.2242,-0.2347,-0.238,-0.238,-0.2391,-0.2411,-0.2242,-0.2186,-0.2184,-0.1445,-0.0786,-0.0136,-0.0051,0.0,0.0056,0.0673,0.0898,0.0954,0.1572,0.1797,0.1797,0.1797,0.2249,0.2925,0.3005,0.3555,0.4291,0.0,0.0,0.0,0.0,0.0,0.0,0.0,0.0,0.0,0.0,1.0215,1.0215,0.0,0.0,0.0,0.0,0.0,0.0,1.0195,0.0,0.0,0.7403,0.7849,0.8124,0.8127,0.9517,1.0242,1.0215,1.0082,1.0702,1.1895,0.9725,0.8682,0.8637,0.8637,0.7979,0.696,0.8231,0.8831,0.9032,1.0303,1.1099,1.1558,1.1972,1.2254,1.2473,1.2906,1.3039,1.2985,1.2772,1.2867,0.0,0.0,0.0,1.3278,1.2615,1.3063,1.3587,1.2964,1.3945,1.5712,1.8061,1.8139,1.8046,1.9695,1.9187,1.8332,1.8112,1.7788,1.6995,1.5278,1.333,1.0906,0.7467,0.5454,0.3569,0.1513,0.0505,0.0,0.0,-0.0673,-0.1342,-0.1997,-0.2773,-0.3219,-0.3161,-0.3053,-0.272,-0.205,-0.2496,-0.2888,-0.2994,-0.2994,-0.3053,-0.3169,-0.2496,-0.2218,-0.2218,-0.1427,-0.0974,-0.0765,-0.023,0.0,0.0,0.0112,0.0168,0.0168,0.028,0.028,0.028,0.028,0.0729,0.1401,0.1386,0.2325,0.3555,0.0,0.0,0.0,0.0,0.0,0.0,0.0,0.0,0.0,0.0,0.0,1.0932,0.0,0.0,0.0,1.1596,1.1596,1.1382,1.0892,1.0083,0.9421,0.897,0.8736,0.8784,0.9155,1.0125,1.0357,0.9759,1.049,1.1602,1.2982,1.2181,1.1192,1.0169,1.1029,1.0361,0.8667,1.0603,1.118,1.0907,1.1959,1.2215,1.202,1.267,1.2891,1.2958,1.3616,1.3735,1.3633,1.3652,1.3377,1.3041,1.3177,0.0,0.0,0.0,1.2455,1.2774,1.2872,1.2824,1.3402,1.618,1.6038,1.5791,1.7832,1.7239,1.641,1.6897,1.5776,1.4557,1.4087,1.1777,0.9193,0.6898,0.4598,0.2631,0.1289,0.0449,-0.0168,-0.0561,-0.129,-0.2014,-0.2717,-0.3555,-0.3837,-0.3387,-0.3555,-0.3385,-0.2674,-0.3213,-0.3563,-0.3615,-0.3582,-0.3613,-0.3669,-0.3387,-0.2994,-0.2601,-0.2265,-0.1872,-0.1395,-0.1215,-0.0687,0.0,0.0,0.0,0.0,0.0,0.0,0.0,0.0,0.0449,0.1122,0.1116,0.2065,0.3299,0.0,0.0,0.0,0.0,0.0,0.0,0.0,0.0,0.0,0.0,0.0,0.0,0.0,0.0,0.0,0.0,1.2689,1.2415,1.1718,1.1111,1.0749,1.0668,1.0127,1.003,1.0476,1.0932,1.0638,0.961,1.0488,1.1547,1.2779,1.3368,1.2863,1.1523,1.2676,1.2284,1.0832,1.229,1.279,1.2614,1.3025,1.2857,1.2404,1.2873,1.3092,1.3278,1.3969,1.4101,1.3932,1.4076,1.3619,1.3034,1.3238,1.3202,0.0,0.0,0.0,1.1792,1.2327,1.1687,1.1468,1.4042,1.3837,1.3501,1.5342,1.4897,1.433,1.5133,1.3689,1.2288,1.2339,0.9997,0.7534,0.5931,0.3588,0.1685,0.0898,0.0336,-0.028,-0.101,-0.1568,-0.2233,-0.2941,-0.3724,-0.4006,-0.3442,-0.3846,-0.3893,-0.3337,-0.367,-0.3902,-0.3947,-0.3956,-0.3967,-0.402,-0.402,-0.3699,-0.3106,-0.2973,-0.2593,-0.2022,-0.1975,-0.1418,-0.0503,-0.0336,-0.028,-0.028,-0.0056,0.0,0.0,0.0,0.0336,0.0842,0.0842,0.1629,0.2641,0.0,0.0,0.0,0.0,0.0,0.0,0.0,0.0,0.0,0.0,0.0,0.0,1.2643,1.2664,1.2697,1.2697,1.2697,1.2634,1.2456,1.2396,1.2313,1.2193,1.2814,0.0,1.2918,1.2779,1.2224,1.127,1.0344,1.0271,1.1058,1.2149,1.2633,1.2539,1.2623,1.2678,1.2695,1.1935,1.2282,1.3295,1.2819,1.2915,1.3244,1.2387,1.2621,1.3378,1.3436,1.3439,1.3392,1.315,1.3042,1.3008,1.3008,1.2673,1.2356,0.0,0.0,0.0,1.1322,1.1094,1.1069,1.2108,1.1605,1.1208,1.2594,1.2522,1.2176,1.2216,1.1456,1.045,0.9169,0.7676,0.5926,0.3819,0.2178,0.0898,0.0168,0.0,-0.028,-0.101,-0.1113,-0.1437,-0.2213,-0.2994,-0.3387,-0.3329,-0.3761,-0.398,-0.3935,-0.3762,-0.367,-0.3806,-0.3794,-0.3857,-0.3995,-0.3995,-0.3905,-0.3764,-0.3182,-0.281,-0.263,-0.2047,-0.1841,-0.1882,-0.1285,-0.1066,-0.101,-0.028,0.0,0.0,0.0,0.0,0.0056,0.0056,0.0561,0.1232,0.0,0.0,0.0,0.0,0.0,0.0,0.0,0.0,0.0,0.0,0.0,0.0,0.0,1.3977,1.4295,1.4295,1.4238,1.3938,1.3365,1.3244,1.3178,1.314,1.3179,1.3368,1.373,1.3454,1.2874,1.1975,1.189,1.1779,1.162,1.2108,1.2372,1.2492,1.4424,1.382,1.1418,1.3372,1.2929,1.1106,1.3535,1.325,1.1513,1.3091,1.3803,1.3936,1.3674,1.3951,1.4282,1.3311,1.2456,1.1843,1.219,1.2157,1.2071,1.2387,1.1514,1.0642,1.1616,1.0648,0.9814,1.1621,1.0932,1.0221,1.1769,1.1487,1.0948,1.1057,1.0216,0.8899,0.709,0.5869,0.4754,0.3524,0.2074,0.0842,0.0112,-0.0393,-0.0785,-0.1066,-0.1502,-0.1886,-0.2178,-0.2912,-0.313,-0.2605,-0.3287,-0.3632,-0.3289,-0.3306,-0.3398,-0.367,-0.367,-0.3714,-0.3762,-0.3762,-0.3718,-0.367,-0.3442,-0.3306,-0.3262,-0.3126,-0.3178,-0.3271,-0.2626,-0.2179,-0.173,-0.1029,-0.0729,-0.0729,-0.0729,-0.0393,-0.0056,-0.0505,0.0056,0.1009,0.0,0.0,0.0,0.0,0.0,0.0,0.0,0.0,0.0,1.2404,0.0,0.0,0.0,0.0,1.4736,1.4736,1.4876,1.475,1.4194,1.4031,1.3924,1.3803,1.3598,1.3612,1.3922,1.3653,1.3059,1.2157,1.2098,1.1821,1.135,1.1324,1.1448,1.1784,1.3966,1.3716,1.1862,1.4108,1.3713,1.1745,1.3709,1.3471,1.2102,1.3211,1.3819,1.4092,1.4234,1.4395,1.4481,1.4267,1.3467,1.2631,1.2848,1.2573,1.2151,1.2194,1.1394,1.0642,1.1286,1.023,0.9171,1.0117,0.9457,0.8833,0.9849,0.986,0.9624,0.9447,0.8838,0.7685,0.5658,0.4359,0.3413,0.2697,0.1515,0.0561,0.0056,-0.0617,-0.1177,-0.1453,-0.1895,-0.2287,-0.2529,-0.3042,-0.3142,-0.2605,-0.3332,-0.3667,-0.3302,-0.3316,-0.3398,-0.3581,-0.3581,-0.3581,-0.3581,-0.3581,-0.3581,-0.3581,-0.3581,-0.3581,-0.3626,-0.3718,-0.3854,-0.3984,-0.3617,-0.3121,-0.2547,-0.1776,-0.1342,-0.1122,-0.1122,-0.0671,-0.0056,-0.056,-0.0112,0.0673,0.0,0.0,0.0,0.0,0.0,0.0,0.0,0.0,1.072,1.2469,0.0,0.0,0.0,0.0,0.0,1.3767,1.443,1.4863,1.4862,1.4761,1.4554,1.4215,1.4203,1.4007,1.3616,1.3396,1.2841,1.1941,1.0795,1.0215,1.0116,0.9692,0.9846,1.0491,1.0968,1.2301,1.4181,1.392,1.4436,1.527,1.3241,1.3586,1.5064,1.271,1.2561,1.3752,1.5017,1.4685,1.3902,1.5803,1.5979,1.5281,1.4936,1.3762,1.247,1.2204,1.1687,1.1035,0.0,0.0,0.0,0.7564,0.7143,0.7058,0.6753,0.755,0.8096,0.7215,0.7273,0.6856,0.4718,0.3135,0.1911,0.1178,0.0449,0.0,0.0,-0.0673,-0.1398,-0.2104,-0.2233,-0.2531,-0.321,-0.3324,-0.3368,-0.3277,-0.3837,-0.4127,-0.4004,-0.3866,-0.3718,-0.3626,-0.3581,-0.3581,-0.3581,-0.3581,-0.3581,-0.3581,-0.3581,-0.3581,-0.3626,-0.3718,-0.3865,-0.401,-0.4157,-0.3895,-0.3332,-0.2548,-0.1779,-0.1122,-0.1122,-0.0669,0.0,0.0,0.0,0.0,0.0,0.0,0.0,0.0,0.0,0.9034,1.0489,1.0355,1.0736,0.0,0.0,0.0,1.2863,1.2826,1.2793,1.2787,1.3459,1.3899,1.3885,1.4299,1.4506,1.4433,1.4143,1.3929,1.382,1.3329,1.2965,1.2695,1.1744,1.1162,1.088,1.0144,0.9758,0.9745,1.0606,1.1298,1.1928,1.3096,1.2135,1.0169,1.395,1.3718,1.1368,1.3856,1.4074,1.3204,1.463,1.4557,1.3925,1.5036,1.3882,1.1803,1.0994,1.0557,1.0339,1.027,0.9684,0.9194,0.9828,0.0,0.0,0.0,0.0,0.0,0.6706,0.6618,0.6504,0.5743,0.525,0.4561,0.3227,0.212,0.1178,0.0449,0.0112,0.0,0.0,-0.1122,-0.179,-0.1438,-0.2388,-0.2896,-0.2558,-0.3007,-0.3342,-0.3277,-0.3611,-0.3813,-0.3986,-0.3771,-0.3626,-0.3581,-0.3581,-0.3581,-0.3581,-0.3581,-0.3581,-0.3581,-0.3581,-0.3581,-0.3626,-0.3718,-0.3863,-0.401,-0.4165,-0.3892,-0.3274,-0.2493,-0.2106,-0.1833,-0.1286,-0.0672,-0.0056,-0.0616,-0.0449,0.0,0.0,0.0,0.0,0.8306,0.8842,0.9836,1.1165,1.0617,1.0656,0.0,0.0,0.0,1.192,1.1831,1.1793,1.1854,1.2515,1.3083,1.3464,1.3803,1.4112,1.4366,1.4069,1.385,1.3786,1.3278,1.2889,1.2614,1.1975,1.1458,1.1051,1.0143,0.961,0.9495,0.9947,1.0164,1.0271,1.2153,1.2016,1.0746,1.3648,1.3922,1.2824,1.4715,1.4763,1.3988,1.5383,1.5197,1.4516,1.5852,1.4419,1.198,1.1472,1.0543,0.9746,1.014,0.9549,0.8845,0.9337,0.8998,0.8453,0.8219,0.0,0.0,0.5932,0.5823,0.5772,0.4857,0.4422,0.3785,0.2563,0.1677,0.0842,0.0112,-0.028,-0.0336,-0.0056,-0.129,-0.2015,-0.1605,-0.2938,-0.3669,-0.3219,-0.3555,-0.3782,-0.3782,-0.3837,-0.3857,-0.3897,-0.3718,-0.3581,-0.3581,-0.3581,-0.3581,-0.3581,-0.3581,-0.3581,-0.3581,-0.3581,-0.3581,-0.3626,-0.3806,-0.3752,-0.3555,-0.3724,-0.3442,-0.2773,-0.2057,-0.1725,-0.1725,-0.1287,-0.0673,-0.0056,-0.0505,-0.0393,0.0,0.0,0.0,0.9096,0.8919,0.9541,1.0314,1.1046,1.0494,1.0496,0.0,1.1487,1.1018,1.0949,1.0837,1.0811,1.0938,1.1551,1.2333,1.326,1.3266,1.3532,1.4142,1.3972,1.3783,1.3599,1.3143,1.2657,1.2152,1.1695,1.1277,1.0912,0.992,0.9572,0.9766,0.9424,0.9317,0.9482,1.1216,1.2844,1.417,1.2994,1.4137,1.6398,1.5296,1.4877,1.5096,1.6524,1.6082,1.5104,1.6944,1.6036,1.4093,1.3935,1.2067,1.0043,1.0634,1.0067,0.9159,0.8657,0.8388,0.8001,0.6926,0.6485,0.0,0.4795,0.508,0.5303,0.4297,0.4057,0.368,0.2413,0.1479,0.0697,0.0054,-0.066,-0.0842,-0.0168,-0.1403,-0.2296,-0.2272,-0.3611,-0.4519,-0.4519,-0.4519,-0.4519,-0.446,-0.429,-0.4029,-0.3791,-0.367,-0.3581,-0.3581,-0.3581,-0.3581,-0.3581,-0.3581,-0.3581,-0.3581,-0.3534,-0.349,-0.349,-0.367,-0.3408,-0.2826,-0.3053,-0.2775,-0.2052,-0.1398,-0.1122,-0.1066,-0.101,-0.0561,0.0,0.0,0.0,0.0,0.0,0.9268,1.035,0.9049,0.9441,0.9994,1.0156,1.0027,1.004,1.0347,1.0203,1.0056,0.9976,0.995,0.995,0.9968,1.0591,1.1299,1.2081,1.2613,1.3213,1.3924,1.3767,1.3645,1.3599,1.274,1.2355,1.2498,1.1253,1.0847,1.1184,1.0257,1.0186,1.0859,1.0534,1.0668,1.1074,1.0563,1.13,1.2918,1.4207,1.398,1.3134,1.5214,1.4706,1.3258,1.5739,1.5293,1.3644,1.4212,1.4361,1.382,1.1389,1.039,0.9838,0.8227,0.778,0.7762,0.7489,0.7387,0.7211,0.6594,0.6069,0.0,0.4299,0.3844,0.3598,0.3368,0.2562,0.1886,0.1906,0.0785,-0.019,-0.0532,-0.0867,-0.0954,-0.0617,-0.2079,-0.3086,-0.2775,-0.3782,-0.4519,-0.4519,-0.4519,-0.446,-0.4291,-0.4019,-0.3795,-0.3633,-0.3626,-0.3581,-0.3581,-0.3581,-0.3581,-0.3581,-0.3581,-0.3581,-0.3581,-0.3123,-0.2898,-0.2854,-0.2536,-0.2325,-0.2159,-0.2347,-0.2017,-0.1287,-0.1177,-0.1122,-0.1066,-0.0449,-0.0112,0.0,0.0,0.0,0.0,0.8855,0.969,1.0306,0.9491,0.9661,0.9886,0.9848,0.9847,0.9842,0.9805,0.9761,0.9717,0.9617,0.9599,0.9573,0.951,0.9805,1.0323,1.1104,1.1816,1.2707,1.3846,1.3712,1.3791,1.4195,1.3109,1.247,1.2347,1.1603,1.1108,1.0858,1.0762,1.0677,1.0586,1.1264,1.1463,1.1274,1.1171,1.1477,1.2086,1.3035,1.3225,1.3108,1.4635,1.4382,1.3419,1.4545,1.4381,1.3614,1.3326,1.3293,1.3192,1.2283,1.0969,0.9617,0.8675,0.807,0.7656,0.7458,0.6921,0.6383,0.6314,0.5569,0.0,0.0,0.367,0.3326,0.2879,0.2129,0.151,0.1481,0.0426,-0.042,-0.0541,-0.1158,-0.1475,-0.0983,-0.2196,-0.3142,-0.3113,-0.3837,-0.4346,-0.4346,-0.4291,-0.4173,-0.3993,-0.389,-0.3762,-0.3626,-0.3581,-0.3581,-0.3581,-0.3306,-0.317,-0.317,-0.2854,-0.2719,-0.2719,-0.2404,-0.2228,-0.2239,-0.2059,-0.1776,-0.1455,-0.1616,-0.1213,-0.0559,-0.0545,-0.0561,-0.0505,-0.0168,0.0,0.0,0.0,0.0,0.0,0.9729,0.9872,0.9865,0.9883,0.9868,0.9842,0.9787,0.9779,0.9761,0.9698,0.968,0.9787,1.0094,0.9735,0.9587,0.9901,0.9542,0.96,1.034,1.0953,1.1924,1.3379,1.3427,1.3733,1.4417,1.3329,1.2514,1.2028,1.185,1.135,1.0573,1.1147,1.1057,1.0453,1.1746,1.207,1.163,1.2283,1.2303,1.188,1.1821,1.2542,1.3751,1.4138,1.4077,1.3728,1.3239,1.347,1.3817,1.3028,1.2726,1.2865,1.3558,1.197,0.9844,0.9888,0.8992,0.7906,0.7598,0.6554,0.5597,0.5845,0.4921,0.3923,0.0,0.0,0.0,0.2441,0.1903,0.146,0.1,0.0134,-0.056,-0.063,-0.1469,-0.1967,-0.152,-0.2255,-0.2884,-0.2999,-0.3555,-0.3911,-0.3812,-0.3691,-0.3625,-0.3615,-0.349,-0.3353,-0.3262,-0.3262,-0.3262,-0.3262,-0.2763,-0.2539,-0.2544,-0.2051,-0.1781,-0.1781,-0.1692,-0.1609,-0.1621,-0.1621,-0.1305,-0.072,-0.0837,-0.0565,0.0,0.0,0.0,0.0,0.0,0.0,0.0,0.0,0.0,0.0,0.9776,0.9765,0.9732,0.9795,0.9761,0.9724,0.9717,0.9717,0.9698,0.9698,0.9599,1.0257,1.2203,1.0566,1.0111,1.2068,1.0376,0.9455,1.0006,1.0089,1.0602,1.1712,1.2388,1.2835,1.311,1.2273,1.1809,1.1748,1.0973,1.0777,1.1094,1.0898,1.127,1.2107,1.2121,1.2742,1.3715,1.3301,1.3051,1.2917,1.2848,1.2745,1.2763,1.4297,1.3983,1.2642,1.2147,1.2584,1.322,1.2195,1.2774,1.3676,1.2332,1.164,1.1173,1.0187,0.8968,0.7762,0.7014,0.5912,0.4963,0.4821,0.4008,0.3154,0.2903,0.0,0.1899,0.153,0.0,0.0721,0.0356,0.0,0.0,-0.1407,-0.1676,-0.2043,-0.2605,-0.2609,-0.2418,-0.2007,-0.2493,-0.2748,-0.2458,-0.2286,-0.2452,-0.2948,-0.2404,-0.1999,-0.1999,-0.1999,-0.1999,-0.1999,-0.1954,-0.1919,-0.1889,-0.1844,-0.1799,-0.1799,-0.1258,-0.0989,-0.099,-0.045,-0.018,-0.0091,-0.0104,-0.0055,0.0,0.0,0.0,0.0,0.0,0.0,0.0,0.0,0.0,0.0,0.9724,0.9724,0.9698,0.9743,0.9724,0.9698,0.9698,0.9994,1.0383,1.0856,1.0774,1.1333,1.3058,1.239,1.2233,1.331,1.2538,1.2087,1.231,1.1751,1.2088,1.3573,1.2966,1.2756,1.3077,1.251,1.2137,1.1945,1.1517,1.144,1.1662,1.169,1.1652,1.1605,1.2381,1.2544,1.2345,1.3847,1.3747,1.2627,1.2476,1.2402,1.2368,1.2842,1.2261,1.1165,1.0595,1.126,1.2206,1.1228,1.2017,1.3148,1.1351,1.0967,1.1205,1.1274,0.9601,0.7816,0.8156,0.7011,0.556,0.499,0.4351,0.3733,0.3328,0.2553,0.1814,0.1375,0.0,0.0,0.0,0.0,0.0,0.0,-0.1855,-0.2188,-0.214,-0.2172,-0.2279,-0.2404,-0.2591,-0.2504,-0.2023,-0.1934,-0.2007,-0.2238,-0.1989,-0.1791,-0.1791,-0.1791,-0.1791,-0.1791,-0.1477,-0.1299,-0.126,-0.0945,-0.0764,-0.0764,-0.0494,-0.036,-0.036,-0.0135,0.0,0.0,0.0,0.0,0.0,0.0,0.0,0.0,0.0,0.0,0.0,0.0,0.0,0.0,0.9827,0.9931,0.9868,0.9635,0.9931,1.0194,1.0194,1.0906,1.1663,1.2229,1.219,1.2539,1.3773,1.3093,1.2908,1.3759,1.385,1.3792,1.3626,1.3028,1.2983,1.3733,1.2859,1.2445,1.258,1.2523,1.2291,1.1836,1.1953,1.1973,1.1904,1.2229,1.1965,1.124,1.2054,1.1958,1.1313,1.3613,1.3718,1.2379,1.2477,1.2378,1.2243,1.1733,1.109,1.0429,0.9973,1.0703,1.1733,1.0597,1.1467,1.2753,1.1223,1.0874,1.1172,1.1989,1.0237,0.8181,0.8882,0.7591,0.5869,0.5137,0.451,0.3886,0.3239,0.242,0.1652,0.1148,0.0499,0.0,0.0,0.0,-0.1503,-0.1442,0.0,-0.213,-0.1821,-0.1895,-0.2077,-0.2266,-0.2109,-0.1885,-0.1676,-0.1435,-0.1411,-0.1646,-0.1588,-0.1504,-0.1433,-0.1486,-0.1485,-0.1305,-0.09,-0.0674,-0.0674,-0.0225,0.0,0.0,0.0,0.0,0.0,0.0,0.0,0.0,0.0,0.0,0.0,0.0,0.0,0.0,0.0,0.0,0.0,0.0,0.0,0.0,1.0249,1.0483,1.0302,0.9455,1.0483,1.1449,1.1449,1.2667,1.3597,1.3645,1.3581,1.3819,1.4571,1.1817,1.0886,1.3205,1.3469,1.3277,1.2678,1.2914,1.2172,1.0155,1.1194,1.155,1.0987,1.1793,1.1874,1.124,1.1744,1.1871,1.1606,1.215,1.2128,1.1652,1.0783,1.0946,1.1895,1.2304,1.251,1.2551,1.34,1.3121,1.2168,1.1696,1.1222,1.086,1.086,1.1552,1.2207,1.058,1.1325,1.2891,1.2328,1.1803,1.1481,1.1898,1.0645,0.902,0.8406,0.6808,0.5273,0.4978,0.4031,0.2923,0.2063,0.1563,0.1158,0.0558,0.0,-0.0493,-0.0819,-0.1106,-0.1403,-0.1733,-0.1705,0.0,0.0,-0.2093,-0.1694,-0.0855,-0.0374,-0.0405,-0.1241,-0.0541,-0.0418,-0.1266,-0.1088,-0.0799,-0.0442,-0.0764,-0.0674,-0.009,-0.0045,-0.0045,-0.0045,0.0,0.0,0.0,0.0,0.0,0.0,0.0,0.0,0.0,0.0,0.0,0.0,0.0,0.0,0.0,0.0,0.0,0.0,0.0,0.0,0.0,1.0212,1.0644,1.0988,1.0781,1.1177,1.1668,1.2218,1.2601,1.3226,1.4288,1.4111,1.4514,1.6221,1.5235,1.4332,1.4089,1.5052,1.5021,1.3493,1.4039,1.4095,1.3373,1.3721,1.3034,1.1136,1.2145,1.2074,1.0865,1.1795,1.2023,1.1618,1.2529,1.2263,1.1068,1.0592,1.0505,1.0852,1.1952,1.2436,1.2496,1.2553,1.2063,1.1372,1.1797,1.1698,1.1318,1.1015,1.1503,1.2084,1.067,1.1434,1.2701,1.1517,1.1005,1.0985,1.1601,1.008,0.8276,0.8821,0.7692,0.6079,0.5153,0.4534,0.3876,0.2761,0.1889,0.1213,0.0919,0.0022,-0.0763,-0.0885,-0.1375,-0.1741,-0.1669,-0.185,-0.2015,0.0,-0.2034,-0.1866,-0.1464,-0.0942,-0.072,-0.1012,-0.0534,-0.043,-0.0988,-0.1069,-0.0891,-0.0437,-0.0493,-0.0405,0.0,0.0,0.0,0.0,0.0,0.0,0.0,0.0,0.0,0.0,0.0,0.0,0.0,0.0,0.0,0.0,0.0,0.0,0.0,0.0,0.0,0.0,0.0,0.0,0.0,1.0986,1.1265,1.1579,1.1399,1.1591,1.2217,1.353,1.3346,1.3768,1.5805,1.5036,1.4813,1.6197,1.5851,1.5128,1.4159,1.4442,1.4758,1.5032,1.3651,1.3619,1.5418,1.4034,1.2678,1.1502,1.2182,1.2251,1.1551,1.1933,1.2046,1.1906,1.2409,1.1822,1.0342,1.0226,0.9944,0.9654,1.1057,1.1678,1.1731,1.1789,1.1713,1.1655,1.187,1.1914,1.1776,1.1315,1.1583,1.2023,1.0789,1.1359,1.2299,1.1054,1.0664,1.0714,1.0956,0.9761,0.8508,0.9049,0.7982,0.642,0.5281,0.4491,0.374,0.2521,0.1652,0.1044,0.0876,-0.0157,-0.0988,-0.0753,-0.1419,-0.1912,-0.1638,-0.1902,-0.2155,0.0,-0.2203,-0.2103,-0.1968,-0.1374,-0.0949,-0.09,-0.0614,-0.0606,-0.1011,-0.1224,-0.1131,-0.061,-0.0662,-0.0512,0.0,0.0,0.0,0.0,0.0,0.0,0.0,0.0,0.0,0.0,0.0,0.0,0.0,0.0,0.0,0.0,0.0,0.0,0.0,0.0,0.0,0.0,0.0,0.0,0.0,1.2446,1.233,1.2107,1.135,1.1909,1.316,1.5278,1.4848,1.5228,1.7855,1.6211,1.4716,1.4514,1.377,1.3259,1.3273,1.1775,1.2557,1.659,1.1856,1.1043,1.5849,1.2368,1.0809,1.1979,1.2054,1.2417,1.302,1.2084,1.1864,1.2319,1.1889,1.0891,0.9497,0.9656,0.9248,0.8532,0.9776,1.0317,1.04,1.112,1.1968,1.2671,1.1778,1.1731,1.2106,1.174,1.1876,1.2023,1.0964,1.1137,1.1652,1.0974,1.0771,1.0643,0.9963,0.9715,0.9535,0.893,0.7688,0.6303,0.534,0.3989,0.2595,0.144,0.0914,0.0652,0.0447,-0.0478,-0.108,-0.0512,-0.1262,-0.1885,-0.1626,-0.1815,-0.2142,-0.2617,-0.2577,-0.2398,-0.2205,-0.1564,-0.1085,-0.096,-0.0828,-0.0904,-0.1302,-0.1486,-0.1375,-0.0928,-0.1115,-0.0869,-0.0045,0.0,0.0,0.0,0.0,0.0,0.0,0.0,0.0,0.0,0.0,0.0,0.0,0.0,0.0,0.0,0.0,0.0,0.0,0.0,0.0,0.0,0.0,0.0,0.0,1.2443,1.2737,1.3059,1.2858,1.3888,1.495,1.5521,1.5638,1.5622,1.5457,1.4939,1.422,1.3274,1.3784,1.309,1.0452,1.0846,1.1086,1.0708,1.1165,1.22,1.389,1.4146,1.3447,1.1799,1.2941,1.3074,1.2061,1.1858,1.1628,1.1378,1.1296,1.0654,0.9582,0.9682,0.9482,0.9204,0.9962,1.0516,1.0702,0.9414,0.9612,1.0603,0.9882,1.023,1.1244,1.1847,1.1995,1.18,1.125,1.1056,1.0933,1.0252,1.0045,0.9903,0.9235,0.8685,0.8212,0.8035,0.6887,0.5686,0.534,0.4041,0.2744,0.2233,0.1379,0.0626,0.0431,-0.0131,-0.0593,-0.0436,-0.0994,-0.1413,-0.1247,-0.1567,-0.1917,-0.2137,-0.2239,-0.2196,-0.1934,-0.1826,-0.172,-0.159,-0.1411,-0.1396,-0.1652,-0.1448,-0.1196,-0.0905,-0.0718,-0.0452,0.0,0.0,0.0,0.0,0.0,0.0,0.0,0.0,0.0,0.0,0.0,0.0,0.0,0.0,0.0,0.0,0.0,0.0,0.0,0.0,0.0,0.0,0.0,0.0,0.0,1.2992,1.3126,1.3396,1.3396,1.4778,1.5852,1.587,1.595,1.6051,1.613,1.5081,1.4282,1.4195,1.4349,1.3677,1.1659,1.081,1.0701,1.1446,1.0267,1.0878,1.3783,1.3446,1.2659,1.1455,1.2315,1.2472,1.1793,1.1673,1.1517,1.1337,1.0513,0.9709,0.894,0.8723,0.8521,0.8357,0.9246,1.0079,1.0695,0.9262,0.9313,0.0,0.9446,0.9822,1.0855,1.1403,1.1469,1.1261,1.0556,1.0332,1.0272,0.9588,0.9355,0.9228,0.8514,0.8035,0.7653,0.7283,0.6382,0.5383,0.5011,0.3741,0.2462,0.202,0.111,0.0349,0.0249,-0.0213,-0.0547,-0.0251,-0.0826,-0.1295,-0.1319,-0.1593,-0.1881,-0.2053,-0.2229,-0.2217,-0.1915,-0.1953,-0.1941,-0.1822,-0.1623,-0.1601,-0.1868,-0.1371,-0.1042,-0.0981,-0.0607,-0.0266,0.0,0.0,0.0,0.0,0.0,0.0,0.0,0.0,0.0,0.0,0.0,0.0,0.0,0.0,0.0,0.0,0.0,0.0,0.0,0.0,0.0,0.0,0.0,0.0,0.0,1.3684,1.3329,1.3329,1.3565,1.483,1.5882,1.6088,1.6057,1.6434,1.7619,1.5668,1.4486,1.5329,1.478,1.4232,1.4037,1.113,1.0879,1.4642,0.9633,0.8934,1.4345,1.1851,1.0587,1.1171,1.1319,1.1575,1.1978,1.1607,1.1547,1.1739,0.9783,0.8609,0.8177,0.7679,0.732,0.7185,0.8051,0.919,1.03,0.9575,0.9763,1.034,0.9655,0.9895,1.0522,1.0522,1.0581,1.0532,0.9569,0.9468,0.9535,0.8871,0.8633,0.8508,0.7747,0.7476,0.7256,0.6619,0.5899,0.5207,0.4574,0.3274,0.2052,0.14,0.0617,0.0,0.0,-0.0393,-0.0617,-0.0112,-0.0629,-0.1245,-0.1463,-0.1601,-0.1759,-0.1986,-0.217,-0.2172,-0.1871,-0.1845,0.0,-0.1665,-0.1558,-0.1649,-0.1961,-0.1318,-0.0953,-0.1062,-0.0629,-0.024,0.0,0.0,0.0,0.0,0.0,0.0,0.0,0.0,0.0,0.0,0.0,0.0,0.0,0.0,0.0,0.0,0.0,0.0,0.0,0.0,0.0,0.0,0.0,0.0,0.0,1.3684,1.2908,1.2958,1.4469,1.4178,1.4156,1.5427,1.6464,1.6518,1.4822,1.4515,1.3744,1.1986,1.2783,1.2854,1.148,1.079,1.0742,1.1483,1.05,1.0938,1.3373,1.2572,1.1931,1.1676,1.247,1.2743,1.2404,1.1859,1.1635,1.1739,0.9519,0.8549,0.8673,0.8336,0.8286,0.8322,0.7323,0.7772,0.9144,0.8469,0.8265,0.8448,0.8804,0.899,0.9169,0.9169,0.9485,0.9956,0.9746,0.9355,0.8864,0.81,0.7917,0.7747,0.6998,0.6367,0.5863,0.5716,0.5203,0.4632,0.4519,0.3332,0.2164,0.2018,0.0954,0.0,0.0,-0.0056,-0.0112,0.0,-0.0319,-0.0664,-0.0961,-0.1046,-0.1084,-0.1128,-0.1152,-0.1121,-0.0935,-0.1025,-0.1047,-0.091,-0.1304,-0.1653,-0.1823,-0.1257,-0.0918,-0.0937,-0.0384,-0.0042,0.0,0.0,0.0,0.0,0.0,0.0,0.0,0.0,0.0,0.0,0.0,0.0,0.0,0.0,0.0,0.0,0.0,0.0,0.0,0.0,0.0,0.0,0.0,0.0,0.0,1.4136,1.2894,1.2273,1.3312,1.3693,1.3924,1.4215,1.5412,1.5926,1.4823,1.4667,1.421,1.3045,1.3091,1.2867,1.2069,1.1217,1.1083,1.1939,1.1198,1.1446,1.3135,1.2508,1.1825,1.1126,1.1522,1.1612,1.1379,1.0217,1.0055,1.0884,0.8641,0.7741,0.7964,0.7588,0.7437,0.7411,0.6667,0.7028,0.8094,0.7459,0.7225,0.7284,0.7571,0.7635,0.7635,0.7635,0.7864,0.8212,0.8573,0.8218,0.7576,0.7225,0.7127,0.6987,0.6234,0.5778,0.5436,0.5089,0.4746,0.4519,0.4519,0.3332,0.222,0.2188,0.1066,0.0,0.0,0.0,0.0,0.0,-0.0088,-0.0296,-0.0578,-0.0648,-0.0694,-0.0869,-0.1026,-0.1043,-0.0827,-0.0912,-0.095,-0.0811,-0.1007,-0.13,-0.1667,-0.1397,-0.1136,-0.1018,-0.0602,-0.0258,0.0,0.0,0.0,0.0,0.0,0.0,0.0,0.0,0.0,0.0,0.0,0.0,0.0,0.0,0.0,0.0,0.0,0.0,0.0,0.0,0.0,0.0,0.0,0.0,0.0,1.4777,1.3422,1.2379,1.2781,1.3404,1.3763,1.3498,1.3975,1.4547,1.5074,1.4837,1.4549,1.4475,1.3723,1.3079,1.269,1.1791,1.1492,1.2128,1.1584,1.1618,1.2492,1.2057,1.1417,1.0631,1.0331,1.0291,1.0459,0.8645,0.8382,0.9578,0.784,0.708,0.7226,0.6692,0.644,0.6399,0.6186,0.6564,0.718,0.6775,0.6605,0.6605,0.6605,0.6605,0.6605,0.6605,0.6488,0.6435,0.7063,0.6945,0.6546,0.643,0.6362,0.6248,0.5495,0.5262,0.5148,0.4632,0.4519,0.4519,0.4519,0.3332,0.222,0.2188,0.1066,0.0,0.0,0.0,0.0,0.0,0.0,-0.009,-0.0298,-0.0299,-0.0423,-0.068,-0.0898,-0.0951,-0.0748,-0.0816,-0.0819,-0.0719,-0.0673,-0.0845,-0.1299,-0.1377,-0.1327,-0.1128,-0.084,-0.0471,0.0,0.0,0.0,0.0,0.0,0.0,0.0,0.0,0.0,0.0,0.0,0.0,0.0,0.0,0.0,0.0,0.0,0.0,0.0,0.0,0.0,0.0,0.0,0.0,0.0,1.5555,1.4897,1.4534,1.5237,1.3528,1.2625,1.4359,1.2743,1.1964,1.3796,1.4007,1.3809,1.3389,1.3257,1.2572,1.1068,1.2174,1.1757,0.8944,1.1388,1.2188,1.04,1.1273,1.1534,1.0967,1.0246,1.0215,1.1013,0.8735,0.776,0.7998,0.7565,0.7371,0.7349,0.6704,0.654,0.6707,0.6098,0.6187,0.6694,0.6634,0.6579,0.6579,0.6579,0.6579,0.6579,0.6579,0.6165,0.5589,0.5703,0.611,0.6459,0.5817,0.5597,0.5491,0.4802,0.4577,0.4574,0.4519,0.4519,0.4519,0.4519,0.3332,0.222,0.2188,0.1066,0.0,0.0,0.0,0.0,0.0,0.0,0.0,-0.0045,-0.005,-0.0049,-0.0069,-0.0099,-0.0102,-0.0071,-0.008,-0.009,-0.0103,-0.0281,-0.0446,-0.0505,-0.089,-0.1118,-0.1085,-0.0837,-0.0471,0.0,0.0,0.0,0.0,0.0,0.0,0.0,0.0,0.0,0.0,0.0,0.0,0.0,0.0,0.0,0.0,0.0,0.0,0.0,0.0,0.0,0.0,0.0,0.0,0.0,1.5898,1.4749,1.3904,1.4401,1.3906,1.3539,1.3803,1.3276,1.2973,1.3424,1.3484,1.3424,1.321,1.3198,1.2914,1.2244,1.2808,1.2641,1.1319,1.2195,1.2394,1.1549,1.1372,1.1211,1.0993,1.0092,1.002,1.0814,0.8389,0.7584,0.8184,0.7331,0.688,0.6784,0.6693,0.6473,0.6149,0.536,0.5378,0.5899,0.5495,0.5321,0.5321,0.5321,0.5321,0.5321,0.5321,0.486,0.4233,0.4233,0.4746,0.5262,0.4974,0.4574,0.4119,0.3837,0.3442,0.3106,0.3106,0.3106,0.3106,0.3106,0.2325,0.1551,0.1512,0.0729,0.0,0.0,0.0,0.0,0.0,0.0,0.0,0.0,0.0,0.0,0.0,0.0,0.0,0.0,0.0,-0.0128,-0.0511,-0.0311,-0.0421,-0.1059,-0.11,-0.0962,-0.0693,-0.0673,-0.0491,-0.0027,0.0,0.0,0.0,0.0,0.0,0.0,0.0,0.0,0.0,0.0,0.0,0.0,0.0,0.0,0.0,0.0,0.0,0.0,0.0,0.0,0.0,0.0,0.0,0.0,1.6407,1.5237,1.4184,1.425,1.4584,1.4381,1.2953,1.3496,1.3723,1.2618,1.2901,1.3198,1.3198,1.3198,1.302,1.2513,1.2916,1.2805,1.183,1.2222,1.2222,1.1605,1.1185,1.0847,1.0588,0.9867,0.9672,1.0036,0.8353,0.775,0.8209,0.7147,0.6627,0.6539,0.6423,0.6131,0.5665,0.4577,0.4405,0.4802,0.4119,0.3837,0.3837,0.3837,0.3837,0.3837,0.3837,0.35,0.3051,0.306,0.3403,0.3796,0.384,0.3442,0.2996,0.295,0.2615,0.2223,0.2223,0.2223,0.2223,0.2223,0.1666,0.1112,0.112,0.0505,0.0,0.0,0.0,0.0,0.0,0.0,0.0,0.0,0.0,0.0,0.0,0.0,0.0,0.0,0.0,-0.0166,-0.0605,-0.0405,-0.0574,-0.1286,-0.1164,-0.0868,-0.0498,-0.061,-0.0486,0.0,0.0,0.0,0.0,0.0,0.0,0.0,0.0,0.0,0.0,0.0,0.0,0.0,0.0,0.0,0.0,0.0,0.0,0.0,0.0,0.0,0.0,0.0,0.0,0.0,1.7299,1.682,1.6305,1.5752,1.566,1.4747,1.2036,1.3032,1.3304,1.1023,1.2174,1.3198,1.3198,1.3198,1.2513,1.0863,1.2231,1.1825,0.8574,1.0956,1.1556,0.9417,1.0419,1.0528,0.9524,0.9486,0.924,0.8714,0.8784,0.837,0.7609,0.7071,0.6812,0.676,0.5896,0.5491,0.5436,0.395,0.3329,0.3274,0.2548,0.2213,0.2213,0.2213,0.2213,0.2213,0.2213,0.2213,0.2216,0.224,0.2193,0.2244,0.222,0.2213,0.2218,0.2186,0.2193,0.2193,0.2193,0.2193,0.2193,0.2193,0.1629,0.1122,0.1122,0.0505,0.0,0.0,0.0,0.0,0.0,0.0,0.0,0.0,0.0,0.0,0.0,0.0,0.0,0.0,0.0,0.0,0.0,-0.0535,-0.0825,-0.0717,-0.0832,-0.0853,-0.0698,-0.0709,-0.0487,0.0,0.0,0.0,0.0,0.0,0.0,0.0,0.0,0.0,0.0,0.0,0.0,0.0,0.0,0.0,0.0,0.0,0.0,0.0,0.0,0.0,0.0,0.0,0.0,0.0,1.365,1.5089,1.6102,1.4834,1.5191,1.5296,1.4023,1.3997,1.369,1.2551,1.2854,1.3198,1.3198,1.3198,1.2973,1.2454,1.1803,1.1365,1.1171,1.0558,1.0246,1.0448,0.9568,0.9118,0.9161,0.8253,0.8026,0.8438,0.8087,0.762,0.7037,0.6426,0.6061,0.5878,0.5636,0.4952,0.4027,0.3506,0.3007,0.2519,0.2293,0.2181,0.2181,0.2181,0.2181,0.2181,0.2181,0.19,0.1453,0.1457,0.1122,0.0673,0.0726,0.106,0.1453,0.1457,0.1066,0.0673,0.0673,0.0673,0.0673,0.0673,0.0505,0.0336,0.0336,0.0168,0.0,0.0,0.0,0.0,0.0,0.0,0.0,0.0,0.0,0.0,0.0,0.0,0.0,0.0,0.0,-0.0152,-0.058,-0.0432,-0.0437,-0.0822,-0.051,-0.0402,-0.067,-0.0403,-0.0153,0.0,0.0,0.0,0.0,0.0,0.0,0.0,0.0,0.0,0.0,0.0,0.0,0.0,0.0,0.0,0.0,0.0,0.0,0.0,0.0,0.0,0.0,0.0,0.0,0.0,1.3582,1.4919,1.5858,1.4851,1.5246,1.5258,1.4107,1.4012,1.3722,1.2718,1.296,1.3138,1.296,1.296,1.296,1.296,1.1791,1.1399,1.2207,1.072,1.0264,1.1214,0.9712,0.8977,0.9253,0.8035,0.7601,0.7928,0.7408,0.7022,0.6722,0.601,0.5627,0.5471,0.4929,0.4171,0.3302,0.2732,0.2235,0.1741,0.1459,0.1347,0.1347,0.1347,0.1347,0.1347,0.1347,0.1066,0.0673,0.0673,0.0393,0.0,0.0,0.0336,0.0673,0.0673,0.0336,0.0,0.0,0.0,0.0,0.0,0.0,0.0,0.0,0.0,0.0,0.0,0.0,0.0,0.0,0.0,0.0,0.0,0.0,0.0,0.0,0.0,0.0,0.0,0.0,-0.0144,-0.0518,-0.0411,-0.0493,-0.0802,-0.0526,-0.0434,-0.0672,-0.0254,0.0,0.0,0.0,0.0,0.0,0.0,0.0,0.0,0.0,0.0,0.0,0.0,0.0,0.0,0.0,0.0,0.0,0.0,0.0,0.0,0.0,0.0,0.0,0.0,0.0,0.0,1.5994,1.5905,1.5631,1.5454,1.5531,1.4853,1.2677,1.3279,1.3373,1.1815,1.2466,1.296,1.2513,1.2409,1.2399,1.2399,1.1908,1.1657,1.1733,1.1168,1.1067,1.1552,1.04,0.9688,0.9607,0.8533,0.7726,0.7265,0.6776,0.6529,0.6534,0.5764,0.5378,0.5265,0.3901,0.3244,0.3077,0.1681,0.1066,0.0954,0.028,0.0,0.0,0.0,0.0,0.0,0.0,0.0,0.0,0.0,0.0,0.0,0.0,0.0,0.0,0.0,0.0,0.0,0.0,0.0,0.0,0.0,0.0,0.0,0.0,0.0,0.0,0.0,0.0,0.0,0.0,0.0,0.0,0.0,0.0,0.0,0.0,0.0,0.0,0.0,0.0,0.0,0.0,-0.049,-0.0764,-0.0674,-0.0768,-0.0787,-0.0673,-0.0245,0.0,0.0,0.0,0.0,0.0,0.0,0.0,0.0,0.0,0.0,0.0,0.0,0.0,0.0,0.0,0.0,0.0,0.0,0.0,0.0,0.0,0.0,0.0,0.0,0.0,0.0,1.286,1.4329,1.521,1.3933,1.4767,1.5029,1.3229,1.3205,1.2997,1.1885,1.1965,1.2081,1.1965,1.1589,1.1362,1.1362,1.0364,1.0154,1.1131,0.984,0.9415,1.0283,0.9017,0.8423,0.8637,0.7222,0.6574,0.6775,0.6108,0.5751,0.576,0.5058,0.4398,0.3782,0.3456,0.2679,0.162,0.123,0.0784,0.0224,0.0056,0.0,0.0,0.0,0.0,0.0,0.0,0.0,0.0,0.0,0.0,0.0,0.0,0.0,0.0,0.0,0.0,0.0,0.0,0.0,0.0,0.0,0.0,0.0,0.0,0.0,0.0,0.0,0.0,0.0,0.0,0.0,0.0,0.0,0.0,0.0,0.0,0.0,0.0,0.0,0.0,0.0,0.0,-0.0138,-0.018,-0.018,-0.0216,-0.0199,-0.017,-0.0041,0.0,0.0,0.0,0.0,0.0,0.0,0.0,0.0,0.0,0.0,0.0,0.0,0.0,0.0,0.0,0.0,0.0,0.0,0.0,0.0,0.0,0.0,0.0,0.0,0.0,0.0,1.308,1.4183,1.4767,1.3346,1.4049,1.4348,1.3066,1.283,1.2651,1.2224,1.1968,1.1707,1.1472,1.1168,1.0909,1.0693,1.007,0.9924,1.0644,0.9809,0.9559,1.0176,0.9183,0.8724,0.8983,0.7225,0.6051,0.5618,0.5218,0.505,0.5003,0.4343,0.3735,0.3287,0.2619,0.1842,0.1062,0.0727,0.0392,0.0,0.0,0.0,0.0,0.0,0.0,0.0,0.0,0.0,0.0,0.0,0.0,0.0,0.0,0.0,0.0,0.0,0.0,0.0,0.0,0.0,0.0,0.0,0.0,0.0,0.0,0.0,0.0,0.0,0.0,0.0,0.0,0.0,0.0,0.0,0.0,0.0,0.0,0.0,0.0,0.0,0.0,0.0,0.0,0.0,0.0,0.0,0.0,0.0,0.0,0.0,0.0,0.0,0.0269,0.0269,0.0,0.0,0.0,0.0,0.0,0.0,0.0,0.0,0.0,0.0,0.0,0.0,0.0,0.0,0.0,0.0,0.0,0.0,0.0,0.0,0.0,0.0,1.4575,1.4571,1.4192,1.3237,1.3394,1.328,1.2387,1.2156,1.2124,1.2235,1.1843,1.1393,1.0958,1.0899,1.0742,1.0332,1.0225,1.0225,1.0283,1.0225,1.0273,1.0429,0.9755,0.9408,0.9475,0.7488,0.5811,0.4519,0.4519,0.4519,0.4463,0.3735,0.3289,0.3065,0.173,0.1062,0.0895,0.028,0.0,0.0,0.0,0.0,0.0,0.0,0.0,0.0,0.0,0.0,0.0,0.0,0.0,0.0,0.0,0.0,0.0,0.0,0.0,0.0,0.0,0.0,0.0,0.0,0.0,0.0,0.0,0.0,0.0,0.0,0.0,0.0,0.0,0.0,0.0,0.0,0.0,0.0,0.0,0.0,0.0,0.0,0.0,0.0,0.0,0.0,0.0,0.0,0.0,0.0,0.0,0.0,0.0,0.0,0.0496,0.0496,0.0,0.0,0.0,0.0,0.0,0.0,0.0,0.0,0.0,0.0,0.0,0.0056,0.0168,0.0168,0.0224,0.0336,0.0224,0.0168,0.0168,0.0056,0.0,0.0,1.4585,1.3993,1.3294,1.3148,1.2869,1.2341,1.1286,1.1113,1.1018,1.0693,1.0585,1.0488,1.0429,1.0429,1.038,1.0322,0.9867,0.9818,1.0273,0.9867,0.9616,0.9664,0.9129,0.8573,0.8041,0.6475,0.5297,0.4519,0.4519,0.4519,0.4463,0.3735,0.301,0.2343,0.1507,0.0727,0.0168,0.0056,0.0,0.0,0.0,0.0,0.0,0.0,0.0,0.0,0.0,0.0,0.0,0.0,0.0,0.0,0.0,0.0,0.0,0.0,0.0,0.0,0.0,0.0,0.0,0.0,0.0,0.0,0.0,0.0,0.0,0.0,0.0,0.0,0.0,0.0,0.0,0.0,0.0,0.0,0.0,0.0,0.0,0.0,0.0,0.0,0.0,0.0,0.0,0.0,0.0,0.0,0.0,0.0,0.0,0.0,0.0093,0.0093,0.0,0.0,0.0,0.0,0.0,0.0,0.0,0.0,0.0,0.0,0.0,0.0336,0.0954,0.0954,0.1291,0.1797,0.1178,0.0954,0.0842,0.0224,0.0,0.0,1.334,1.2939,1.2454,1.1993,1.1983,1.1699,1.0732,1.074,1.0752,1.0332,1.0283,1.0283,1.0283,1.0283,1.0176,0.9915,0.9664,0.9485,0.9461,0.9327,0.9234,0.9067,0.9026,0.84,0.716,0.6032,0.5148,0.4519,0.4519,0.4519,0.4463,0.3729,0.2952,0.2179,0.1453,0.0671,0.0,0.0,0.0,0.0,0.0,0.0,0.0,0.0,0.0,0.0,0.0,0.0,0.0,0.0,0.0,0.0,0.0,0.0,0.0,0.0,0.0,0.0,0.0,0.0,0.0,0.0,0.0,0.0,0.0,0.0,0.0,0.0,0.0,0.0,0.0,0.0,0.0,0.0,0.0,0.0,0.0,0.0,0.0,0.0,0.0,0.0,0.0,0.0,0.0,0.0,0.0,0.0,0.0,0.0,0.0,0.0,0.0,0.0137,0.0493,0.0141,0.0,0.0,0.0,0.0,0.0,0.0,0.0,0.0,0.0,0.0168,0.0505,0.0502,0.0723,0.1001,0.0667,0.0502,0.0449,0.0112,0.0,0.0,1.2299,1.2111,1.1836,1.1044,1.1126,1.1067,1.039,1.0546,1.0644,1.0332,1.0283,1.0283,1.0283,1.0176,0.9963,0.952,0.9274,0.8967,0.8622,0.8756,0.8783,0.8699,0.8657,0.7913,0.6363,0.561,0.5033,0.4519,0.4519,0.4519,0.4463,0.3724,0.2947,0.2178,0.1454,0.0672,0.0,0.0,0.0,0.0,0.0,0.0,0.0,0.0,0.0,0.0,0.0,0.0,0.0,0.0,0.0,0.0,0.0,0.0,0.0,0.0,0.0,0.0,0.0,0.0,0.0,0.0,0.0,0.0,0.0,0.0,0.0,0.0,0.0,0.0,0.0,0.0,0.0,0.0,0.0,0.0,0.0,0.0,0.0,0.0,0.0,0.0,0.0,0.0,0.0,0.0,0.0,0.0,0.0,0.0,0.0,0.0,0.0,0.0225,0.0672,0.0381,0.0146,0.0,0.016,0.0112,0.0,0.0,0.0,0.0,0.0,0.0112,0.028,0.0278,0.0332,0.0499,0.0332,0.0334,0.0505,0.0336,0.0336,0.0505,1.2299,1.1923,1.1502,1.0989,1.0634,1.038,1.0322,1.0332,1.0332,1.0283,1.0283,1.0283,1.0283,0.9867,0.9559,0.9511,0.8594,0.8108,0.8296,0.8116,0.8207,0.8682,0.7471,0.6406,0.5605,0.4919,0.4574,0.4519,0.4519,0.4519,0.4463,0.3724,0.2996,0.2161,0.1453,0.0673,0.0,0.0,0.0,0.0,0.0,0.0,0.0,0.0,0.0,0.0,0.0,0.0,0.0,0.0,0.0,0.0,0.0,0.0,0.0,0.0,0.0,0.0,0.0,0.0,0.0,0.0,0.0,0.0,0.0,0.0,0.0,0.0,0.0,0.0,0.0,0.0,0.0,0.0,0.0,0.0,0.0,0.0,0.0,0.0,0.0,0.0,0.0,0.0,0.0,0.0,0.0,0.0,0.0,0.0,0.0,0.0,0.0,0.0,0.0045,0.0588,0.0536,0.0,0.0558,0.0561,0.0,0.0,0.0,0.0,0.0,0.0393,0.101,0.1009,0.1401,0.1964,0.1289,0.1458,0.1967,0.129,0.1459,0.1967,1.1981,1.193,1.1673,1.0693,1.0595,1.0585,1.0332,1.0283,1.0283,1.0283,1.0537,1.0488,1.0118,0.9963,0.9552,0.8815,0.8245,0.7891,0.7799,0.7458,0.7492,0.8075,0.7122,0.6237,0.5491,0.486,0.4519,0.4519,0.4519,0.4519,0.4519,0.4233,0.3387,0.2215,0.1895,0.1119,0.0,0.0,0.0,0.0,0.0,0.0,0.0,0.0,0.0,0.0,0.0,0.0,0.0,0.0,0.0,0.0,0.0,0.0,0.0,0.0,0.0,0.0,0.0,0.0,0.0,0.0,0.0,0.0,0.0,0.0,0.0,0.0,0.0,0.0,0.0,0.0,0.0,0.0,0.0,0.0,0.0,0.0,0.0,0.0,0.0,0.0,0.0,0.0,0.0,0.0,0.0,0.0,0.0,0.0,0.0186,0.0559,0.0182,0.0,0.0,0.024,0.0243,0.0,0.0215,0.0224,0.0,0.0,0.0,0.0,0.0,0.0168,0.0393,0.0393,0.0561,0.0785,0.0505,0.0842,0.1458,0.1226,0.1557,0.2114,1.1923,1.2004,1.1876,1.0884,1.0955,1.1018,1.0752,1.0703,1.0703,1.0703,1.0752,1.0637,1.016,0.9863,0.9281,0.8403,0.7849,0.7461,0.7307,0.6959,0.6833,0.6998,0.65,0.5899,0.5203,0.4746,0.4519,0.4519,0.4519,0.4519,0.4519,0.4519,0.3674,0.2225,0.2176,0.1398,0.0,0.0,0.0,0.0,0.0,0.0,0.0,0.0,0.0,0.0,0.0,0.0,0.0,0.0,0.0,0.0,0.0,0.0,0.0,0.0,0.0,0.0,0.0,0.0,0.0,0.0,0.0,0.0,0.0,0.0,0.0,0.0,0.0,0.0,0.0,0.0,0.0,0.0,0.0,0.0,0.0,0.0,0.0,0.0,0.0,0.0,0.0,0.0,0.0,0.0,0.0,0.0,0.0,0.0,0.0192,0.0608,0.0231,0.0094,0.0344,0.0555,0.0551,0.0336,0.0767,0.0753,0.0336,0.0336,0.0224,0.0,0.0,0.0,0.0,0.0,0.0,0.0,0.0,0.0617,0.1457,0.1443,0.2047,0.2826,1.2299,1.2195,1.2077,1.1647,1.1614,1.1584,1.1584,1.1584,1.1584,1.1584,1.0989,1.058,1.0607,0.9468,0.8614,0.8326,0.7363,0.679,0.6797,0.6672,0.6282,0.554,0.5521,0.5203,0.4519,0.4519,0.4519,0.4519,0.4519,0.4519,0.4519,0.4519,0.3688,0.2193,0.2193,0.1403,0.0,0.0,0.0,0.0,0.0,0.0,0.0,0.0,0.0,0.0,0.0,0.0,0.0,0.0,0.0,0.0,0.0,0.0,0.0,0.0,0.0,0.0,0.0,0.0,0.0,0.0,0.0,0.0,0.0,0.0,0.0,0.0,0.0,0.0,0.0,0.0,0.0,0.0,0.0,0.0,0.0,0.0,0.0,0.0,0.0,0.0,0.0,0.0,0.0,0.0,0.0,0.0,0.0,0.0,0.0,0.0,0.0,0.0389,0.1109,0.1704,0.1713,0.112,0.2439,0.2405,0.1122,0.1122,0.0673,0.0,0.0,0.0,0.0,0.0,0.0,0.0,0.0,0.0898,0.2189,0.2221,0.3164,0.4405,1.2299,1.2461,1.2322,1.1099,1.1107,1.1031,1.0231,1.0567,1.073,1.0169,1.063,1.0668,0.9709,0.9382,0.8964,0.8416,0.7405,0.646,0.5654,0.5743,0.5529,0.4856,0.5238,0.5203,0.4519,0.395,0.3669,0.3724,0.3724,0.3724,0.3669,0.3724,0.3169,0.2169,0.1679,0.0898,0.0,0.0,0.0,0.0,0.0,0.0,0.0,0.0,0.0,0.0,0.0,0.0,0.0,0.0,0.0,0.0,0.0,0.0,0.0,0.0,0.0,0.0,0.0,0.0,0.0,0.0,0.0,0.0,0.0,0.0,0.0,0.0,0.0,0.0,0.0,0.0,0.0,0.0,0.0,0.0,0.0,0.0,0.0,0.0,0.0,0.0,0.0,0.0,0.0,0.0,0.0,0.0,0.0,0.0,0.044,0.1371,0.0996,0.1337,0.2507,0.1233,0.1052,0.1843,0.1762,0.1762,0.1833,0.1342,0.0954,0.0729,0.0224,0.0,0.0,0.0,0.0,0.0,0.0,0.0561,0.1514,0.2,0.2826,0.3613,1.2164,1.2289,1.2106,1.0882,1.0896,1.0806,1.0139,1.0388,1.054,1.0075,1.0367,1.0332,0.9506,0.9288,0.8864,0.8041,0.6817,0.5769,0.4944,0.5033,0.4919,0.4519,0.486,0.4919,0.4519,0.4009,0.3619,0.3352,0.3691,0.3627,0.3274,0.3332,0.2945,0.2173,0.1455,0.0673,0.0,0.0,0.0,0.0,0.0,0.0,0.0,0.0,0.0,0.0,0.0,0.0,0.0,0.0,0.0,0.0,0.0,0.0,0.0,0.0,0.0,0.0,0.0,0.0,0.0,0.0,0.0,0.0,0.0,0.0,0.0,0.0,0.0,0.0,0.0,0.0,0.0,0.0,0.0,0.0,0.0,0.0,0.0,0.0,0.0,0.0,0.0,0.0,0.0,0.0,0.0,0.0,0.0,0.0,0.0392,0.1175,0.1112,0.1649,0.2754,0.1474,0.1462,0.2633,0.25,0.2493,0.2605,0.2228,0.1679,0.1066,0.0617,0.028,0.0,0.0,0.0,0.0,0.0,0.0449,0.1177,0.1952,0.2668,0.3332,1.1923,1.1786,1.1572,1.0836,1.0734,1.0711,1.0643,1.0651,1.0709,1.0615,1.0143,0.9775,0.9715,0.9109,0.833,0.7401,0.5973,0.4974,0.4519,0.4519,0.4519,0.4519,0.4519,0.4519,0.446,0.4405,0.4027,0.3322,0.4011,0.3993,0.3274,0.3219,0.2843,0.2193,0.1347,0.0617,0.0,0.0,0.0,0.0,0.0,0.0,0.0,0.0,0.0,0.0,0.0,0.0,0.0,0.0,0.0,0.0,0.0,0.0,0.0,0.0,0.0,0.0,0.0,0.0,0.0,0.0,0.0,0.0,0.0,0.0,0.0,0.0,0.0,0.0,0.0,0.0,0.0,0.0,0.0,0.0,0.0,0.0,0.0,0.0,0.0,0.0,0.0,0.0,0.0,0.0,0.0,0.0,0.0,0.0,0.0056,0.0112,0.0837,0.1515,0.2186,0.2336,0.2737,0.3434,0.4082,0.4064,0.3387,0.3387,0.2617,0.1289,0.1178,0.0729,0.0112,0.0,0.0,0.0,0.0,0.0393,0.1122,0.1909,0.2627,0.3329,1.1923,1.1775,1.1412,1.0223,1.0016,0.9842,0.9295,0.9655,0.9806,0.9318,0.9582,0.9595,0.9049,0.8389,0.7864,0.7629,0.6258,0.5148,0.4519,0.4519,0.4519,0.4519,0.4519,0.4405,0.4291,0.3837,0.3561,0.3398,0.3485,0.3479,0.3274,0.2715,0.2338,0.2135,0.0842,0.0168,0.0,0.0,0.0,0.0,0.0,0.0,0.0,0.0,0.0,0.0,0.0,0.0,0.0,0.0,0.0,0.0,0.0,0.0,0.0,0.0,0.0,0.0,0.0,0.0,0.0,0.0,0.0,0.0,0.0,0.0,0.0,0.0,0.0,0.0,0.0,0.0,0.0,0.0,0.0,0.0,0.0,0.0,0.0,0.0,0.0,0.0,0.0,0.0,0.0,0.0,0.0,0.0,0.0,0.0,0.028,0.0842,0.157,0.2057,0.2184,0.3382,0.4072,0.4249,0.3843,0.3837,0.4233,0.3611,0.3166,0.2781,0.1623,0.101,0.0842,0.0224,0.0,0.0,0.0,0.0112,0.0393,0.1741,0.2289,0.2435,1.1483,1.1065,1.0522,0.9475,0.9348,0.9228,0.8864,0.9109,0.9176,0.8864,0.9109,0.9049,0.8336,0.7923,0.7441,0.673,0.5673,0.486,0.4519,0.4519,0.4519,0.4519,0.4519,0.446,0.4346,0.4078,0.37,0.3274,0.3688,0.3688,0.3274,0.2883,0.2561,0.2135,0.101,0.0336,0.0,0.0,0.0,0.0,0.0,0.0,0.0,0.0,0.0,0.0,0.0,0.0,0.0,0.0,0.0,0.0,0.0,0.0,0.0,0.0,0.0,0.0,0.0,0.0,0.0,0.0,0.0,0.0,0.0,0.0,0.0,0.0,0.0,0.0,0.0,0.0,0.0,0.0,0.0,0.0,0.0,0.0,0.0,0.0,0.0,0.0,0.0,0.0,0.0,0.0,0.0,0.0,0.0,0.0,0.0168,0.0561,0.129,0.1679,0.1666,0.2845,0.363,0.4064,0.395,0.4119,0.4463,0.4064,0.3669,0.3277,0.2506,0.1789,0.1066,0.0673,0.0336,0.0,0.0,0.0224,0.0673,0.1797,0.2458,0.2662,1.0944,1.0269,0.9595,0.8923,0.8804,0.8804,0.8804,0.8804,0.8752,0.8626,0.8626,0.833,0.7576,0.7376,0.6773,0.5428,0.4805,0.4519,0.4519,0.4519,0.4519,0.4519,0.4519,0.4463,0.446,0.4492,0.4122,0.3332,0.4119,0.4064,0.3274,0.3161,0.2728,0.1961,0.1233,0.0561,0.0,0.0,0.0,0.0,0.0,0.0,0.0,0.0,0.0,0.0,0.0,0.0,0.0,0.0,0.0,0.0,0.0,0.0,0.0,0.0,0.0,0.0,0.0,0.0,0.0,0.0,0.0,0.0,0.0,0.0,0.0,0.0,0.0,0.0,0.0,0.0,0.0,0.0,0.0,0.0,0.0,0.0,0.0,0.0,0.0,0.0,0.0,0.0,0.0,0.0,0.0,0.0,0.0,0.0,0.0,0.0,0.0738,0.1061,0.0886,0.1789,0.2521,0.3171,0.3815,0.427,0.4574,0.4405,0.4064,0.35,0.3274,0.2449,0.1287,0.1177,0.0673,0.0,0.0112,0.0505,0.1009,0.1737,0.2458,0.2837,1.0941,1.0279,0.9595,0.8923,0.8804,0.8804,0.8804,0.8804,0.8567,0.7923,0.7864,0.7571,0.6823,0.6176,0.547,0.4688,0.4574,0.4519,0.4519,0.4519,0.4519,0.4519,0.4519,0.4405,0.4233,0.4385,0.4436,0.4291,0.446,0.4064,0.3274,0.2658,0.1937,0.1218,0.0503,0.0112,0.0,0.0,0.0,0.0,0.0,0.0,0.0,0.0,0.0,0.0,0.0,0.0,0.0,0.0,0.0,0.0,0.0,0.0,0.0,0.0,0.0,0.0,0.0,0.0,0.0,0.0,0.0,0.0,0.0,0.0,0.0,0.0,0.0,0.0,0.0,0.0,0.0,0.0,0.0,0.0,0.0,0.0,0.0,0.0,0.0,0.0,0.0,0.0,0.0,0.0,0.0,0.0,0.0,0.0,0.0,0.0,0.0714,0.0784,0.0168,0.1514,0.1965,0.1458,0.2174,0.3333,0.4805,0.4064,0.4009,0.4405,0.2994,0.227,0.1997,0.1342,0.0673,0.0056,0.0729,0.0617,0.0224,0.0999,0.1335,0.14,1.0293,0.9715,0.9169,0.8864,0.8804,0.8804,0.8804,0.8448,0.8094,0.7747,0.7331,0.682,0.6072,0.534,0.4805,0.4519,0.4519,0.4519,0.4519,0.4519,0.4519,0.4519,0.4519,0.4291,0.3782,0.4233,0.4291,0.3895,0.4291,0.4064,0.3274,0.3012,0.2233,0.1059,0.0784,0.0393,0.0,0.0,0.0,0.0,0.0,0.0,0.0,0.0,0.0,0.0,0.0,0.0,0.0,0.0,0.0,0.0,0.0,0.0,0.0,0.0,0.0,0.0,0.0,0.0,0.0,0.0,0.0,0.0,0.0,0.0,0.0,0.0,0.0,0.0,0.0,0.0,0.0,0.0,0.0,0.0,0.0,0.0,0.0,0.0,0.0,0.0,0.0,0.0,0.0,0.0,0.0,0.0,0.0,0.0,0.0,0.0,0.0321,0.0312,0.0,0.0624,0.1061,0.1187,0.1573,0.228,0.3395,0.302,0.2979,0.3246,0.2498,0.1991,0.1549,0.1229,0.0673,0.0056,0.0336,0.0561,0.0673,0.1004,0.1118,0.1066]},{"header":{"parameterUnit":"m.s-1","parameterCategory":1,"la1":30.6,"la2":28.766,"lo1":-90.7593,"lo2":-88.6598,"dy":0.0162,"dx":0.0183,"nx":116,"ny":114,"refTime":"2023-10-04T12:00:00:Z","depth":0,"parameterNumber":3,"parameterNumberName":"V-component_of_WINDS"},"data":[0.0,0.0,0.0,0.0,0.0,0.0,0.0,0.0,0.0,0.0,0.0,0.0,0.0,0.0,0.0,0.0,0.0,0.0,0.0,0.0,0.0,0.0,0.0,0.0,0.0,0.0,0.0,0.0,0.0,0.0,0.0,0.0,0.0,0.0,0.0,0.0,0.0,0.0,0.0,0.0,0.0,0.0,0.0,0.0,0.0,0.0,0.0,0.0,0.0,0.0,0.0,0.0,0.0,0.0,0.0,0.0,0.0,0.0,0.0,0.0,0.0,0.0,0.0,0.0,0.0,0.0,0.0,0.0,0.0,0.0,0.0,0.0,0.0,0.0,0.0,0.0,0.0,0.0,0.0,0.0,0.0,0.0,0.0,0.0,0.0,0.0,0.0,0.0,0.0,0.0,0.0,0.0,0.0,0.0,0.0,0.0,0.0,0.0,0.0,0.0,0.0,0.0,0.0,0.0,0.0,0.0,0.0,0.0,0.0,0.0,0.0,0.0,0.0,0.0,0.0,0.0,0.0,0.0,0.0,0.0,0.0,0.0,0.0,0.0,0.0,0.0,0.0,0.0,0.0,0.0,0.0,0.0,0.0,0.0,0.0,0.0,0.0,0.0,0.0,0.0,0.0,0.0,0.0,0.0,0.0,0.0,0.0,0.0,0.0,0.0,0.0,0.0,0.0,0.0,0.0,0.0,0.0,0.0,0.0,0.0,0.0,0.0,0.0,0.0,0.0,0.0,0.0,0.0,0.0,0.0,0.0,0.0,0.0,0.0,0.0,0.0,0.0,0.0,0.0,0.0,0.0,0.0,0.0,0.0,0.0,0.0,0.0,0.0,0.0,0.0,0.0,0.0,0.0,0.0,0.0,0.0,0.0,0.0,0.0,0.0,0.0,0.0,0.0,0.0,0.0,0.0,0.0,0.0,0.0,0.0,0.0,0.0,0.0,0.0,0.0,0.0,0.0,0.0,0.0,0.0,0.0,0.0,0.0,0.0,0.0,0.0,0.0,0.0,0.0,0.0,0.0,0.0,0.0,0.0,0.0,0.0,0.0,0.0,0.0,0.0,0.0,0.0,0.0,0.0,0.0,0.0,0.0,0.0,0.0,0.0,0.0,0.0,0.0,0.0,0.0,0.0,0.0,0.0,0.0,0.0,0.0,0.0,0.0,0.0,0.0,0.0,0.0,0.0,0.0,0.0,0.0,0.0,0.0,0.0,0.0,0.0,0.0,0.0,0.0,0.0,0.0,0.0,0.0,0.0,0.0,0.0,0.0,0.0,0.0,0.0,0.0,0.0,0.0,0.0,0.0,0.0,0.0,0.0,0.0,0.0,0.0,0.0,0.0,0.0,0.0,0.0,0.0,0.0,0.0,0.0,0.0,0.0,0.0,0.0,0.0,0.0,0.0,0.0,0.0,0.0,0.0,0.0,0.0,0.0,0.0,0.0,0.0,0.0,0.0,0.0,0.0,0.0,0.0,0.0,0.0,0.0,0.0,0.0,0.0,0.0,0.0,0.0,0.0,0.0,0.0,0.0,0.0,0.0,0.0,0.0,0.0,0.0,0.0,0.0,0.0,0.0,0.0,0.0,0.0,0.0,0.0,0.0,0.0,0.0,0.0,0.0,0.0,0.0,0.0,0.0,0.0,0.0,0.0,0.0,0.0,0.0,0.0,0.0,0.0,0.0,0.0,0.0,0.0,0.0,0.0,0.0,0.0,0.0,0.0,0.0,0.0,0.0,0.0,0.0,0.0,0.0,0.0,0.0,0.0,0.0,0.0,0.0,0.0,0.0,0.0,0.0,0.0,0.0,0.0,0.0,0.0,0.0,0.0,0.0,0.0,0.0,0.0,0.0,0.0,0.0,0.0,0.0,0.0,0.0,0.0,0.0,0.0,0.0,0.0,0.0,0.0,0.0,0.0,0.0,0.0,0.0,0.0,0.0,0.0,0.0,0.0,0.0,0.0,0.0,0.0,0.0,0.0,0.0,0.0,0.0,0.0,0.0,0.0,0.0,0.0,0.0,0.0,0.0,0.0,0.0,0.0,0.0,0.0,0.0,0.0,0.0,0.0,0.0,0.0,0.0,0.0,0.0,0.0,0.0,0.0,0.0,0.0,0.0,0.0,0.0,0.0,0.0,0.0,0.0,0.0,0.0,0.0,0.0,0.0,0.0,0.0,0.0,0.0,0.0,0.0,0.0,0.0,0.0,0.0,0.0,0.0,0.0,0.0,0.0,0.0,0.0,0.0,0.0,0.0,0.0,0.0,0.0,0.0,0.0,0.0,0.0,0.0,0.0,0.0,0.0,0.0,0.0,0.0,0.0,0.0,0.0,0.0,0.0,0.0,0.0,0.0,0.0,0.0,0.0,0.0,0.0,0.0,0.0,0.0,0.0,0.0,0.0,0.0,0.0,0.0,0.0,0.0,0.0,0.0,0.0,0.0,0.0,0.0,0.0,0.0,0.0,0.0,0.0,0.0,0.0,0.0,0.0,0.0,0.0,0.0,0.0,0.0,0.0,0.0,0.0,0.0,0.0,0.0,0.0,0.0,0.0,0.0,0.0,0.0,0.0,0.0,0.0,0.0,0.0,0.0,0.0,0.0,0.0,0.0,0.0,0.0,0.0,0.0,0.0,0.0,0.0,0.0,0.0,0.0,0.0,0.0,0.0,0.0,0.0,0.0,0.0,0.0,0.0,0.0,0.0,0.0,0.0,0.0,0.0,0.0,0.0,0.0,0.0,0.0,0.0,0.0,0.0,0.0,0.0,0.0,0.0,0.0,0.0,0.0,0.0,0.0,0.0,0.0,0.0,0.0,0.0,0.0,0.0,0.0,0.0,0.0,0.0,0.0,0.0,0.0,0.0,0.0,0.0,0.0,0.0,0.0,0.0,0.0,0.0,0.0,0.0,0.0,0.0,0.0,0.0,0.0,0.0,0.0,0.0,0.0,0.0,0.0,0.0,0.0,0.0,0.0,0.0,0.0,0.0,0.0,0.0,0.0,0.0,0.0,0.0,0.0,0.0,0.0,0.0,0.0,0.0,0.0,0.0,0.0,0.0,0.0,0.0,0.0,0.0,0.0,0.0,0.0,0.0,0.0,0.0,0.0,0.0,0.0,0.0,0.0,0.0,0.0,0.0,0.0,0.0,0.0,0.0,0.0,0.0,0.0,0.0,0.0,0.0,0.0,0.0,0.0,0.0,0.0,0.0,0.0,0.0,0.0,0.0,0.0,0.0,0.0,0.0,0.0,0.0,0.0,0.0,0.0,0.0,0.0,0.0,0.0,0.0,0.0,0.0,0.0,0.0,0.0,0.0,0.0,0.0,0.0,0.0,0.0,0.0,0.0,0.0,0.0,0.0,0.0,0.0,0.0,0.0,0.0,0.0,0.0,0.0,0.0,0.0,0.0,0.0,0.0,0.0,0.0,0.0,0.0,0.0,0.0,0.0,0.0,0.0,0.0,0.0,0.0,0.0,0.0,0.0,0.0,0.0,0.0,0.0,0.0,0.0,0.0,0.0,0.0,0.0,0.0,0.0,0.0,0.0,0.0,0.0,0.0,0.0,0.0,0.0,0.0,0.0,0.0,0.0,0.0,0.0,0.0,0.0,0.0,0.0,0.0,0.0,0.0,0.0,0.0,0.0,0.0,0.0,0.0,0.0,0.0,0.0,0.0,0.0,0.0,0.0,0.0,0.0,0.0,0.0,0.0,0.0,0.0,0.0,0.0,0.0,0.0,0.0,0.0,0.0,0.0,0.0,0.0,0.0,0.0,0.0,0.0,0.0,0.0,0.0,0.0,0.0,0.0,0.0,0.0,0.0,0.0,0.0,0.0,0.0,0.0,0.0,0.0,0.0,0.0,0.0,0.0,0.0,0.0,0.0,0.0,0.0,0.0,0.0,0.0,0.0,0.0,0.0,0.0,0.0,0.0,0.0,0.0,0.0,0.0,0.0,0.0,0.0,0.0,0.0,0.0,0.0,0.0,0.0,0.0,0.0,0.0,0.0,0.0,0.0,0.0,0.0,0.0,0.0,0.0,0.0,0.0,0.0,0.0,0.0,0.0,0.0,0.0,0.0,0.0,0.0,0.0,0.0,0.0,0.0,0.0,0.0,0.0,0.0,0.0,0.0,0.0,0.0,0.0,0.0,0.0,0.0,0.0,0.0,0.0,0.0,0.0,0.0,0.0,0.0,0.0,0.0,0.0,0.0,0.0,0.0,0.0,0.0,0.0,0.0,0.0,0.0,0.0,0.0,0.0,0.0,0.0,0.0,0.0,0.0,0.0,0.0,0.0,0.0,0.0,0.0,0.0,0.0,0.0,0.0,0.0,0.0,0.0,0.0,0.0,0.0,0.0,0.0,0.0,0.0,0.0,0.0,0.0,0.0,0.0,0.0,0.0,0.0,0.0,0.0,0.0,0.0,0.0,0.0,0.0,0.0,0.0,0.0,0.0,0.0,0.0,0.0,0.0,0.0,0.0,0.0,0.0,0.0,0.0,0.0,0.0,0.0,0.0,0.0,0.0,0.0,0.0,0.0,0.0,0.0,0.0,0.0,0.0,0.0,0.0,0.0,0.0,0.0,0.0,0.0,0.0,0.0,0.0,0.0,0.0,0.0,0.0,0.0,0.0,0.0,0.0,0.0,0.0,0.0,0.0,0.0,0.0,0.0,0.0,0.0,0.0,0.0,0.0,0.0,0.0,0.0,0.0,0.0,0.0,0.0,0.0,0.0,0.0,0.0,0.0,0.0,0.0,0.0,0.0,0.0,0.0,0.0,0.0,0.0,0.0,0.0,0.0,0.0,0.0,0.0,0.0,0.0,0.0,0.0,0.0,0.0,0.0,0.0,0.0,0.0,0.0,0.0,0.0,0.0,0.0,0.0,0.0,0.0,0.0,0.0,0.0,0.0,0.0,0.0,0.0,0.0,0.0,0.0,0.0,0.0,0.0,0.0,0.0,0.0,0.0,0.0,0.0,0.0,0.0,0.0,0.0,0.0,0.0,0.0,0.0,0.0,0.0,0.0,0.0,0.0,0.0,0.0,0.0,0.0,0.0,0.0,0.0,0.0,0.0,0.0,0.0,0.0,0.0,0.0,0.0,0.0,0.0,0.0,0.0,0.0,0.0,0.0,0.0,0.0,0.0,0.0,0.0,0.0,0.0,0.0,0.0,0.0,0.0,0.0,0.0,0.0,0.0,0.0,0.0,0.0,0.0,0.0,0.0,0.0,0.0,0.0,0.0,0.0,0.0,0.0,0.0,0.0,0.0,0.0,0.0,0.0,0.0,0.0,0.0,0.0,0.0,0.0,0.0,0.0,0.0,0.0,0.0,0.0,0.0,0.0,0.0,0.0,0.0,0.0,0.0,0.0,0.0,0.0,0.0,0.0,0.0,0.0,0.0,0.0,0.0,0.0,0.0,0.0,0.0,0.0,0.0,0.0,0.0,0.0,0.0,0.0,0.0,0.0,0.0,0.0,0.0,0.0,0.0,0.0,0.0,0.0,0.0,0.0,0.0,0.0,0.0,0.0,0.0,0.0,0.0,0.0,0.0,0.0,0.0,0.0,0.0,0.0,0.0,0.0,0.0,0.0,0.0,0.0,0.0,0.0,0.0,0.0,0.0,0.0,0.0,0.0,0.0,0.0,0.0,0.0,0.0,0.0,0.0,0.0,0.0,0.0,0.0,0.0,0.0,0.0,0.0,0.0,0.0,0.0,0.0,0.0,0.0,0.0,0.0,0.0,0.0,0.0,0.0,0.0,0.0,0.0,0.0,0.0,0.0,0.0,0.0,0.0,0.0,0.0,0.0,0.0,0.0,0.0,0.0,0.0,0.0,0.0,0.0,0.0,0.0,0.0,0.0,0.0,0.0,0.0,0.0,0.0,0.0,0.0,0.0,0.0,0.0,0.0,0.0,0.0,0.0,0.0,0.0,0.0,0.0,0.0,0.0,0.0,0.0,0.0,0.0,0.0,0.0,0.0,0.0,0.0,0.0,0.0,0.0,0.0,0.0,0.0,0.0,0.0,0.0,0.0,0.0,0.0,0.0,0.0,0.0,0.0,0.0,0.0,0.0,0.0,0.0,0.0,0.0,0.0,0.0,0.0,0.0,0.0,-0.5219,-0.403,0.0,0.0,0.0,0.0,0.0,0.0,0.0,0.0,0.0,0.0,0.0,0.0,0.0,0.0,0.0,0.0,0.0,0.0,0.0,0.0,0.0,0.0,0.0,0.0,0.0,0.0,0.0,0.0,0.0,0.0,0.0,0.0,0.0,0.0,0.0,0.0,0.0,-0.531,-0.4657,-0.4393,-0.4445,-0.5018,-0.5297,-0.5284,0.0,0.0,0.0,0.0,0.0,0.0,0.0,0.0,0.0,0.0,0.0,0.0,0.0,0.0,0.0,0.0,0.0,0.0,0.0,0.0,0.0,0.0,0.0,0.0,0.0,0.0,0.0,0.0,0.0,0.0,0.0,0.0,0.0,0.0,0.0,0.0,0.0,0.0,0.0,0.0,0.0,0.0,0.0,0.0,0.0,0.0,0.0,0.0,0.0,0.0,0.0,0.0,0.0,0.0,0.0,0.0,0.0,0.0,0.0,0.0,0.0,0.0,0.0,0.0,0.0,0.0,0.0,0.0,0.0,0.0,-0.6102,-0.5324,0.0,0.0,0.0,0.0,0.0,0.0,0.0,0.0,0.0,0.0,0.0,0.0,0.0,0.0,0.0,0.0,0.0,0.0,0.0,0.0,0.0,0.0,0.0,-0.194,-0.2077,-0.2201,-0.2234,-0.2391,0.0,0.0,0.0,0.0,0.0,0.0,0.0,-0.4426,-0.5316,-0.53,-0.5505,-0.5207,-0.4454,-0.5439,-0.564,-0.5156,-0.5274,0.0,0.0,0.0,0.0,0.0,0.0,0.0,0.0,0.0,0.0,0.0,0.0,0.0,0.0,0.0,0.0,0.0,0.0,0.0,0.0,0.0,0.0,0.0,0.0,0.0,0.0,0.0,0.0,0.0,0.0,0.0,0.0,0.0,0.0,0.0,0.0,0.0,0.0,0.0,0.0,0.0,0.0,0.0,0.0,0.0,0.0,0.0,0.0,0.0,0.0,0.0,0.0,0.0,0.0,0.0,0.0,0.0,0.0,0.0,0.0,0.0,0.0,0.0,-0.6963,-0.7019,-0.6492,-0.6844,-0.6974,-0.6987,-0.7228,-0.7052,-0.6533,-0.6044,0.0,0.0,0.0,0.0,0.0,0.0,0.0,0.0,0.0,0.0,0.0,0.0,0.0,0.0,0.0,0.0,0.0,0.0,0.0,0.0,0.0,-0.2035,-0.2187,-0.2207,-0.2354,-0.2527,-0.2702,0.0,0.0,0.0,0.0,0.0,-0.271,-0.44,-0.5294,-0.5297,-0.6284,-0.7246,-0.8085,-0.826,-0.6997,-0.4633,-0.5084,-0.5282,-0.5289,0.0,0.0,0.0,0.0,0.0,0.0,0.0,0.0,0.0,0.0,0.0,0.0,0.0,0.0,0.0,0.0,0.0,0.0,0.0,0.0,0.0,0.0,0.0,0.0,0.0,0.0,0.0,0.0,0.0,0.0,0.0,0.0,0.0,0.0,0.0,0.0,0.0,0.0,0.0,0.0,0.0,-0.4969,-0.5988,0.0,0.0,0.0,0.0,0.0,0.0,0.0,0.0,0.0,0.0,0.0,0.0,0.0,-0.4416,-0.6317,-0.6934,-0.7377,-0.7649,-0.8254,-0.8234,-0.7676,-0.8234,-0.8517,-0.8517,-0.8557,0.0,-0.6507,-0.6486,0.0,0.0,0.0,0.0,0.0,0.0,0.0,0.0,0.0,0.0,0.0,0.0,0.0,0.0,0.0,0.0,0.0,0.0,0.0,0.0,0.0,-0.2333,-0.2583,-0.2583,-0.2825,-0.2947,-0.293,-0.2685,0.0,0.0,0.0,-0.2697,-0.2686,-0.4405,-0.5622,-0.6247,-0.5832,-0.5877,-0.6404,-0.6406,-0.5702,-0.4606,-0.6441,-0.6385,-0.4833,-0.4499,0.0,0.0,0.0,0.0,0.0,0.0,0.0,0.0,0.0,0.0,0.0,0.0,0.0,0.0,0.0,0.0,0.0,0.0,0.0,0.0,0.0,0.0,0.0,0.0,0.0,0.0,0.0,0.0,0.0,0.0,0.0,0.0,0.0,0.0,0.0,0.0,0.0,0.0,0.0,-0.5792,-0.5902,-0.6896,-0.766,-0.7378,0.0,0.0,0.0,0.0,0.0,0.0,0.0,0.0,0.0,-0.6471,-0.68,-0.7241,-0.7769,-0.827,-0.8484,-0.843,-0.9018,-0.9165,-0.8925,-1.0139,-1.0647,-1.0592,-0.9681,-0.8717,-0.7756,-0.734,-0.7688,-0.8406,0.0,0.0,0.0,0.0,-0.5379,-0.5719,0.0,0.0,0.0,0.0,0.0,0.0,0.0,0.0,0.0,0.0,0.0,0.0,-0.2043,-0.2605,-0.2964,-0.2964,-0.3125,-0.3185,-0.3076,-0.2788,-0.2654,-0.2654,-0.2641,-0.2637,-0.2697,-0.3808,-0.5063,-0.635,-0.5125,-0.4491,-0.4483,-0.452,-0.4474,-0.458,-0.6754,-0.6494,-0.4455,-0.4017,-0.476,-0.6228,0.0,0.0,0.0,0.0,0.0,0.0,0.0,0.0,0.0,0.0,0.0,0.0,0.0,0.0,0.0,0.0,0.0,0.0,0.0,0.0,0.0,0.0,0.0,0.0,0.0,0.0,0.0,0.0,0.0,0.0,0.0,0.0,0.0,0.0,0.0,0.0,0.0,-0.5679,-0.6166,-0.8119,-0.9286,-0.8822,0.0,0.0,0.0,0.0,0.0,0.0,-0.7022,-0.6996,-0.7049,-0.7204,-0.851,-0.9145,-0.8958,-0.9586,-0.9539,-0.8818,-1.0384,-1.1163,-1.1221,-1.2428,-1.2484,-1.1634,-1.0425,-0.9876,-0.9776,-0.896,-0.8882,-0.92,-0.8123,-0.7455,-0.7017,-0.6353,-0.6274,-0.6527,0.0,0.0,0.0,0.0,0.0,0.0,0.0,0.0,0.0,0.0,0.0,-0.2197,-0.2197,-0.272,-0.3072,-0.3072,-0.3085,-0.3069,-0.2927,-0.2664,-0.2496,-0.2496,-0.2455,-0.251,-0.2707,-0.2226,-0.2839,-0.4638,-0.4556,-0.4474,-0.4508,-0.4494,-0.4498,-0.4522,-0.4673,-0.4646,-0.4517,-0.4454,-0.6071,-0.8445,-0.6269,0.0,0.0,0.0,0.0,0.0,0.0,0.0,0.0,0.0,0.0,0.0,0.0,0.0,0.0,0.0,0.0,0.0,0.0,0.0,0.0,0.0,0.0,0.0,0.0,0.0,0.0,0.0,0.0,0.0,0.0,0.0,0.0,0.0,0.0,0.0,0.0,0.0,0.0,-0.96,-0.9417,0.0,0.0,0.0,0.0,-0.9365,-0.8644,-0.8457,-0.9185,-0.8624,-0.853,-0.9024,-0.8346,-0.845,-0.9352,-1.0127,-0.994,-0.8871,-1.3063,-1.51,-1.5109,-1.5226,-1.3596,-1.064,-1.0577,-1.1349,-1.2618,-1.1688,-1.1082,-1.0596,-0.932,-0.8797,-0.8684,-0.7798,-0.7488,-0.7385,0.0,0.0,0.0,0.0,0.0,0.0,0.0,0.0,-0.1803,-0.1803,-0.2156,-0.2415,-0.2513,-0.3137,-0.3551,-0.3605,-0.3745,-0.3744,-0.3547,-0.3145,-0.2842,-0.2751,-0.2557,-0.2532,-0.2704,-0.3246,-0.3865,-0.4483,-0.4517,-0.4504,-0.4498,-0.4512,-0.4512,-0.4501,-0.4512,-0.4491,-0.4494,-0.4499,-0.6182,-0.8654,-0.7042,-0.5953,0.0,0.0,0.0,0.0,0.0,0.0,0.0,0.0,0.0,0.0,0.0,0.0,0.0,0.0,0.0,0.0,0.0,0.0,0.0,0.0,0.0,0.0,0.0,0.0,0.0,0.0,0.0,0.0,0.0,0.0,0.0,0.0,0.0,0.0,0.0,0.0,0.0,-1.4418,-1.211,0.0,-0.9795,-0.9129,-0.8754,-0.885,-0.9158,-0.9339,-0.9299,-0.9245,-0.9312,-0.9519,-0.9345,-0.9412,-0.9766,-1.0356,-1.089,-1.155,-1.4167,-1.541,-1.541,-1.541,-1.4746,-1.3717,-1.3717,-1.3996,-1.4502,-1.4162,-1.3558,-1.2755,-1.1183,-1.0332,-0.9849,-0.9255,-0.8976,-0.8827,0.0,0.0,0.0,0.0,0.0,0.0,0.0,0.0,-0.1823,-0.1852,-0.228,-0.262,-0.274,-0.3423,-0.3839,-0.3847,-0.3736,-0.3681,-0.3578,-0.3263,-0.2954,-0.2663,-0.261,-0.2698,-0.2994,-0.3586,-0.4108,-0.4481,-0.4485,-0.4522,-0.4519,-0.4519,-0.449,-0.4482,-0.4482,-0.4482,-0.4478,-0.4514,-0.5614,-0.7292,-0.6461,-0.6271,-0.6446,0.0,0.0,0.0,0.0,0.0,0.0,0.0,0.0,0.0,0.0,0.0,0.0,0.0,0.0,0.0,0.0,0.0,0.0,0.0,0.0,0.0,0.0,0.0,0.0,0.0,0.0,0.0,0.0,0.0,0.0,0.0,0.0,0.0,0.0,-0.8901,-1.1434,-1.6802,-1.3891,-1.1486,-1.1726,-1.0678,-0.9735,-0.9025,-0.9713,-1.0027,-0.9699,-0.9873,-0.998,-0.998,-1.0107,-1.0174,-1.0174,-1.049,-1.1421,-1.3009,-1.4454,-1.5336,-1.5703,-1.5703,-1.5762,-1.584,-1.5547,-1.541,-1.541,-1.541,-1.5078,-1.4337,-1.2392,-1.1312,-1.0754,-1.0166,-0.9911,-0.9658,0.0,0.0,0.0,0.0,0.0,0.0,-0.1803,-0.1803,-0.1854,-0.1977,-0.2398,-0.2737,-0.2886,-0.3488,-0.3852,-0.3752,-0.3128,-0.2791,-0.2888,-0.3008,-0.2827,-0.2254,-0.253,-0.2997,-0.3588,-0.3058,-0.3283,-0.4349,-0.4473,-0.4473,-0.4519,-0.4522,-0.4488,-0.451,-0.4516,-0.452,-0.452,-0.4516,-0.4511,-0.4525,-0.4485,-0.6162,-0.8442,0.0,0.0,0.0,0.0,0.0,0.0,0.0,0.0,0.0,0.0,0.0,0.0,0.0,0.0,0.0,0.0,0.0,0.0,0.0,0.0,0.0,0.0,0.0,0.0,0.0,0.0,0.0,0.0,0.0,0.0,0.0,0.0,0.0,-1.1458,-1.3798,-1.5584,-1.6267,-1.435,-1.2905,-1.2663,-1.1446,-1.0454,-1.0167,-1.0401,-1.0624,-1.0638,-1.0611,-1.0604,-1.0611,-1.0618,-1.0624,-1.0624,-1.0624,-1.1421,-1.3017,-1.4115,-1.5239,-1.626,-1.6279,-1.6445,-1.667,-1.5791,-1.541,-1.541,-1.543,-1.543,-1.5148,-1.2863,-1.1789,-1.1428,-1.0616,-1.009,-0.9703,0.0,0.0,0.0,0.0,0.0,0.0,-0.1798,-0.1803,-0.1782,-0.172,-0.2297,-0.273,-0.274,-0.3423,-0.3656,-0.3058,-0.333,-0.3417,-0.3017,-0.3047,-0.2964,-0.2703,-0.2898,-0.3193,-0.3604,-0.3855,-0.3071,-0.1223,-0.3408,-0.4487,-0.4477,-0.4472,-0.4484,-0.4526,-0.4935,-0.5171,-0.5118,-0.4673,-0.4499,-0.4516,-0.4511,-0.4972,-0.5637,0.0,0.0,0.0,0.0,0.0,0.0,0.0,0.0,0.0,0.0,0.0,0.0,0.0,0.0,0.0,0.0,0.0,0.0,0.0,0.0,0.0,0.0,0.0,0.0,0.0,0.0,0.0,0.0,0.0,0.0,0.0,-1.2249,-1.2464,-1.2509,-1.3488,-1.5015,-1.7293,-1.5103,-1.3651,-1.4098,-1.2174,-1.0842,-1.0762,-1.0635,-1.0648,-1.0862,-1.0267,-1.002,-1.0234,-1.0448,-1.0624,-1.0624,-1.0624,-1.16,-1.3606,-1.3874,-1.4611,-1.5664,-1.6094,-1.6328,-1.6377,-1.5703,-1.541,-1.5449,-1.5869,-1.5791,-1.5264,-1.4005,-1.3176,-1.2573,-1.1679,-1.0699,-0.9695,0.0,0.0,0.0,0.0,0.0,0.0,-0.1882,-0.1844,-0.1775,-0.1689,-0.2283,-0.2712,-0.2712,-0.3341,-0.3605,-0.3108,-0.3579,-0.3629,-0.3,-0.2875,-0.2866,-0.3066,-0.2992,-0.3138,-0.3593,-0.2965,-0.1729,-0.0,-0.1754,-0.2622,-0.262,-0.3898,-0.466,-0.4847,-0.3665,-0.4007,-0.5351,-0.5021,-0.4848,-0.4892,-0.4887,-0.4727,-0.452,-0.4832,-0.5385,-0.5992,-0.6298,-0.631,-0.6144,-0.6107,0.0,0.0,0.0,0.0,0.0,0.0,0.0,0.0,0.0,0.0,0.0,0.0,0.0,0.0,0.0,0.0,0.0,0.0,0.0,0.0,0.0,0.0,0.0,0.0,-1.3424,-1.3462,-1.4017,-1.477,-1.5775,-1.722,-1.5669,-1.4377,-1.4162,-1.2553,-1.1436,-1.1189,-1.1136,-1.1129,-1.1176,-1.0768,-1.0241,-0.9586,-1.0528,-1.0808,-1.0383,-1.0601,-1.1488,-1.2931,-1.3157,-1.3909,-1.5207,-1.5718,-1.6076,-1.626,-1.5859,-1.5586,-1.5439,-1.5781,-1.5615,-1.5041,0.0,0.0,0.0,0.0,-1.0712,-0.9761,0.0,0.0,0.0,0.0,0.0,0.0,-0.1991,-0.1892,-0.1823,-0.1806,-0.2321,-0.2688,-0.2688,-0.3217,-0.3581,-0.3554,-0.3694,-0.3526,-0.2907,-0.2568,-0.2594,-0.307,-0.2701,-0.2864,-0.3573,-0.1209,0.0,0.0,0.0,0.0,-0.0059,-0.2738,-0.4284,-0.4659,-0.1422,-0.1811,-0.4816,-0.5229,-0.5426,-0.5483,-0.5483,-0.514,-0.4628,-0.4611,-0.4584,-0.4712,-0.5731,-0.5824,-0.5458,-0.5382,0.0,0.0,0.0,0.0,0.0,0.0,0.0,0.0,0.0,0.0,0.0,0.0,0.0,0.0,0.0,0.0,0.0,0.0,0.0,0.0,0.0,0.0,0.0,0.0,-1.4346,-1.3814,-1.5425,-1.664,-1.7128,-1.6524,-1.5965,-1.4953,-1.3512,-1.269,-1.2037,-1.1516,-1.169,-1.1717,-1.149,-1.155,0.0,0.0,0.0,-1.1069,-1.0,-1.0661,-1.1281,-1.1772,-1.2142,-1.3171,-1.4692,-1.516,-1.5585,-1.6059,-1.6103,-1.5811,-1.542,-1.5469,-1.5176,-1.4651,-1.3801,-1.3248,-1.2744,-1.1175,-1.025,-0.9806,0.0,0.0,0.0,0.0,0.0,0.0,-0.2025,-0.1984,-0.1923,-0.182,-0.2228,-0.2527,-0.2527,-0.3043,-0.3354,-0.334,-0.3083,-0.2879,-0.273,-0.2414,-0.2091,-0.1721,-0.1391,-0.1973,-0.3584,-0.1212,0.0,0.0,0.0,0.0,-0.0,-0.0619,-0.0957,-0.1031,-0.0336,-0.0411,-0.1238,-0.4184,-0.5681,-0.6111,-0.6111,-0.5738,-0.5219,-0.523,-0.5255,-0.5282,-0.5498,-0.5895,-0.6511,-0.7647,-0.6307,-0.4138,-0.4253,-0.4431,0.0,0.0,0.0,0.0,0.0,0.0,0.0,0.0,0.0,0.0,0.0,0.0,0.0,0.0,0.0,0.0,0.0,0.0,0.0,-1.6424,-1.629,-1.5441,-1.5438,-1.628,-1.6547,-1.5869,-1.4824,-1.4,-1.3663,-1.2627,-1.1904,-1.179,-1.1617,-1.159,-1.177,-1.1149,-1.0715,-1.0575,-1.0708,-1.0561,-1.0094,-1.0688,-1.1281,-1.1834,-1.1902,0.0,-1.3422,-1.41,-1.4532,-1.4685,-1.5677,-1.5811,-1.5439,-1.5791,-1.5273,-1.4121,-1.3127,-1.2418,-1.1849,-0.9979,-0.9505,-0.9636,0.0,0.0,0.0,0.0,0.0,0.0,-0.2097,-0.2033,-0.193,-0.1727,-0.2065,-0.24,-0.2476,-0.2794,-0.3035,-0.3175,-0.296,-0.2885,-0.3127,-0.2261,-0.1963,-0.2435,-0.1146,-0.0878,-0.1804,-0.0612,0.0,0.0,0.0,0.0,0.0,0.0,0.0983,0.2632,0.0808,0.0,-0.014,-0.1936,-0.4104,-0.6271,-0.6264,-0.6084,-0.5835,-0.5818,-0.5855,-0.5809,-0.5639,-0.5754,-0.6077,-0.6658,-0.5789,-0.4458,-0.4124,-0.4058,-0.406,0.0,0.0,0.0,0.0,0.0,0.0,0.0,0.0,0.0,0.0,0.0,0.0,0.0,0.0,-1.1597,-1.1573,0.0,-1.1346,-1.5386,-1.5496,-1.5091,-1.5219,-1.5162,-1.5121,-1.4906,-1.453,-1.3955,-1.3053,-1.2456,-1.2084,-1.2084,-1.1951,-1.1864,-1.187,-1.159,-1.1229,-1.0788,-1.1062,-1.0862,-1.0127,-1.0701,-1.1281,-1.1834,-1.1834,-1.2443,-1.3606,-1.4025,-1.4451,-1.4824,-1.5457,-1.5369,-1.4805,-1.4815,-1.4218,-1.3164,-1.2351,-1.1713,-1.1165,-1.0213,-0.963,-0.9162,0.0,0.0,0.0,0.0,0.0,0.0,0.0,-0.2107,-0.196,-0.171,-0.197,-0.2221,-0.2424,-0.2551,-0.2679,-0.2886,-0.2852,-0.3015,-0.3506,-0.2404,-0.2061,-0.2872,-0.1286,-0.0272,-0.0,0.0,0.0,0.0,0.0,0.0,0.0,0.0732,0.2637,0.5302,0.232,0.104,0.0992,0.0291,-0.1939,-0.5126,-0.6005,-0.6285,-0.6325,-0.6264,-0.6317,-0.6295,-0.6014,-0.5659,-0.5377,-0.5112,-0.4834,-0.4683,-0.4671,-0.4611,-0.4431,-0.3913,-0.3627,0.0,0.0,0.0,0.0,0.0,0.0,0.0,0.0,-0.8044,-0.8337,-1.174,-1.2609,-1.328,-1.4871,-1.378,-1.2841,-1.334,-1.3807,-1.4321,-1.4845,-1.4151,-1.3675,-1.3961,-1.4278,-1.3892,-1.2506,-1.2338,-1.2305,-1.2305,-1.2305,-1.2204,-1.1964,-1.2124,-1.179,-1.0907,-1.1443,-1.1364,-1.0534,-1.1006,-1.1468,-1.2012,-1.1896,-1.2504,-1.3717,-1.3717,-1.4085,-1.4737,-1.505,-1.4805,-1.4186,-1.387,-1.3136,-1.2249,-1.1633,-1.0975,-1.0399,-1.0246,-0.9496,-0.848,0.0,0.0,0.0,0.0,0.0,0.0,0.0,0.0,-0.2127,-0.1984,-0.2004,-0.2067,-0.2217,-0.2248,-0.2217,-0.2143,-0.239,-0.278,-0.3294,-0.3239,-0.2359,-0.0474,-0.142,-0.1335,-0.0056,0.0,0.0,0.0,0.0,0.0,0.0064,0.3271,0.5038,0.5395,0.4997,0.4809,0.46,0.1386,-0.0312,-0.1014,-0.4797,-0.6305,-0.6335,-0.6321,-0.6331,-0.6308,-0.6231,-0.5898,-0.5363,-0.5359,-0.5323,-0.529,-0.5325,-0.4934,-0.4478,-0.4403,-0.3628,-0.2896,-0.3468,-0.6052,-0.8574,-0.8456,-0.8411,-0.8482,0.0,-0.8705,-0.9051,-1.0524,-1.1689,-1.2728,-1.3987,-1.4088,-1.3271,-1.1335,-1.2751,-1.4122,-1.4189,-1.389,-1.352,-1.3351,-1.3172,-1.2919,-1.2782,-1.2458,-1.2305,-1.2305,-1.2305,-1.2285,-1.2258,-1.2037,-1.1857,-1.173,-1.1563,-1.1613,-1.1961,-1.2027,-1.2348,-1.2887,-1.2143,-1.1888,-1.2074,-1.2074,-1.2135,-1.2251,-1.3717,-1.4273,-1.4204,-1.4159,-1.3255,-1.1888,-1.1152,-1.0075,-0.8842,-0.8283,-0.7931,-0.7723,0.0,0.0,0.0,0.0,0.0,0.0,0.0,0.0,0.0,-0.1909,-0.1876,-0.1894,-0.1959,-0.2097,-0.215,-0.2025,-0.2123,-0.2568,-0.3416,-0.3715,-0.3488,-0.2663,-0.2327,-0.1506,-0.0056,0.0,0.0,0.0,0.0,0.0,0.0066,0.3722,0.4277,0.2368,0.4805,0.4567,0.2189,0.0611,0.0,-0.0157,-0.1961,-0.3891,-0.5831,-0.6141,-0.6071,-0.5821,-0.6169,-0.5666,0.0,-0.5273,-0.5185,-0.4867,-0.4862,-0.4683,-0.4483,-0.45,-0.4127,-0.3658,-0.318,-0.4124,-0.549,-0.6497,-0.7805,-0.9176,-1.0534,-1.1404,-1.1995,-1.2522,-1.3008,-1.3509,-1.3974,-1.4066,-1.3753,-1.2794,-1.3196,-1.3615,-1.3781,-1.342,-1.3013,-1.2719,-1.2118,-1.179,-1.1964,-1.2017,-1.1977,-1.1804,-1.2111,-1.2231,-1.2058,-1.1937,-1.171,-1.1369,-1.1243,-1.1227,-1.1298,-1.1298,-1.16,-1.2328,-1.195,-1.2081,-1.2512,-1.2992,-1.3297,-1.3561,-1.3345,-1.3089,-1.2817,-1.2414,-1.1364,-1.0008,-0.9967,-0.9081,-0.7735,-0.7687,-0.7379,-0.6966,0.0,0.0,0.0,0.0,0.0,0.0,0.0,0.0,0.0,0.0,-0.183,-0.1793,-0.1798,-0.1979,-0.2043,-0.1957,-0.2025,-0.2434,-0.3353,-0.3746,-0.4108,-0.4457,-0.3421,-0.2323,-0.1284,-0.04,0.0,0.0,0.0,0.0,0.0066,0.2696,0.3016,0.16,0.4838,0.3944,0.0,0.0,0.0,0.0,0.0,-0.2132,-0.5475,-0.5902,-0.5666,-0.5192,-0.5651,-0.493,-0.3801,-0.4281,-0.4359,-0.426,-0.4268,-0.4257,-0.424,-0.4263,-0.4141,-0.3805,-0.2927,-0.3055,-0.3935,-0.6211,-0.8521,-1.0698,-1.2382,-1.3498,-1.4219,-1.4498,-1.4359,-1.409,-1.4095,-1.3815,-1.3593,-1.3572,-1.3326,-1.3196,-1.3373,-1.2999,-1.2452,-1.1847,-1.1095,-1.0551,-1.0384,-1.1149,-1.1603,-1.155,-1.2017,-1.2211,-1.1997,-1.1837,-1.155,-1.1129,-1.0955,-1.1026,-1.1233,-1.1233,-1.1779,-1.2801,-1.2557,-1.2634,-1.3009,-1.3122,-1.3457,-1.3789,-1.2697,-1.1896,-1.1263,-1.0827,-0.9643,-0.819,-0.8365,-0.775,-0.6758,-0.6727,-0.6622,-0.6327,0.0,0.0,0.0,0.0,0.0,0.0,0.0,0.0,0.0,0.0,0.0,0.0,0.0,-0.1816,-0.1816,-0.1809,-0.2033,-0.2398,-0.2893,-0.3191,-0.3674,-0.4463,-0.4439,-0.4402,-0.4379,-0.1509,0.0,0.0,0.0,0.0,0.0,0.0137,0.1961,0.5278,0.5959,0.3944,0.0,0.0,0.0,0.0,0.0,-0.2204,-0.5378,-0.5414,-0.5074,-0.4525,-0.457,-0.3428,-0.1871,-0.1882,-0.2676,-0.3623,-0.3615,-0.361,-0.3639,-0.3639,-0.3212,-0.2757,-0.2729,-0.3955,-0.6046,-0.9551,-1.2174,-1.3973,-1.4007,-1.4058,-1.44,-1.5481,-1.4844,-1.4116,-1.4092,-1.3134,-1.2327,-1.2389,-1.2661,-1.2936,-1.2949,-1.2609,-1.1847,-1.052,-1.0008,-0.921,-0.7941,-0.9753,-1.1256,-1.1817,-1.2131,-1.2298,-1.2285,-1.1744,-1.143,-1.1416,-1.0868,-1.1365,-1.2887,-1.2948,-1.3726,-1.5294,-1.451,-1.3726,-1.2948,-1.1421,-1.0932,-1.139,-1.1331,-1.0777,-0.9886,-0.9829,-0.8763,-0.71,-0.6392,-0.6061,-0.5808,-0.4919,-0.5136,-0.58,0.0,0.0,0.0,0.0,0.0,0.0,0.0,0.0,0.0,0.0,0.0,0.0,0.0,0.0,0.0,0.0,-0.1791,-0.205,-0.2603,-0.2795,-0.3217,-0.3882,-0.4148,-0.434,-0.4509,-0.3506,-0.2029,0.0,0.0,0.0,0.0,0.0,0.065,0.1919,0.456,0.3609,0.0,0.0,0.0,0.0,0.0,-0.0733,-0.2026,-0.4058,-0.4919,-0.5109,0.0,-0.4645,-0.4017,-0.3213,-0.2978,-0.3065,-0.3465,-0.3603,-0.3531,-0.3099,-0.2862,-0.2682,-0.2699,-0.6245,-0.9663,-0.8544,-0.8881,-0.9419,-0.9464,-0.9482,-1.0459,-1.3953,-1.4345,-1.3881,-1.3031,-1.0017,-0.8652,-1.1785,-1.0881,-1.0504,-1.2533,-1.1028,-0.9743,-0.9868,-0.8543,-0.7846,-0.8374,-0.9451,-1.0287,-1.0675,-1.1516,-1.1801,-1.1304,-1.1566,-1.1338,-1.0447,-1.1213,-1.187,-1.2205,-1.2757,-1.3243,-1.3786,-1.2992,-1.2749,-1.3009,-1.2458,-1.2552,-1.3101,-1.1696,-1.0647,-0.984,-0.8711,-0.7544,-0.6478,-0.6417,-0.5823,-0.4702,-0.2393,-0.1721,-0.1941,0.0,0.0,0.0,0.0,0.0,0.0,0.0,0.0,0.0,0.0,0.0,0.0,0.0,0.0,0.0,0.0,0.0,-0.1878,-0.2373,-0.2469,-0.2768,-0.3317,-0.3615,-0.3893,-0.4193,-0.4312,-0.3439,-0.1499,-0.0506,0.0,0.0,0.0,0.0,0.0121,0.2428,0.2893,0.1848,0.0527,0.0,0.0,0.0,0.0,-0.0322,-0.3119,-0.4025,0.0,-0.4242,-0.4781,-0.5176,-0.4417,-0.3925,-0.3689,-0.4077,-0.4213,-0.4117,-0.3758,-0.3187,-0.2871,-0.3745,-0.7159,-0.9933,-0.7626,-0.7137,-0.7083,-0.71,-0.7114,-0.7942,-1.0993,-1.2241,-1.2061,-0.9637,-0.655,-0.5686,-0.9765,-0.9301,-0.9169,-1.1414,-1.0077,-0.8801,-0.8717,-0.7537,-0.6982,-0.76,-0.867,-0.9549,-1.004,-1.1102,-1.1455,-1.0879,-1.13,-1.1233,-1.0441,-1.1308,-1.1789,-1.1772,-1.2573,-1.3312,-1.3846,-1.2419,-1.2051,-1.2541,-1.1943,-1.174,-1.1843,-1.0913,-0.9875,-0.8758,-0.7782,-0.6368,-0.4766,-0.496,-0.3843,-0.1943,-0.05,0.0667,0.1554,0.0,0.0,0.0,0.0,0.0,0.0,0.0,0.0,0.0,0.0,0.0,0.0,0.0,0.0,0.0,0.0,0.0,0.0,-0.2167,-0.2201,-0.2398,-0.2856,-0.2896,-0.3155,-0.3601,-0.3975,-0.42,-0.4172,-0.1485,-0.0149,-0.005,-0.0,-0.0,-0.0,-0.0054,0.186,0.4857,0.1567,0.0112,0.0,0.0,0.0,-0.0248,-0.2604,-0.2455,-0.1149,-0.238,-0.3904,-0.5291,-0.5224,-0.5267,-0.5292,-0.53,-0.5343,-0.5366,-0.5208,-0.4042,-0.336,-0.5701,-0.6712,-0.71,-0.7123,-0.7073,-0.71,-0.7076,-0.7051,-0.7058,-0.7007,-0.8759,-0.8892,-0.4284,-0.3102,-0.3765,-0.6524,-0.7909,-0.8961,-0.974,-0.9564,-0.8721,-0.7104,-0.7044,-0.6789,-0.5851,-0.7598,-0.9154,-1.0106,-1.0962,-1.1336,-1.1002,-1.1056,-1.1176,-1.1368,-1.1229,-1.1381,-1.1879,-1.2674,-1.3803,-1.5225,-1.2866,-1.169,-1.1628,-1.0129,-0.8973,-0.8191,-0.9272,-0.867,-0.6963,-0.7171,-0.5301,-0.23,-0.1845,0.0055,0.2373,0.0887,0.2216,0.4443,0.0,0.0,0.0,0.0,0.0,0.0,0.0,0.0,0.0,0.0,0.0,0.0,0.0,0.0,0.0,0.0,0.0,0.0,-0.1892,-0.2087,-0.2371,-0.2745,-0.3052,-0.3377,-0.3746,-0.3953,-0.3882,-0.3523,-0.2815,-0.1842,-0.0671,-0.021,-0.0125,-0.0327,-0.0572,-0.0179,0.0752,0.1641,0.1234,0.0,0.0,0.0,-0.0148,-0.168,-0.2255,-0.2443,-0.4047,-0.4927,-0.5169,-0.425,-0.4562,-0.531,-0.5282,-0.5884,-0.6151,-0.3987,-0.3994,-0.4948,-0.5998,-0.667,-0.7112,-0.713,-0.7097,-0.7017,-0.6589,-0.6511,-0.6401,-0.5928,-0.5955,-0.5415,-0.3303,-0.3833,-0.5134,-0.6629,-0.6788,-0.7242,-0.875,-0.778,-0.6985,-0.7164,-0.7306,-0.7633,-0.826,-0.983,-1.0781,-1.077,-1.1383,-1.1527,-1.0852,-1.1526,-1.1533,-1.0669,-1.2248,-1.3247,-1.3477,-1.4104,-1.4136,-1.3606,-1.2366,-1.175,-1.175,-1.1329,-1.1192,-1.1199,-1.0422,-0.9616,-0.8681,-0.6245,-0.4972,-0.3854,0.321,0.6454,0.6999,0.59,0.5991,0.649,0.0,0.0,0.0,0.0,0.0,0.0,0.0,0.0,0.0,0.0,0.0,0.0,0.0,0.0,0.0,0.0,0.0,0.0,0.0,-0.2685,-0.2932,-0.3296,-0.3361,-0.3641,-0.4139,-0.4049,-0.3814,-0.3379,-0.3065,-0.2454,-0.1557,-0.104,-0.0718,-0.0647,-0.0937,-0.1143,-0.1212,0.0147,0.0438,0.0,0.0,-0.0309,-0.0863,-0.1533,-0.2011,-0.257,-0.4593,-0.4959,-0.4481,-0.4264,-0.504,-0.6151,-0.6649,-0.6422,-0.5632,-0.4264,-0.4406,-0.5235,-0.6379,-0.6842,-0.7107,-0.7107,-0.6915,-0.6678,-0.6392,-0.5454,-0.4728,-0.4619,-0.4155,-0.3494,-0.2826,-0.336,-0.4374,-0.5907,-0.5689,-0.576,-0.7186,-0.6602,-0.6201,-0.6585,-0.7216,-0.7955,-0.8829,-1.0561,-1.1508,-1.1348,-1.1801,-1.152,-1.029,-1.1015,-1.0919,-0.9746,-1.1,-1.2032,-1.2788,-1.3542,-1.3941,-1.3973,-1.2277,-1.1731,-1.2239,-1.0762,-1.0243,-1.0478,-1.0414,-0.962,-0.8138,-0.3887,-0.0952,0.1258,0.5312,0.7655,0.8719,0.8153,0.7741,0.7287,0.0,0.0,0.0,0.0,0.0,0.0,0.0,0.0,0.0,0.0,-0.2216,0.0,0.0,0.0,0.0,0.0,0.0,0.0,0.0,0.0,-0.3597,-0.4076,-0.375,-0.3905,-0.4622,-0.4287,-0.3924,-0.356,-0.2831,-0.2493,-0.249,-0.2029,-0.1541,-0.1111,-0.1272,-0.1557,-0.1841,-0.1823,-0.1208,-0.0243,-0.0229,-0.0855,-0.1789,0.0,-0.1808,-0.2098,-0.4277,-0.4375,-0.368,-0.4762,-0.6049,-0.738,-0.8192,-0.6749,-0.4826,-0.5384,-0.5193,-0.5177,-0.6662,-0.7073,-0.7125,-0.7086,-0.6671,-0.6288,-0.6202,-0.4388,-0.2834,-0.3382,-0.3067,-0.2739,-0.2787,-0.2558,-0.2978,-0.4787,-0.4702,-0.466,-0.5437,-0.5868,-0.6086,-0.6001,-0.7187,-0.8237,-0.8823,-1.0719,-1.184,-1.1709,-1.2068,-1.1535,-0.9857,-1.007,-0.9958,-0.9228,-0.9467,-1.0284,-1.1526,-1.2562,-1.3731,-1.5077,-1.2632,-1.1622,-1.1811,-0.897,-0.7653,-0.7685,-0.8505,-0.7705,-0.5384,-0.0298,0.4713,0.8945,0.6319,0.6895,0.9138,0.8805,0.8311,0.7697,0.0,0.0,0.0,0.0,0.0,0.0,0.0,0.0,0.0,0.0,-0.2393,-0.2275,0.0,0.0,0.0,0.0,0.0,0.0,0.0,0.0,0.0,-0.4053,-0.4043,-0.4287,-0.4921,-0.4646,-0.4294,-0.3923,-0.329,-0.2976,-0.2968,-0.2168,-0.1916,-0.2126,-0.1848,-0.1829,-0.2039,-0.1869,-0.1684,-0.1495,-0.1496,-0.1612,-0.1801,-0.1792,0.0,0.0,-0.3323,-0.367,-0.3674,-0.4868,-0.6699,-0.8282,-0.7099,-0.6415,-0.604,-0.6363,-0.6537,-0.6749,-0.7057,-0.7063,-0.7135,-0.7063,-0.6683,-0.6142,-0.5679,-0.4048,-0.2715,-0.2825,-0.2762,-0.2854,-0.3364,-0.3611,-0.3793,-0.3865,-0.4194,-0.4326,-0.4167,-0.4972,-0.5922,-0.689,-0.8291,-0.9836,-1.1438,-1.24,-1.2648,-1.1952,-1.2056,-1.1852,-1.1175,-1.018,-1.0073,-1.11,-1.3035,-1.4034,-1.3834,-1.4635,-1.4734,-1.4114,-1.3886,-1.1233,-0.6583,-0.603,-0.5789,-0.5535,-0.1562,0.0373,0.1071,0.4918,0.8345,1.1088,1.0214,1.0368,1.0837,0.9318,0.9181,0.9591,0.0,0.0,0.0,0.0,0.0,0.0,0.0,-0.2215,-0.2143,-0.2215,-0.2085,-0.1978,-0.2,-0.2319,-0.2605,0.0,0.0,0.0,0.0,0.0,0.0,0.0,-0.494,-0.5169,-0.5455,-0.5158,-0.4684,-0.3992,0.0,-0.3237,-0.3096,-0.281,-0.2667,-0.2651,-0.2463,-0.221,-0.1945,-0.1851,-0.1807,-0.1807,-0.1806,-0.1791,-0.1809,0.0,0.0,0.0,-0.2735,-0.3225,-0.349,-0.3475,-0.4227,-0.5649,-0.8532,-0.7986,-0.6192,-0.5667,-0.6296,-0.7133,-0.7133,-0.7059,-0.7142,-0.7102,-0.6684,-0.6054,-0.5119,-0.426,-0.3478,-0.2838,-0.2993,-0.324,-0.3162,-0.3263,-0.3427,-0.3566,-0.3748,-0.3925,-0.4137,-0.5169,-0.6298,-0.7302,-0.901,-1.0462,-1.1117,-1.1846,-1.1964,-1.1078,-1.0681,-1.0402,-1.0496,-0.9428,-0.9219,-0.9892,-1.1354,-1.2505,-1.3223,-1.1478,-1.0423,-0.9824,-0.6837,-0.4669,-0.3139,0.0,0.1445,0.1599,0.4099,0.6203,0.8066,1.1086,1.2304,1.2325,1.2482,1.2342,1.1882,1.063,1.0318,1.0569,0.0,0.0,0.0,0.0,0.0,0.0,0.0,-0.2163,-0.2026,-0.1958,-0.1705,-0.1601,-0.183,-0.2185,-0.2528,0.0,0.0,0.0,0.0,0.0,0.0,0.0,0.0,0.0,-0.5863,0.0,0.0,-0.4178,-0.3796,0.0,0.0,0.0,0.0,0.0,-0.2833,-0.2476,-0.2172,-0.2398,-0.2241,0.0,0.0,-0.1803,-0.1799,0.0,0.0,0.0,0.0,-0.2536,-0.2823,-0.2054,-0.1703,-0.2602,-0.8273,-0.812,-0.5675,-0.4945,-0.5728,-0.6883,-0.7057,-0.7063,-0.7083,-0.7082,-0.6597,-0.5801,-0.4763,-0.431,-0.3825,-0.2912,-0.3167,-0.3442,-0.3082,-0.2841,-0.2914,-0.3574,-0.3458,-0.3537,-0.423,-0.523,-0.6301,-0.7337,-0.9047,-1.0115,-1.0201,-1.0784,-1.0807,-1.0045,-0.8569,-0.8308,-0.9513,-0.8911,-0.8176,-0.7246,-0.8111,-0.9755,-1.2087,-0.6644,-0.2237,0.1112,0.3813,0.425,0.2691,0.7283,0.9652,1.021,1.0014,1.1502,1.4204,1.615,1.5606,1.3583,1.4192,1.3864,1.2902,1.1768,1.1302,1.1562,0.0,0.0,0.0,0.0,0.0,0.0,0.0,-0.2383,-0.2084,-0.1855,-0.1473,-0.1444,-0.2019,-0.2266,-0.2478,0.0,0.0,0.0,0.0,0.0,0.0,0.0,0.0,0.0,0.0,0.0,0.0,-0.4729,-0.4275,0.0,0.0,0.0,0.0,0.0,0.0,-0.2445,-0.3406,-0.4385,0.0,0.0,0.0,0.0,0.0,0.0,0.0,0.0,0.0,-0.109,-0.1211,-0.1646,-0.1423,-0.1189,-0.2402,-0.3408,-0.4371,-0.5337,-0.5698,-0.6039,-0.683,-0.7073,-0.7133,-0.7138,-0.6279,-0.5319,-0.4677,-0.3676,-0.2841,-0.2707,-0.2749,-0.3041,-0.3823,-0.3257,-0.2972,-0.3812,-0.3401,-0.3117,-0.3595,-0.4086,-0.5137,-0.7104,-0.7642,-0.8585,-1.0181,-1.0049,-0.9705,-0.9292,-0.6025,-0.5725,-0.9455,-0.9642,-0.7758,-0.3712,-0.5497,-0.8339,-1.2215,-0.159,1.079,2.4374,1.6517,1.355,1.5049,1.4778,1.6057,1.8359,1.7571,1.7455,1.784,1.8238,1.7289,1.5644,1.5693,1.5379,1.4545,1.185,1.1664,1.3323,0.0,0.0,0.0,0.0,0.0,0.0,-0.2019,-0.1878,-0.1555,-0.1299,-0.1015,-0.1078,-0.167,-0.1908,-0.2254,-0.2786,0.0,0.0,0.0,0.0,0.0,0.0,0.0,0.0,0.0,0.0,-0.5166,-0.4669,-0.4059,0.0,0.0,0.0,0.0,0.0,0.0,-0.4042,-0.4487,-0.4922,0.0,0.0,0.0,0.0,0.0,0.0,0.0,0.0,0.0,0.0,-0.0941,-0.1171,-0.1341,-0.145,-0.1477,-0.2029,-0.2838,-0.3633,-0.4426,-0.5036,-0.5434,-0.6294,-0.7069,-0.7118,-0.6277,-0.5165,-0.4183,-0.3285,-0.2651,-0.2431,-0.2405,-0.2542,-0.2994,-0.2881,-0.2805,-0.315,-0.3162,-0.3324,-0.388,-0.4641,-0.5779,-0.7534,-0.8432,-0.9464,-1.1067,-1.0534,-0.8723,-0.555,0.0897,0.7098,1.245,0.3288,-0.0454,0.3229,0.5,0.5065,0.3428,0.7923,1.6078,2.7546,2.255,2.0362,2.0617,1.9748,1.9739,2.0425,1.9759,1.8731,1.7712,1.9193,1.8537,1.6654,1.7707,1.7666,1.6802,1.4833,1.3599,1.3548,0.0,0.0,0.0,0.0,0.0,-0.0995,-0.1563,-0.1306,-0.1014,-0.0922,-0.0833,-0.0985,-0.1534,-0.1686,-0.204,-0.2778,-0.297,0.0,0.0,0.0,0.0,0.0,0.0,0.0,0.0,0.0,-0.5076,-0.46,-0.4174,-0.4012,0.0,0.0,-0.5105,-0.5078,0.0,0.0,0.0,0.0,0.0,0.0,0.0,0.0,0.0,0.0,0.0,0.0,0.0,0.0,0.0,0.0,0.0,-0.1517,-0.1418,-0.1532,-0.1886,-0.2704,-0.362,-0.4293,-0.4042,-0.5405,-0.6894,-0.7078,-0.6277,-0.5065,-0.3879,-0.2976,-0.2367,-0.2128,-0.2223,-0.2344,-0.2332,-0.2677,-0.298,-0.3054,-0.3224,-0.3432,-0.385,-0.4727,-0.5703,-0.6933,-0.7883,-0.8927,-1.0259,-0.9597,-0.7687,-0.4234,0.4792,1.5303,2.6981,1.686,1.1083,1.2095,1.5881,1.7905,1.788,1.7851,2.1292,2.7906,2.6358,2.4791,2.3176,2.2967,2.2173,2.1048,2.0962,2.0119,1.8858,2.0491,1.9886,1.8155,1.9501,1.9651,1.8996,1.8039,1.6518,1.5372,0.0,0.0,0.0,0.0,0.0,0.0,-0.1444,-0.0787,-0.0528,-0.0869,-0.107,-0.1347,-0.1764,-0.1682,-0.1889,-0.2639,-0.2815,0.0,0.0,0.0,0.0,0.0,0.0,0.0,0.0,0.0,-0.4932,-0.4598,-0.4919,-0.4547,-0.3535,-0.4604,-0.5096,-0.5023,0.0,0.0,0.0,0.0,0.0,0.0,0.0,0.0,0.0,0.0,0.0,0.0,0.0,0.0,0.0,0.0,0.0,0.0,0.0,-0.1559,-0.1779,-0.3172,-0.3806,-0.3801,-0.2941,-0.4507,-0.6456,-0.6966,-0.6258,-0.5067,-0.3876,-0.2658,-0.1805,-0.1808,-0.2276,-0.2593,-0.2249,-0.2902,-0.3611,-0.3926,-0.359,-0.3312,-0.3315,-0.3741,-0.4244,-0.4768,-0.5214,-0.5925,-0.7,-0.6658,-0.6525,-0.703,0.3626,1.5279,2.6961,2.8572,2.7115,2.2798,2.5755,2.7482,2.7468,2.7469,2.7897,2.8777,2.854,2.6551,2.3048,2.4492,2.3625,2.0956,2.2039,2.2512,2.2534,2.2423,2.1634,2.0492,2.0844,2.0959,2.0959,2.0959,2.0384,1.9638,0.0,0.0,0.0,0.0,0.0,0.0,0.0,-0.1601,-0.1394,-0.1494,-0.1447,-0.1514,-0.1776,-0.168,-0.1905,-0.2639,-0.2742,0.0,0.0,0.0,0.0,0.0,0.0,0.0,0.0,-0.4776,-0.4814,-0.4939,-0.5047,-0.4547,-0.3515,-0.3845,-0.3589,-0.2832,-0.2677,-0.2163,0.0,0.0,0.0,0.0,0.0,0.0,-0.1806,0.0,0.0,0.0,0.0,0.0,0.0,0.0,0.0,0.0,0.0,0.0,0.0,-0.2177,-0.2432,-0.2333,-0.1647,-0.1709,-0.2019,-0.22,-0.3529,-0.4364,-0.2721,-0.2058,-0.1808,-0.1803,-0.1943,-0.2049,-0.1943,-0.2154,-0.2504,-0.303,-0.3324,-0.3511,-0.3516,-0.3749,-0.4107,-0.4553,-0.4691,-0.4151,-0.2406,-0.7914,-1.1341,-1.073,0.9685,2.4068,2.8569,2.9624,2.9108,2.6972,2.7113,2.77,2.8834,2.8801,2.8943,2.92,2.8635,2.7164,2.4968,2.6205,2.5658,2.3797,2.4528,2.4188,2.3114,2.2611,2.1521,2.0287,2.1005,2.1519,2.1873,2.1875,2.1704,2.1497,0.0,0.0,0.0,0.0,0.0,0.0,0.0,-0.2038,-0.1912,-0.1909,-0.1702,-0.159,-0.171,-0.1701,-0.1928,-0.2543,-0.2646,0.0,0.0,0.0,0.0,0.0,0.0,0.0,-0.4547,-0.4702,-0.4902,-0.5106,-0.4686,-0.4164,-0.3498,-0.3498,-0.2898,-0.1808,-0.1909,-0.157,0.0,0.0,0.0,0.0,0.0,0.0,-0.2387,0.0,0.0,0.0,0.0,0.0,0.0,0.0,0.0,0.0,0.0,0.0,0.0,0.0,-0.1731,-0.1618,-0.0788,-0.0274,0.0,0.0,-0.1762,-0.3195,-0.2054,-0.1791,-0.1806,-0.1795,-0.1799,-0.181,-0.1796,-0.1801,-0.2009,-0.2596,-0.3405,-0.3951,-0.3931,-0.3921,-0.3899,-0.3846,-0.3196,-0.2077,-0.016,-0.5336,-0.5577,0.2161,1.8171,2.8581,3.0879,3.1367,3.1201,3.03,2.9021,2.8694,2.9406,2.9406,2.9597,2.9966,2.9205,2.807,2.6656,2.7637,2.7047,2.5322,2.5826,2.5508,0.0,2.3415,2.2298,2.1302,2.1627,2.1949,2.2296,2.2282,2.231,2.2298,0.0,0.0,0.0,0.0,0.0,0.0,0.0,-0.2142,-0.2092,-0.2075,-0.18,-0.1603,-0.1603,-0.1724,-0.1957,-0.2351,-0.2574,0.0,0.0,0.0,0.0,0.0,0.0,0.0,-0.4273,-0.4746,-0.502,-0.51,-0.3946,-0.3352,-0.3318,-0.3307,-0.2749,-0.171,-0.1146,-0.0919,0.0,0.0,0.0,0.0,0.0,0.0,0.0,0.0,0.0,0.0,0.0,0.0,0.0,0.0,0.0,0.0,0.0,0.0,0.0,0.0,0.0,0.0,0.0,-0.0068,0.0,0.0,-0.0919,-0.1785,-0.1797,-0.179,0.0,-0.1808,-0.1808,-0.1835,-0.1909,-0.1852,-0.2011,-0.2603,-0.3647,-0.441,-0.4492,-0.401,-0.3341,-0.2615,-0.0997,0.0541,0.1839,0.1977,0.9181,2.659,2.7838,2.9572,3.3564,3.3784,3.3425,3.2676,3.1458,3.0443,2.9691,2.9615,2.9971,3.076,3.0078,2.9025,2.7751,2.8581,2.7769,2.5711,2.6154,2.6463,2.6468,2.4652,2.364,2.3181,2.2539,2.2286,2.2306,2.2392,2.2447,2.2441,0.0,0.0,0.0,0.0,0.0,0.0,0.0,0.0,0.0,0.0,-0.1796,-0.1755,-0.1755,-0.1782,-0.192,0.0,0.0,0.0,0.0,0.0,0.0,0.0,0.0,0.0,-0.4143,-0.3976,-0.4272,-0.5103,-0.3148,-0.197,-0.1503,-0.1511,-0.1365,-0.1112,-0.0959,-0.1151,0.0,0.0,0.0,0.0,0.0,0.0,0.0,0.0,0.0,0.0,0.0,-0.0089,0.0,0.0,0.0,0.0,0.0,0.0,0.0,0.0,-0.1079,-0.1153,-0.1333,0.0,0.0,0.0,-0.091,-0.1805,0.0,-0.1809,-0.1799,-0.1793,-0.1799,-0.2088,-0.2996,-0.2424,-0.198,-0.2593,-0.294,-0.3464,-0.4363,-0.2446,-0.0837,-0.0642,-0.0271,0.5567,1.975,2.1091,2.3763,3.0126,3.0458,3.1827,3.5254,3.545,3.4504,3.2463,3.2686,3.2629,3.224,3.1551,3.0592,2.9385,2.9869,2.8351,2.5234,2.7513,2.773,2.6387,2.663,2.6747,2.66,2.4684,2.3803,2.3578,2.2668,2.2295,2.2407,2.3389,2.375,2.3744,0.0,0.0,0.0,0.0,0.0,0.0,0.0,0.0,0.0,0.0,-0.1803,-0.1803,-0.1803,-0.1803,0.0,0.0,0.0,0.0,0.0,0.0,0.0,0.0,0.0,-0.3522,-0.3554,-0.3519,-0.3789,-0.4378,-0.2373,-0.1228,-0.0897,-0.0619,-0.0488,-0.049,-0.0485,-0.0665,0.0,0.0,0.0,0.0,0.0,0.0,0.0,0.0,0.0,0.0,0.0,0.0,0.0,0.0,-0.0095,-0.0293,0.0,0.0,0.0,0.0,-0.099,-0.1075,-0.1004,-0.0488,-0.0129,-0.0676,-0.1323,-0.1809,-0.1787,-0.1809,-0.1809,-0.1807,-0.2232,-0.2839,-0.3488,-0.2832,-0.2402,-0.3016,-0.2863,-0.3102,-0.4315,-0.1923,0.0,0.0,0.0,0.7279,2.5783,2.7595,2.927,3.326,3.3474,3.4149,3.5916,3.5989,3.5152,3.3285,3.314,3.2728,3.1957,3.1495,3.0577,2.9223,2.9697,2.8766,2.6677,2.7762,2.7972,2.7345,2.6008,2.5916,2.6604,2.5134,2.453,2.4424,2.3897,2.3468,2.3254,2.3956,2.4208,2.4187,0.0,0.0,0.0,0.0,0.0,0.0,0.0,0.0,0.0,0.0,0.0,0.0,0.0,0.0,0.0,0.0,0.0,0.0,0.0,0.0,0.0,0.0,-0.3243,-0.3274,-0.2993,-0.3336,-0.3318,-0.2968,-0.1491,-0.0717,-0.0616,-0.01,0.0133,0.0134,0.0038,0.0,0.0,0.0095,0.0082,0.0014,0.0203,0.0,0.0,0.0,0.0,0.0,0.0,0.0,0.0,0.0167,0.0105,-0.0036,-0.0583,0.0,0.0,0.0,0.0,0.0,-0.0475,-0.0302,-0.0564,-0.1565,-0.1931,-0.2024,-0.1845,-0.1797,-0.179,-0.1789,-0.3294,-0.4471,-0.3933,-0.3133,-0.2819,-0.3597,-0.2921,-0.295,-0.4892,-0.2197,0.0,0.0,0.1763,0.9478,2.5994,2.8355,3.0857,3.5644,3.601,3.5994,3.6004,3.5519,3.4902,3.4199,3.3125,3.186,3.0387,3.0604,3.0312,2.9432,2.9668,2.947,2.8856,2.8371,2.8202,2.8105,2.5302,2.5031,2.6524,2.5659,2.5297,2.5305,2.5302,2.4849,2.4192,2.4194,2.4196,2.4208,0.0,0.0,0.0,0.0,0.0,0.0,0.0,0.0,0.0,0.0,0.0,0.0,0.0,0.0,0.0,0.0,0.0,0.0,0.0,0.0,0.0,-0.2195,-0.2692,-0.3119,-0.3399,-0.3468,-0.2534,-0.0543,-0.0271,0.0125,0.0624,0.0715,0.0762,0.074,0.0229,0.0,0.0028,0.0541,0.0472,0.0095,0.1109,0.0,0.0,0.0,0.0,0.0,0.0,0.0,0.0,0.0926,0.0569,0.0276,-0.0032,0.0,0.0,0.0,0.0,0.0,-0.157,-0.1688,-0.1865,-0.1805,-0.2568,-0.3048,-0.2031,-0.1797,-0.1798,-0.1797,-0.5789,-0.8381,-0.5399,-0.3261,-0.248,-0.4089,-0.2143,-0.2223,-0.7419,-0.3466,0.0,0.0,0.988,1.9544,2.6872,3.1912,3.5073,3.5926,3.6002,3.6003,3.6009,3.3261,3.2246,3.3496,3.2824,3.1417,2.927,3.0652,3.0466,2.8706,3.0058,2.9232,2.6553,2.7798,2.8102,2.7561,2.6338,2.6116,2.6532,2.5649,2.5293,2.5297,2.5294,2.484,2.4192,2.4192,2.4207,2.4207,0.0,0.0,0.0,0.0,0.0,0.0,0.0,0.0,0.0,0.0,0.0,0.0,0.0,0.0,0.0,0.0,0.0,0.0,0.0,0.0,-0.224,-0.2105,-0.2067,-0.2113,-0.2305,-0.2161,-0.141,0.0,0.0322,0.063,0.09,0.09,0.0903,0.0888,0.0615,0.049,0.0509,0.0788,0.0745,0.056,0.0,0.0,0.0,0.0,0.0,0.0,0.0,0.0,0.0,0.0,0.1283,0.1016,0.0245,0.0,0.0,0.0,0.0,0.0,-0.1573,-0.1744,-0.206,-0.2431,-0.3047,-0.3283,-0.2073,-0.1805,-0.181,-0.1815,-0.6324,-0.9811,-0.8223,-0.5048,-0.3096,-0.4322,-0.1989,0.1013,0.3896,0.7418,1.1007,1.4475,1.9979,2.5754,3.158,3.2813,3.4019,3.5866,3.4283,3.3242,3.3242,3.1758,3.082,3.0644,3.0349,2.9801,2.9021,2.9471,2.8849,2.7167,2.8341,2.7935,2.6189,2.6887,2.7138,2.6914,2.5122,2.4954,2.5726,2.3515,2.3669,2.5312,2.5304,2.4847,2.4198,2.4199,2.4211,2.4189,0.0,0.0,0.0,0.0,0.0,0.0,0.0,0.0,0.0,0.0,0.0,0.0,0.0,0.0,0.0,0.0,0.0,0.0,0.0,-0.1902,-0.1794,-0.202,-0.1552,-0.1258,-0.1208,-0.0721,-0.0252,0.0211,0.082,0.1115,0.1108,0.0962,0.0896,0.0895,0.0895,0.0895,0.0895,0.0899,0.0903,0.0951,0.0,0.0,0.0,0.0,0.0,0.0,0.0,0.0,0.0,0.0,0.0,0.0,0.0,0.0,0.0,0.0,-0.0646,-0.1379,-0.1408,-0.1606,-0.1966,-0.264,-0.3208,-0.3319,-0.2248,-0.2222,-0.2338,-0.2073,-0.5611,-0.8728,-0.8734,-0.5409,-0.2846,-0.3348,-0.0107,0.563,1.4734,1.8453,2.2027,2.6825,2.7566,2.9569,3.4352,3.2435,3.1987,3.4609,3.2383,3.0898,3.0898,3.0898,3.0293,2.8945,2.8124,2.7864,2.8215,2.8193,2.7508,2.6233,2.7011,2.7023,2.6376,2.6314,2.629,2.6197,2.4235,2.412,2.5091,2.2537,2.2987,2.5293,2.5298,2.4943,2.4433,2.4257,2.4209,2.4209,0.0,0.0,0.0,0.0,0.0,0.0,0.0,0.0,0.0,0.0,0.0,0.0,0.0,0.0,0.0,0.0,0.0,0.0,0.0,-0.1928,-0.1854,-0.1569,-0.1334,-0.112,-0.0938,0.0193,0.0793,0.0832,0.1434,0.1738,0.1723,0.1166,0.0904,0.0904,0.0904,0.0904,0.0896,0.0895,0.0903,0.0951,0.1552,0.0,0.0,0.0,0.0,0.0,0.0,0.0,0.0,0.0,0.0,0.0,0.0,0.0,0.0,0.0,-0.0059,-0.036,-0.1459,-0.1772,-0.1817,-0.1888,-0.2754,-0.3432,-0.2787,-0.3488,-0.3992,-0.2858,-0.3403,-0.409,-0.4065,-0.1969,-0.0287,-0.0309,0.5398,1.1716,1.707,2.3052,2.6881,2.6792,2.9023,3.0765,3.1224,3.1044,3.0995,3.125,3.1035,3.0898,3.0898,3.0898,3.084,3.0723,2.7567,2.5891,2.5932,2.7373,2.771,2.6947,2.7612,2.746,2.6581,2.6561,2.6149,2.538,2.5187,2.5187,2.5284,2.5034,2.5072,2.5293,2.5298,2.5267,2.5136,2.4456,2.4209,2.4209,0.0,0.0,0.0,0.0,0.0,0.0,0.0,0.0,0.0,0.0,0.0,0.0,0.0,0.0,0.0,0.0,0.0,0.0,0.0,-0.1839,-0.1487,-0.0607,-0.0853,-0.0881,-0.0597,-0.0344,-0.0033,0.0346,0.1317,0.1797,0.1797,0.1567,0.1459,0.1459,0.1459,0.1247,0.0904,0.0896,0.0896,0.0915,0.1145,0.1464,0.0,0.0,0.0,0.0,0.0,0.0,0.0,0.0,0.1798,0.1673,0.0915,0.0374,0.0,0.0,0.0,-0.0107,-0.0553,-0.0778,-0.1012,-0.1637,-0.215,-0.242,-0.2199,-0.3373,-0.4167,-0.2962,-0.1967,-0.1817,-0.332,-0.1622,0.0734,0.2923,0.9059,1.5895,2.2473,2.5516,2.7624,2.913,3.0254,3.0901,3.0891,2.894,2.7676,2.7676,2.7676,2.7676,2.7676,2.7676,2.7676,2.7676,2.6384,2.5699,2.57,2.6308,2.6376,2.5946,2.6204,2.614,2.5793,2.5793,2.561,2.5303,2.5303,2.5303,2.5303,2.5303,2.5303,2.5303,2.529,2.529,2.521,2.4468,2.4193,2.4206,0.0,0.0,0.0,0.0,0.0,0.0,0.0,0.0,0.0,0.0,0.0,0.0,0.0,0.0,0.0,0.0,0.0,0.0,-0.1809,-0.1791,-0.1428,-0.0602,-0.078,-0.062,-0.0,-0.0033,-0.0032,0.0,0.1207,0.1799,0.1795,0.1802,0.1802,0.1802,0.1799,0.157,0.1168,0.0986,0.0901,0.0897,0.0901,0.1154,0.0,0.0,0.0,0.0,0.0,0.0,0.0,0.0,0.155,0.1148,0.0711,0.0566,0.0531,0.0332,0.0292,0.028,0.0199,0.0093,-0.0178,-0.0838,-0.1262,-0.1516,-0.1523,-0.2339,-0.3051,-0.2988,-0.1377,0.0083,0.0288,-0.0479,0.0506,0.5591,1.2907,2.0047,2.587,2.7131,2.8286,3.0617,3.0897,3.0462,2.9374,2.7109,2.5703,2.5703,2.5703,2.5703,2.5703,2.5703,2.5703,2.5703,2.5703,2.5703,2.5703,2.5702,2.5618,2.5425,2.5441,2.5385,2.5311,2.5303,2.5303,2.5303,2.5303,2.5303,2.5303,2.5303,2.5303,2.5303,2.5303,2.5308,2.5251,2.4732,2.4562,2.4544,0.0,0.0,0.0,0.0,0.0,0.0,0.0,0.0,0.0,0.0,0.0,0.0,0.0,0.0,0.0,0.0,0.0,0.0,-0.1798,-0.1781,-0.1778,-0.1767,-0.1201,-0.0322,0.0874,0.1481,0.1203,0.0014,0.1214,0.1806,0.1806,0.1796,0.18,0.1796,0.1806,0.1808,0.1762,0.117,0.0928,0.0932,0.0925,0.092,0.1037,0.0,0.0,0.0,0.0,0.0,0.0,0.0,0.1007,0.0226,0.1417,0.1804,0.1677,0.1088,0.092,0.0856,0.0676,0.0625,0.0638,0.0696,-0.0083,-0.0866,-0.0873,-0.0399,-0.0628,-0.3021,-0.1585,0.1894,0.7689,0.2062,-0.0769,0.7562,1.7163,2.4297,2.6416,2.7997,2.9431,3.0707,3.0856,2.9492,2.6035,2.5703,2.5703,2.5703,2.5703,2.5703,2.5703,2.5703,2.5703,2.5703,2.5703,2.5703,2.5703,2.5693,2.5701,2.5698,2.5695,2.5554,2.529,2.5292,2.5313,2.5313,2.5313,2.5303,2.5303,2.5303,2.5303,2.5303,2.5303,2.5288,2.5309,2.5309,2.5304,2.5296,0.0,0.0,0.0,0.0,0.0,0.0,0.0,0.0,0.0,0.0,0.0,0.0,0.0,0.0,0.0,0.0,0.0,0.0,-0.1798,-0.1007,-0.0354,0.0084,0.0268,0.0532,0.0896,0.0661,0.0777,0.1268,0.2006,0.2167,0.1796,0.1803,0.18,0.1839,0.2639,0.2555,0.1819,0.202,0.2773,0.3748,0.2567,0.2099,0.226,0.0,0.0,0.0,0.0,0.0,0.0,0.0,0.0,0.0,0.1564,0.1793,0.1847,0.2093,0.1876,0.1513,0.1471,0.1654,0.1997,0.2546,0.2464,0.2156,0.1719,0.2416,0.3093,0.281,0.5276,0.6963,0.5421,0.5123,0.7592,1.5241,1.895,2.2613,2.7594,2.6749,2.6027,2.7108,2.7245,2.6836,2.5801,2.5699,2.5697,2.5703,2.5698,2.5697,2.5703,2.5703,2.5703,2.5703,2.5703,2.5703,2.5703,2.5702,2.5701,2.5701,2.5701,2.5563,2.5302,2.5298,2.5304,2.5294,2.5302,2.5299,2.5303,2.5303,2.5303,2.5303,2.5303,2.5302,2.529,2.529,2.5308,2.5294,0.0,0.0,0.0,0.0,0.0,0.0,0.0,0.0,0.0,0.0,0.0,0.0,0.0,0.0,0.0,0.0,0.0,0.0,0.0,-0.0677,0.0261,0.0876,0.0897,0.1015,0.1255,0.0896,0.1173,0.2117,0.2235,0.212,0.1806,0.1803,0.18,0.1852,0.2995,0.3387,0.3152,0.2534,0.3134,0.4354,0.3103,0.2598,0.2787,0.0,0.0,0.0,0.0,0.0,0.0,0.0,0.0,0.0,0.3051,0.2707,0.2184,0.2303,0.2146,0.1961,0.1968,0.2191,0.2597,0.3251,0.3495,0.3413,0.2819,0.3446,0.4235,0.4614,0.6751,0.8461,0.8301,0.9993,1.3485,1.9737,2.1167,2.2789,2.6552,2.5759,2.5013,2.5626,2.5703,2.5703,2.5703,2.57,2.5659,2.5547,2.5641,2.5699,2.5703,2.5703,2.5703,2.5703,2.5703,2.5703,2.5703,2.5703,2.5703,2.5703,2.5699,2.5629,2.5453,2.5453,2.5468,2.5454,2.535,2.529,2.5301,2.5303,2.5303,2.5303,2.5303,2.5303,2.5303,2.5303,2.5303,2.5303,0.0,0.0,0.0,0.0,0.0,0.0,0.0,0.0,0.0,0.0,0.0,0.0,0.0,0.0,0.0,0.0,0.0,0.0,0.0,-0.0677,0.0261,0.0882,0.0899,0.1185,0.1785,0.1804,0.2086,0.2683,0.2095,0.1795,0.1799,0.1803,0.18,0.1853,0.288,0.395,0.4832,0.2711,0.251,0.3575,0.2825,0.2565,0.2773,0.4292,0.0,0.0,0.0,0.0,0.0,0.0,0.0,0.0,0.5389,0.4385,0.3,0.2246,0.2103,0.2172,0.2244,0.2429,0.269,0.3151,0.3484,0.3578,0.3317,0.3687,0.4146,0.4421,0.5324,0.7961,1.4043,1.5504,1.7239,2.1607,2.3423,2.431,2.4313,2.512,2.5707,2.5702,2.5709,2.5703,2.5703,2.5703,2.5605,2.5351,2.5566,2.5703,2.5703,2.5703,2.5703,2.5703,2.5703,2.5703,2.5703,2.5703,2.5703,2.5703,2.5703,2.5547,2.5254,2.5567,2.5702,2.5693,2.5441,2.5323,2.5309,2.5309,2.5303,2.5303,2.5303,2.5293,2.5303,2.5303,2.5293,2.5303,0.0,0.0,0.0,0.0,0.0,0.0,0.0,0.0,0.0,0.0,0.0,0.0,0.0,0.0,0.0,0.0,0.0,0.0,0.0,-0.0677,0.0261,0.0882,0.0905,0.1179,0.1788,0.1803,0.2293,0.331,0.229,0.1804,0.1804,0.1802,0.1797,0.1816,0.2048,0.2311,0.2523,0.2017,0.2937,0.4597,0.2719,0.2219,0.2642,0.2995,0.5031,0.0,0.0,0.0,0.0,0.0,0.0,0.0,0.6429,0.6428,0.6247,0.4379,0.2925,0.1976,0.2461,0.2928,0.3276,0.317,0.4037,0.5353,0.7109,0.7595,0.8304,1.0446,1.1106,1.1746,1.3165,1.6373,1.9558,2.1913,2.3856,2.5144,2.534,2.5557,2.5695,2.5696,2.5703,2.5702,2.5691,2.5704,2.5678,2.5629,2.5665,2.5693,2.5703,2.5697,2.5709,2.5709,2.5709,2.5709,2.5709,2.5702,2.5703,2.5703,2.5703,2.4297,2.1797,2.4471,2.5691,2.5704,2.5634,2.5488,2.5307,2.5296,2.5304,2.5304,2.5304,2.5305,2.5298,2.531,2.529,2.5303,0.0,0.0,0.0,0.0,0.0,0.0,0.0,0.0,0.0,0.0,0.0,0.0,0.0,0.0,0.0,0.0,0.0,0.0,0.0,0.0,0.0566,0.0891,0.1181,0.1476,0.1793,0.1804,0.2632,0.4367,0.3763,0.2896,0.1804,0.2064,0.2191,0.2186,0.2179,0.2181,0.2187,0.2181,0.3796,0.6173,0.4185,0.355,0.3968,0.5502,0.6758,0.7779,0.8497,0.0,0.0,0.0,0.0,0.0,0.0,0.0,0.7165,0.4391,0.2931,0.2407,0.329,0.3712,0.3904,0.3787,0.5403,0.7306,0.8531,0.9831,1.1509,1.4073,1.46,1.4937,1.5985,1.8768,2.1247,2.216,2.4007,2.5387,2.5667,2.5695,2.5709,2.5703,2.5701,2.5694,2.5701,2.5582,2.5503,2.5512,2.5628,2.5695,2.5698,2.5704,2.5632,2.5515,2.5515,2.5574,2.5691,2.5693,2.5701,2.5681,2.4033,2.2322,2.0723,2.4141,2.5702,2.5696,2.5707,2.5629,2.5488,2.5483,2.5493,2.5493,2.5493,2.5485,2.549,2.534,2.5288,2.5303,0.0,0.0,0.0,0.0,0.0,0.0,0.0,0.0,0.0,0.0,0.0,0.0,0.0,0.0,0.0,0.0,0.0,0.0,0.0,0.0,0.0,0.0906,0.138,0.1694,0.1798,0.1808,0.2852,0.4993,0.5188,0.4281,0.2372,0.2822,0.3028,0.3036,0.3036,0.3023,0.3047,0.3351,0.511,0.7588,0.6114,0.5358,0.5423,0.8394,0.8765,0.7848,0.9086,0.9534,0.938,0.8406,0.0,0.0,0.0,0.0,0.7147,0.4375,0.3353,0.3308,0.4279,0.4957,0.5307,0.4769,0.6888,0.9073,0.9071,1.1361,1.4186,1.6565,1.6769,1.717,1.9301,2.1096,2.2415,2.2767,2.4214,2.539,2.5664,2.5709,2.5703,2.5703,2.5694,2.5676,2.5632,2.5433,2.5298,2.5298,2.5517,2.5639,2.563,2.5625,2.5537,2.5298,2.5298,2.5415,2.5629,2.5625,2.563,2.561,2.2806,2.1177,2.0703,2.3535,2.5137,2.5703,2.5694,2.5707,2.5705,2.5694,2.5699,2.5699,2.5699,2.5703,2.5674,2.5389,2.5298,2.5303,0.0,0.0,0.0,0.0,0.0,0.0,0.0,0.0,0.0,0.0,0.0,0.0,0.0,0.0,0.0,0.0,0.0,0.0,0.0,0.0,0.0,0.0925,0.0981,0.1269,0.1783,0.1807,0.2435,0.3743,0.4675,0.4962,0.4656,0.4743,0.4763,0.4763,0.4763,0.4771,0.4873,0.6373,0.728,0.768,0.7451,0.644,0.5298,0.7265,0.7882,0.7718,0.7909,0.7991,0.8153,0.9237,0.8761,0.0,0.0,0.0,0.7627,0.7173,0.5953,0.4812,0.4977,0.722,0.8799,0.5912,0.7653,1.0106,1.0089,1.3187,1.6652,1.8838,1.7788,1.7144,1.9293,2.1127,2.2864,2.4615,2.5118,2.5395,2.5658,2.5698,2.5703,2.5703,2.5694,2.5609,2.5371,2.5317,2.5304,2.5291,2.5324,2.5343,2.5347,2.5346,2.5344,2.5292,2.5292,2.5324,2.535,2.5346,2.5352,2.5352,2.5135,2.3476,2.0611,2.1073,2.2891,2.5703,2.5703,2.5703,2.5703,2.5702,2.5702,2.5702,2.5702,2.5693,2.5665,2.5392,2.5303,2.5298,0.0,0.0,0.0,0.0,0.0,0.0,0.0,0.0,0.0,0.0,0.0,0.074,0.0,0.0,0.0,0.1015,0.1015,0.0996,0.1001,0.1507,0.1682,0.1421,0.1403,0.2149,0.3722,0.376,0.3976,0.4396,0.4864,0.5105,0.5146,0.7104,0.802,0.8017,0.8013,0.6923,0.5182,0.6434,0.6986,0.7016,0.7509,0.7124,0.6391,0.7352,0.7708,0.7709,0.7704,0.7692,0.7792,0.8448,0.8771,0.8921,0.893,0.0,0.0,0.0,0.7821,0.6334,0.5365,0.7629,0.9962,0.8468,0.9213,1.0255,1.0089,1.4337,1.8548,1.9524,1.9745,2.0036,2.0983,2.2384,2.3794,2.5084,2.5427,2.5568,2.5671,2.5699,2.5703,2.5697,2.569,2.5585,2.5323,2.5298,2.5297,2.5302,2.5298,2.4474,2.2596,2.2506,2.2493,2.2504,2.4328,2.531,2.5302,2.5302,2.5292,2.5277,2.3524,2.1952,2.0597,2.0609,2.247,2.5703,2.5703,2.5703,2.5703,2.5703,2.5703,2.5703,2.5703,2.5699,2.5698,2.5562,2.5522,2.549,0.0,0.0,0.0,0.0,0.0,0.0,0.0,0.0,0.0,0.0,0.0,0.0,0.0,0.0,0.0,0.0,0.2038,0.2022,0.204,0.1884,0.1799,0.1809,0.1946,0.3066,0.5252,0.5691,0.5866,0.5774,0.5315,0.5323,0.5824,0.889,1.0557,1.0982,0.9596,0.8016,0.6508,0.7643,0.7572,0.6813,0.7711,0.7764,0.7343,0.7507,0.7635,0.7744,0.8187,0.8348,0.8289,0.7843,0.8428,0.934,0.9356,0.8574,0.0,0.0,0.0,0.7805,0.5683,0.8336,1.1319,0.9741,1.0522,1.1379,1.0155,1.4962,1.9814,2.0266,2.1384,2.2398,2.2726,2.3552,2.4452,2.519,2.553,2.5707,2.5707,2.5701,2.5702,2.5703,2.5636,2.5527,2.5318,2.5294,2.529,2.5294,2.5354,2.3904,2.0492,2.0296,2.0312,2.0304,2.2725,2.403,2.4021,2.4021,2.4033,2.3999,2.1495,2.0383,2.0526,2.0511,2.2377,2.56,2.5662,2.5702,2.5702,2.5703,2.5703,2.5703,2.5703,2.5701,2.5709,2.5709,2.571,2.5665,0.0,0.0,0.0,0.0,0.0,0.0,0.0,0.0,0.0,0.0,0.0,0.0,0.2515,0.2605,0.2641,0.2641,0.2641,0.2657,0.2648,0.213,0.1785,0.1795,0.2346,0.0,0.5252,0.6794,0.7564,0.7566,0.5912,0.596,0.76,0.9449,1.1276,1.2816,0.766,0.71,1.0144,1.204,1.0818,0.7715,0.8728,0.8549,0.7646,0.7333,0.7435,0.792,0.9584,1.0173,0.991,0.8257,0.7759,0.7816,0.7816,0.7766,0.7721,0.0,0.0,0.0,0.5957,1.0211,1.4105,0.8244,1.1207,1.4541,1.0756,1.4989,2.0164,2.1812,2.2243,2.2668,2.3886,2.4161,2.4448,2.5181,2.5532,2.5707,2.5703,2.5703,2.5702,2.5703,2.5483,2.5311,2.5294,2.5292,2.5302,2.529,2.5545,2.4107,2.0485,2.0299,2.0296,2.0291,2.0472,2.0559,2.0553,2.0553,2.057,2.0557,2.0378,2.0314,2.0319,2.0327,2.215,2.5321,2.5593,2.5701,2.5703,2.5702,2.5703,2.5703,2.5703,2.5703,2.5703,2.5703,2.5697,2.5654,0.0,0.0,0.0,0.0,0.0,0.0,0.0,0.0,0.0,0.0,0.0,0.0,0.0,0.2717,0.2714,0.2714,0.2703,0.2709,0.2689,0.3549,0.406,0.4049,0.425,0.4668,0.5271,0.6892,0.7697,0.7703,0.5961,0.5745,0.7017,0.7639,0.9797,1.3106,1.1168,0.9409,0.8107,1.0829,0.9876,0.6772,0.9477,0.9408,0.7729,0.7944,0.777,0.7488,0.8338,0.8633,0.8539,0.7919,0.7708,0.7691,0.7692,0.7708,0.7877,0.8835,0.9491,0.9837,0.9491,1.006,1.0207,0.7987,0.9092,1.0356,0.8949,1.1741,1.608,2.124,2.2946,2.3801,2.4726,2.4924,2.5041,2.548,2.5639,2.5709,2.5703,2.57,2.5691,2.5701,2.5464,2.5379,2.5532,2.5557,2.5492,2.5315,2.5394,2.3945,2.048,2.0299,2.0304,2.0296,2.0296,2.0288,2.0299,2.0299,2.0307,2.0296,2.0296,2.0299,2.0306,2.0308,2.0952,2.2221,2.4469,2.4297,2.261,2.4803,2.5693,2.5693,2.5693,2.57,2.5703,2.5698,2.5703,2.5683,0.0,0.0,0.0,0.0,0.0,0.0,0.0,0.0,0.0,0.2608,0.0,0.0,0.0,0.0,0.2698,0.2698,0.269,0.2934,0.3539,0.4661,0.531,0.5299,0.5288,0.5569,0.6089,0.7145,0.7692,0.7708,0.6535,0.6552,0.7692,0.6939,0.8166,1.0989,1.0961,1.0195,0.8858,0.9471,0.9077,0.8186,1.0237,0.9968,0.8357,0.8416,0.7978,0.7651,0.9875,0.9709,0.8277,0.7191,0.6825,0.6822,0.6831,0.7555,0.8627,0.9613,0.9905,0.9924,1.0029,0.9333,0.8665,0.9109,0.9213,0.9308,0.9679,1.1096,1.4335,2.147,2.1876,2.1852,2.4752,2.537,2.5495,2.5659,2.5697,2.5697,2.5703,2.5696,2.5676,2.5584,2.5496,2.5503,2.5676,2.5699,2.5589,2.5315,2.5309,2.2832,1.7186,1.9049,2.0304,2.0312,2.0312,2.0312,2.0312,2.0312,2.0312,2.0312,2.0312,2.0312,2.0304,2.0307,2.0301,2.0495,2.3848,2.4115,2.2355,2.4623,2.5609,2.5698,2.5698,2.5636,2.5586,2.5677,2.5703,2.5694,0.0,0.0,0.0,0.0,0.0,0.0,0.0,0.0,0.2698,0.2679,0.0,0.0,0.0,0.0,0.0,0.277,0.274,0.3431,0.519,0.53,0.5297,0.5315,0.5346,0.609,0.7664,0.7695,0.7715,0.7755,0.7771,0.8458,0.9769,0.7675,0.6673,0.6651,0.6623,0.902,1.2768,0.8572,0.8889,1.2146,1.1111,1.0238,0.9505,0.8817,0.8235,0.851,1.4251,1.3635,0.9599,0.6506,0.5424,0.5411,0.5216,0.7317,0.9831,0.9882,0.9894,0.9425,0.0,0.0,0.0,1.1482,1.1772,1.1982,1.3043,1.3344,1.547,2.271,1.9196,1.6968,2.3994,2.5531,2.571,2.5696,2.5699,2.5703,2.5703,2.5694,2.5606,2.5323,2.5527,2.5696,2.5679,2.5684,2.558,2.5316,2.5297,2.0985,1.1076,1.6747,2.0307,2.0304,2.0312,2.0312,2.0312,2.0312,2.0312,2.0312,2.0312,2.0312,2.0304,2.0307,2.0359,2.0629,2.3879,2.5307,2.5309,2.5302,2.5446,2.5698,2.5698,2.5538,2.5332,2.5605,2.5703,2.5703,0.0,0.0,0.0,0.0,0.0,0.1736,0.1568,0.2201,0.2553,0.0,0.0,0.0,0.2705,0.305,0.3638,0.4497,0.3418,0.3433,0.5192,0.5311,0.5316,0.5289,0.6408,0.7251,0.77,0.7695,0.822,0.9308,0.93,0.8681,0.7548,0.8512,0.8483,0.7545,0.7531,0.8208,0.9445,1.0796,1.1978,1.2899,1.2616,1.1208,0.9666,1.2978,1.2181,0.9505,1.1125,1.2992,1.4546,1.3657,1.3347,1.2602,0.8322,0.76,0.8522,0.9577,0.9898,0.9773,0.9164,0.0,0.0,0.0,0.0,0.0,1.0083,1.2253,1.6099,2.2824,2.3202,2.293,2.4929,2.5517,2.5696,2.5699,2.5703,2.5703,2.5703,2.5698,2.5601,2.533,2.5376,2.5421,2.5399,2.5409,2.5386,2.5316,2.529,2.4075,2.125,2.0595,2.0304,2.0312,2.0312,2.0312,2.0312,2.0312,2.0312,2.0312,2.0312,2.0312,2.0304,2.0307,2.163,2.3964,2.4888,2.5288,2.5297,2.5307,2.5342,2.5422,2.5612,2.5655,2.5605,2.5676,2.5699,2.5703,0.0,0.0,0.0,0.169,0.1799,0.1801,0.1793,0.2088,0.2192,0.0,0.0,0.0,0.2972,0.3309,0.3775,0.4491,0.3618,0.369,0.5202,0.5299,0.5311,0.53,0.6191,0.7019,0.7681,0.7705,0.841,0.99,0.9915,0.9529,0.8791,0.9542,0.9779,0.9536,0.9522,0.952,0.9662,1.1736,1.283,1.3036,1.1201,1.0635,1.1148,1.3603,1.4319,1.3686,1.1487,1.3211,1.6625,1.7528,1.5396,1.1773,0.8335,0.7246,0.7479,0.8698,0.9062,0.908,0.9056,1.0397,1.1796,1.1793,0.0,0.0,1.0869,1.3079,1.5857,1.9663,2.3017,2.5324,2.5457,2.559,2.5709,2.5703,2.5702,2.5701,2.5703,2.569,2.5604,2.534,2.5299,2.5302,2.5304,2.5298,2.5305,2.5305,2.5297,2.4701,2.3289,2.1358,2.0312,2.0312,2.0312,2.0312,2.0312,2.0312,2.0312,2.0312,2.0312,2.0312,2.0304,2.0291,2.2125,2.5298,2.5294,2.5294,2.5317,2.5425,2.5469,2.5469,2.5632,2.5694,2.5703,2.5698,2.57,2.5703,0.0,0.0,0.1238,0.1713,0.179,0.1795,0.1799,0.1898,0.1993,0.0,0.2,0.2367,0.34,0.3495,0.3513,0.3501,0.3504,0.3948,0.5024,0.5225,0.5296,0.5287,0.5294,0.6065,0.7655,0.7703,0.8338,0.9666,0.9945,1.0843,1.2225,1.0778,1.0725,1.1794,1.1795,1.1979,1.2246,1.224,1.2733,1.3156,0.9528,1.0413,1.3821,1.3006,1.5608,1.9063,1.4364,1.448,1.7148,1.9067,1.4502,0.7892,0.7024,0.7144,0.7637,0.7726,0.783,0.7892,0.7898,0.9607,1.1374,1.147,1.018,0.0,1.3635,1.4859,1.5402,1.6177,2.1118,2.5379,2.5648,2.5074,2.456,2.4551,2.5206,2.5709,2.5703,2.5704,2.56,2.5328,2.529,2.5303,2.5303,2.5303,2.5303,2.5293,2.4966,2.3445,2.0452,2.0296,2.0312,2.0312,2.0312,2.0312,2.0312,2.0312,2.0312,2.0312,2.03,2.0308,2.0308,2.0296,2.2142,2.5292,2.5324,2.5337,2.5366,2.5606,2.5698,2.5701,2.5703,2.5697,2.5703,2.5703,2.5703,2.5703,0.0,0.176,0.2224,0.1862,0.1792,0.1807,0.1791,0.257,0.3166,0.3164,0.3168,0.3243,0.3484,0.3499,0.3499,0.3505,0.3493,0.359,0.3838,0.4747,0.5305,0.531,0.5285,0.604,0.7655,0.7693,0.7833,0.8116,1.0356,1.2645,1.4977,1.2554,1.1564,1.1799,1.1803,1.2999,1.5034,1.5016,1.5133,1.5396,1.6634,1.7654,1.8413,1.8212,1.8823,1.9564,1.851,1.8552,1.9128,1.9562,1.8547,1.6039,0.9641,1.0573,1.3056,0.8263,0.7351,0.7899,0.7891,0.8277,0.8787,0.9331,0.9169,0.0,1.3635,1.4863,1.6747,2.2207,2.4377,2.5379,2.5652,2.1157,1.7401,1.7414,2.2073,2.5705,2.5696,2.5697,2.5596,2.5337,2.5305,2.5303,2.5303,2.5303,2.5293,2.5303,2.2793,2.0988,2.0342,2.0304,2.0312,2.0312,2.0312,2.0312,2.0312,2.0312,2.0312,2.0312,2.0288,2.0302,2.0308,2.0291,2.2124,2.5318,2.5537,2.5624,2.5632,2.5676,2.5698,2.5701,2.5699,2.5703,2.5703,2.5703,2.5703,2.5703,0.1521,0.184,0.2332,0.261,0.2657,0.2649,0.2639,0.3128,0.3509,0.3496,0.3505,0.3513,0.35,0.3494,0.3508,0.3508,0.3496,0.3732,0.4263,0.5668,0.651,0.6493,0.6503,0.6876,0.7667,0.7684,0.8372,0.9734,1.0494,1.186,1.3774,1.2435,1.1806,1.1861,1.3188,1.4541,1.5805,1.5806,1.5024,1.4027,1.6684,1.854,1.9711,1.9688,1.9704,1.9525,1.8204,1.7759,1.7742,1.7764,1.8636,1.9017,1.5034,1.29,1.1512,0.9719,0.8578,0.7893,0.7893,0.8139,0.847,0.8811,1.0311,0.0,0.0,1.3818,1.6165,1.9555,2.0259,2.0315,2.0533,1.7729,1.4818,1.3036,1.709,2.0455,2.0465,2.0468,2.1668,2.4904,2.5297,2.5293,2.5293,2.5303,2.461,2.2936,2.1248,2.0299,2.0304,2.0312,2.0312,2.0312,2.0299,2.0301,2.0301,2.0308,2.0307,2.0307,2.0307,2.0347,2.0444,2.0443,2.1372,2.2962,2.3108,2.3152,2.3294,2.4994,2.5697,2.5698,2.5703,2.5703,2.5488,2.3789,2.4238,2.5703,0.2313,0.2121,0.2414,0.3331,0.3495,0.3509,0.349,0.3511,0.3505,0.3506,0.3499,0.349,0.35,0.3688,0.38,0.3801,0.3807,0.4174,0.5043,0.6419,0.7343,0.7686,0.8028,0.8049,0.7706,0.7695,0.8926,1.1414,1.0392,1.0538,1.1794,1.1797,1.2067,1.2569,1.2707,1.3885,1.5789,1.5236,1.3785,1.1984,1.415,1.7105,2.0197,2.0191,1.9827,1.9069,1.6945,1.536,1.4433,1.5457,1.5857,1.6246,1.8322,1.4203,0.906,1.1176,1.0299,0.8703,0.8896,0.9359,0.9646,0.9175,1.1808,1.391,0.0,0.0,0.0,1.5196,1.4702,1.4497,1.526,1.541,1.4247,1.0685,1.2413,1.4457,1.5099,1.4652,1.7003,2.4426,2.5298,2.5048,2.4411,2.4331,2.3215,2.0504,2.0308,2.0311,2.0306,2.0306,2.0306,2.0306,2.0301,2.0311,2.0349,2.0366,2.0352,2.0352,2.0359,2.0445,2.06,2.06,2.0603,2.0632,2.1292,2.1575,2.1797,2.4551,2.5312,2.4785,2.5449,2.5703,2.5371,2.2598,2.332,2.5703,0.3342,0.3315,0.3351,0.3468,0.3505,0.3491,0.3513,0.3513,0.3506,0.3506,0.3494,0.3507,0.3499,0.4349,0.4932,0.4906,0.4922,0.4974,0.5099,0.528,0.609,0.7642,0.9166,0.9282,0.7722,0.7706,0.8501,1.0123,0.9967,1.0545,1.1793,1.1789,1.308,1.4951,0.5846,0.7027,1.5639,1.3243,1.2065,1.1836,1.2139,1.6166,2.1995,2.2015,2.0346,1.7971,1.7674,1.3794,0.9517,1.4216,0.9757,0.3889,1.3283,1.3995,1.142,1.1719,1.1582,1.1562,1.2525,1.2824,1.2361,1.0165,1.2067,1.4525,1.4597,0.0,1.5194,1.5197,0.0,1.1794,1.4839,0.0,0.0,1.0689,1.0433,1.1738,1.4772,1.2684,1.4448,2.4155,2.5307,2.4121,2.1166,2.0871,2.0715,2.0334,2.0307,2.0292,2.0292,2.0292,2.0292,2.0292,2.0297,2.0398,2.0558,2.0562,2.0566,2.0566,2.0567,2.0582,2.0601,2.0601,2.0605,2.0761,2.3808,2.5117,2.5156,2.5547,2.3906,2.1484,2.4512,2.5703,2.5644,2.5254,2.5371,2.5703,0.3491,0.3491,0.3506,0.3498,0.3491,0.3506,0.3506,0.349,0.3499,0.3501,0.3501,0.3737,0.4369,0.7555,0.8408,0.5378,0.5098,0.4251,0.2281,0.454,0.6874,0.8899,0.5977,0.5779,0.8904,0.8965,0.9271,0.989,1.0646,1.1292,1.1816,1.3388,1.4715,1.5612,1.1148,0.8224,0.7056,1.3607,1.6383,1.6456,1.7491,1.9657,2.1861,1.7757,1.6876,1.7781,1.7809,1.6006,1.4104,1.7044,1.2069,0.5615,1.1601,1.4821,1.5782,1.2687,1.1803,1.1643,1.0972,1.2392,1.3847,1.3085,1.3905,1.4971,1.5167,1.5257,1.5323,1.5329,0.0,0.0,0.0,0.0,0.0,0.0,1.1393,1.0637,1.2137,1.2805,1.3995,1.6328,1.6596,1.6036,1.4626,1.8021,1.9506,1.7593,1.9331,2.0469,2.0469,2.0469,2.0469,2.0469,2.0474,2.0506,2.0606,2.0603,2.0591,2.0591,2.0599,2.0602,2.0602,2.0605,2.0605,2.0684,2.2129,2.2734,2.2734,2.2734,2.1894,2.0742,2.2187,2.3945,2.5703,2.5703,2.5703,2.5703,0.3552,0.3492,0.3495,0.3507,0.3492,0.351,0.351,0.3782,0.4159,0.4603,0.4649,0.4939,0.574,1.0047,1.1171,0.6897,0.7019,0.6285,0.3779,0.6567,0.8798,0.9841,0.5294,0.4965,0.9785,1.0232,1.0779,1.153,1.2432,1.2896,1.2934,1.4902,1.5806,1.5758,1.5019,0.9217,0.089,1.4598,2.0148,1.981,2.1076,2.1878,2.164,1.5712,1.5264,1.7794,1.7808,1.7813,1.8067,1.9826,1.5496,1.0008,1.3554,1.7318,1.935,1.3853,1.3044,1.322,0.9821,1.0993,1.391,1.6933,1.7131,1.6341,1.5405,1.5278,1.5086,1.4192,1.2021,0.0,0.0,0.0,1.1228,1.4636,0.0,1.0469,1.1497,1.3698,1.4323,1.1935,1.0852,1.0298,1.0294,1.6402,1.8991,1.5656,1.6879,1.8592,2.0497,2.061,2.0591,2.0603,2.0605,2.0594,2.0594,2.0604,2.0605,2.0605,2.0605,2.0605,2.0605,2.0605,2.0605,2.0605,2.0605,2.0605,2.0605,2.0605,2.0605,2.0605,2.0605,2.2695,2.5703,2.5703,2.5703,2.5703,0.3705,0.3508,0.3497,0.3488,0.3508,0.35,0.35,0.4486,0.5807,0.737,0.7567,0.7581,0.7625,1.0781,1.2143,1.0317,1.1864,1.2877,1.2789,1.2746,1.1857,0.998,0.9688,0.9692,0.9893,1.1094,1.3015,1.5613,1.5655,1.5682,1.5685,1.5763,1.5805,1.5675,1.3081,0.7488,0.0962,1.5891,2.1238,1.9701,1.9774,2.0796,2.1951,1.8808,1.7699,1.7809,1.7809,1.7789,1.827,2.122,1.8211,1.4254,2.0117,2.2082,2.1036,1.5093,1.6236,1.7894,1.0807,0.937,1.2126,2.1562,2.2017,1.9272,1.5941,1.5193,1.4309,1.1119,1.0371,1.0262,1.0123,1.0096,1.1221,1.4644,1.2324,0.0,0.0,1.5129,1.516,1.5054,1.224,1.0305,1.0296,1.6534,1.9156,1.5652,1.2433,1.3551,2.0249,2.0591,2.0594,2.0605,2.0605,2.0605,2.0605,2.0605,2.0605,2.0605,2.0605,2.0605,2.0605,2.0605,2.0605,2.0605,2.0605,2.0605,2.0605,2.0605,2.0605,2.0605,2.0605,2.2695,2.5703,2.5703,2.5703,2.5703,0.4627,0.5482,0.628,0.6287,0.5331,0.4953,0.6092,0.663,0.7908,1.0767,1.1124,1.0258,0.7955,0.6743,0.5973,0.5692,1.1343,1.4697,1.4095,1.4162,1.3493,1.1884,1.0576,1.0092,1.0567,1.1375,1.2668,1.4483,1.5371,1.5811,1.5773,1.3976,1.4107,1.5807,1.5778,1.3206,0.9187,1.4244,1.8351,2.1427,2.1417,2.1763,2.2198,2.1174,2.0781,2.0524,1.8514,1.7798,1.8257,2.1284,2.095,1.9651,2.166,2.2317,2.1912,1.9892,2.0899,2.2136,1.9697,1.9158,2.0199,2.3984,2.0881,1.6624,1.5459,1.3442,1.1538,1.0507,1.0293,1.0265,1.0118,1.0102,0.9748,0.8689,0.941,1.1286,0.0,1.5196,1.5198,1.5203,1.025,0.8662,1.3223,1.1648,0.9854,0.8674,0.9569,1.3153,2.0034,2.0521,2.0601,2.0605,2.0605,2.0605,2.0605,2.0605,2.0605,2.0605,2.0605,2.0605,2.0605,2.0605,2.0605,2.0605,2.0605,2.0605,2.0605,2.0605,2.0605,2.0605,2.0605,2.2695,2.5703,2.5703,2.5703,2.5703,0.5094,0.6504,0.7701,0.7689,0.676,0.6394,0.7538,0.7705,0.852,1.0761,1.159,1.1367,0.9828,0.7688,0.6499,0.6791,0.9604,1.222,1.4265,1.3831,1.356,1.3641,1.2581,1.2789,1.446,1.2726,1.2687,1.4521,1.4412,1.4875,1.5728,1.3077,1.3245,1.585,1.7188,1.6148,1.341,1.3413,1.6834,2.2297,2.2289,2.0391,1.7862,2.1088,2.2289,2.2031,2.0101,1.8718,1.8251,2.1289,2.2293,2.2302,2.2293,2.2611,2.2976,2.297,2.3566,2.4192,2.4203,2.4206,2.4384,2.5115,2.1129,1.6696,1.548,1.2548,1.0142,1.0275,1.0292,1.0265,1.0128,1.0096,0.9397,0.7239,0.7698,0.9925,0.0,1.5193,1.5207,1.5205,1.026,0.8168,1.1429,0.8787,0.5887,0.3469,0.7518,1.2017,1.6434,1.6842,1.8059,2.0527,2.0605,2.0605,2.0605,2.0605,2.0605,2.0605,2.0605,2.0605,2.0605,2.0605,2.0605,2.0605,2.0605,2.0605,2.0605,2.0605,2.0605,2.0723,2.1934,2.3769,2.5703,2.5703,2.5703,2.5703,0.5219,0.6556,0.7713,0.7692,0.7697,0.7713,0.7701,0.7853,0.7885,0.7671,0.9265,1.114,1.3011,1.3182,1.3202,1.3215,0.7287,0.6502,1.3434,1.2118,1.2318,1.5106,1.5618,1.7382,2.0643,1.5019,1.3257,1.5794,1.3246,1.3234,1.5557,1.2974,1.3271,1.5963,1.7067,1.6018,1.3392,1.3394,1.6836,2.2304,2.2303,1.7013,1.0079,1.8941,2.2297,2.2297,2.2315,2.0364,1.8251,2.1288,2.2338,2.2383,2.2376,2.323,2.4188,2.4201,2.4197,2.4205,2.4206,2.4199,2.4374,2.5122,2.2917,1.9713,1.6461,1.3074,1.0664,1.0772,1.0947,1.0963,1.0652,1.0471,1.0298,1.0124,0.7559,0.7858,1.4294,1.5193,1.5143,1.4975,1.2087,0.884,0.5661,0.822,0.7367,0.0752,0.6372,1.0102,1.0094,1.039,1.3722,2.0625,2.0684,2.0605,2.0605,2.0605,2.0605,2.0605,2.0605,2.0605,2.0605,2.0605,2.0605,2.0605,2.0605,2.0605,2.0605,2.0605,2.0605,2.0918,2.418,2.5547,2.5703,2.5703,2.5703,2.5703,0.704,0.7391,0.7692,0.7687,0.7698,0.77,0.7696,0.9914,1.0439,0.729,1.0124,1.2636,1.3159,1.3195,1.3205,1.3199,0.9553,0.7799,0.9146,1.1263,1.3431,1.5562,1.6273,1.668,1.6773,1.5909,1.5443,1.5437,1.4975,1.4106,1.2804,1.2113,1.376,1.7198,1.5345,1.4124,1.3392,1.3402,1.6828,2.2312,2.2314,1.827,1.2977,1.9712,2.2318,2.2307,2.2281,2.0363,1.8257,2.127,2.2922,2.3715,2.3719,2.3956,2.4205,2.4217,2.4191,2.4191,2.4189,2.4216,2.4385,2.5122,2.481,2.4082,2.3193,2.0363,1.7919,1.7944,1.998,2.091,1.8178,1.5691,1.3167,1.0532,1.1515,1.3221,1.4965,1.5207,1.4266,1.1716,1.0626,0.9752,0.8902,0.9584,0.8341,0.4114,0.7717,1.0105,1.0096,1.2636,1.726,2.418,2.1934,2.0605,2.0605,2.0605,2.0605,2.0605,2.0605,2.0605,2.0605,2.0605,2.0605,2.0605,2.0605,2.0605,2.0605,2.0605,2.0605,2.0684,2.1562,2.3457,2.5703,2.5703,2.5703,2.5703,0.7691,0.7693,0.7695,0.7695,0.7693,0.8208,0.9725,1.1641,1.2095,0.9788,0.9106,1.0281,1.395,1.4349,1.435,1.4334,0.9564,0.7117,0.8469,1.0962,1.3433,1.5786,1.5536,1.5357,1.548,1.5833,1.6181,1.661,1.5144,1.4222,1.3815,1.2924,1.4395,1.7737,1.6066,1.4611,1.3571,1.6177,1.7905,1.8903,1.8886,1.8578,0.0,2.1855,2.3138,2.3147,2.3122,2.1685,2.0108,2.2382,2.362,2.4199,2.4184,2.4213,2.4198,2.4211,2.4189,2.4271,2.4588,2.4676,2.4793,2.519,2.541,2.5565,2.5663,2.4213,2.2829,2.2831,2.4354,2.5072,2.3045,1.9924,1.6002,1.0936,1.1708,1.297,1.2963,1.2974,1.2262,1.0332,0.881,0.8492,0.9952,1.0105,0.9317,0.7425,0.9037,1.0122,1.0187,1.6356,2.0291,2.1172,2.0801,1.9141,1.6133,1.9082,2.0605,2.0605,2.0605,2.0605,2.0605,2.0605,2.0605,2.0605,2.0605,2.0605,2.0723,2.2207,2.1953,2.0742,2.2246,2.4004,2.5703,2.5703,2.5703,2.5703,0.7703,0.7695,0.7695,0.7714,0.772,0.8894,1.2401,1.2945,1.3131,1.3581,0.8596,0.7784,1.4998,1.578,1.5806,1.5797,0.9464,0.6732,0.9691,1.0984,1.2938,1.5862,1.4505,1.4373,1.5806,1.558,1.6454,1.8444,1.4924,1.4323,1.6457,1.4368,1.4763,1.7241,1.7767,1.6346,1.3875,1.8967,1.9052,1.5785,1.5779,1.916,2.4213,2.42,2.4187,2.4198,2.4198,2.3489,2.2716,2.3834,2.419,2.4205,2.4207,2.421,2.4192,2.42,2.4265,2.4495,2.5139,2.5298,2.531,2.5293,2.5297,2.5366,2.5645,2.5696,2.5703,2.5703,2.57,2.5696,2.5703,2.2179,1.726,1.1115,1.0108,1.0102,1.01,1.0102,1.0441,1.1331,0.8073,0.0,0.9206,0.9838,0.9724,0.8848,1.0011,1.0621,1.0317,1.9228,2.201,1.6914,1.8379,1.6367,1.0352,1.625,1.9258,1.9258,2.0176,2.0605,2.0605,2.0605,2.0605,2.0605,2.0605,2.0605,2.0879,2.4297,2.3945,2.1562,2.4531,2.5703,2.5703,2.5703,2.5703,2.5703,0.7703,0.7718,0.7709,0.7693,0.7698,0.8932,1.2605,1.3155,1.3799,1.5687,1.49,1.461,1.5692,1.5786,1.5803,1.5801,1.4515,1.2633,1.007,1.1065,1.2978,1.5727,1.5805,1.6051,1.6598,1.7085,1.7948,1.9192,1.7255,1.6387,1.6457,1.4381,1.3681,1.4293,1.7576,1.7276,1.4342,1.4768,1.7875,2.249,2.2502,2.318,2.4192,2.419,2.4205,2.42,2.42,2.4078,2.3887,2.4121,2.4213,2.4189,2.4208,2.4186,2.42,2.4204,2.462,2.5146,2.526,2.5291,2.5302,2.5303,2.5309,2.5377,2.5643,2.5705,2.5703,2.5703,2.5703,2.5703,2.5703,1.8259,1.17,1.0464,1.0161,1.0098,1.0093,1.011,1.2195,1.7847,1.3026,0.8372,0.6183,0.8474,0.7775,0.2192,0.9547,1.3132,1.0446,1.4682,1.9258,2.375,1.623,1.1523,1.0312,1.1504,1.2109,1.2168,1.7871,2.0605,2.0605,2.0605,2.0605,2.0605,2.0605,2.0605,2.0879,2.4297,2.5352,2.4863,2.5469,2.5703,2.5703,2.5703,2.5703,2.5703,0.6517,0.7074,0.7706,0.7686,1.0225,1.1326,0.8499,1.1773,1.4594,1.4759,1.5592,1.6062,1.5824,1.5811,1.5818,1.58,1.5798,1.4978,1.3087,1.3524,1.4454,1.5724,1.6301,1.6275,1.5671,1.7083,1.8053,1.8568,1.692,1.6653,1.7588,1.5509,1.4951,1.5714,1.646,1.5949,1.4703,1.7713,2.1004,2.419,2.4209,2.4198,2.4201,2.4195,2.4215,2.4215,2.4215,2.4204,2.4191,2.421,2.421,2.4213,2.4198,2.4451,2.4776,2.4774,2.5025,2.5302,2.5294,2.5301,2.5303,2.5303,2.5309,2.5372,2.5649,2.5701,2.5703,2.5703,2.5703,2.5703,2.5703,2.0195,1.5056,1.3249,1.2894,1.2226,1.0452,1.1732,1.5394,2.2289,1.5461,0.8855,0.5428,0.82,0.8831,0.5495,0.9784,1.2664,1.2929,1.4519,1.6912,2.0254,1.5547,1.3809,1.5625,1.5644,1.3848,1.0371,1.7305,2.0605,2.0605,2.0605,2.0605,2.0605,2.0605,2.0605,2.0723,2.2383,2.4102,2.5703,2.5703,2.5703,2.5703,2.5703,2.5703,2.5703,0.597,0.6913,0.8155,0.8182,1.2229,1.3525,0.7675,1.1936,1.5329,1.3934,1.4967,1.5808,1.5797,1.5787,1.5796,1.5811,1.579,1.5817,1.5805,1.5798,1.5845,1.5918,1.6444,1.623,1.5183,1.7194,1.8189,1.8115,1.6967,1.7186,1.8596,1.6623,1.6579,1.7998,1.5576,1.3352,1.1971,2.0554,2.4285,2.4436,2.4429,2.4436,2.4436,2.4436,2.4436,2.4436,2.4436,2.4426,2.4441,2.4429,2.4422,2.4431,2.4422,2.4823,2.5294,2.5309,2.5298,2.5302,2.5302,2.5303,2.5303,2.5303,2.5309,2.5372,2.5649,2.5701,2.5703,2.5703,2.5703,2.5703,2.5703,2.3496,2.0547,1.7068,1.7107,1.6147,1.1973,1.3701,1.7415,2.2859,1.6992,1.171,0.968,1.0623,1.1042,1.0211,1.0122,1.1643,1.5173,1.5387,1.5403,1.5391,1.6113,1.8164,2.1641,2.0957,1.7871,1.2559,1.8008,2.0605,2.0605,2.0605,2.0605,2.0605,2.0605,2.1016,2.1621,2.0898,2.2187,2.4687,2.543,2.5703,2.5703,2.5703,2.5703,2.5703,0.7671,0.8215,0.9712,0.9707,1.1102,1.3598,1.7575,1.6834,1.5733,1.5593,1.5693,1.5816,1.5816,1.58,1.5805,1.5807,1.5794,1.5816,1.5809,1.5819,1.5956,1.6324,1.6402,1.6625,1.7051,1.8773,1.952,1.9171,1.997,1.9699,1.8395,1.6793,1.7156,1.902,1.589,0.9606,0.2359,1.771,2.4585,2.52,2.5196,2.521,2.521,2.521,2.521,2.521,2.521,2.5194,2.5208,2.5203,2.5208,2.5201,2.5197,2.5246,2.529,2.529,2.5312,2.5293,2.5303,2.5303,2.5303,2.5303,2.5309,2.5372,2.5649,2.5701,2.5703,2.5703,2.5703,2.5703,2.5703,2.5449,2.4102,2.0664,2.2715,2.2441,1.5859,1.5195,1.5644,1.6289,1.8301,2.0722,2.3496,1.8396,1.3625,1.0515,1.0176,1.1606,1.5039,1.5329,1.5403,1.5391,1.8477,2.1758,2.5195,2.2148,2.0273,1.9648,2.0293,2.0605,2.0605,2.0605,2.0605,2.0605,2.0605,2.2363,2.498,2.1875,2.0781,2.1387,2.4492,2.5703,2.5703,2.5703,2.5703,2.5703,1.3047,1.4305,1.5785,1.5785,1.4913,1.4906,1.7046,1.6467,1.5807,1.5787,1.5787,1.5787,1.5814,1.5799,1.5805,1.5814,1.1432,1.0701,1.5508,1.1322,1.0869,1.5823,1.6547,1.6938,1.7173,1.83,1.9247,2.002,1.8842,1.8654,1.9399,1.7808,1.8904,2.2189,2.0908,1.8407,1.561,2.2114,2.5034,2.5298,2.5309,2.5306,2.5306,2.5306,2.5306,2.5306,2.5306,2.5299,2.5293,2.5293,2.5301,2.5298,2.5297,2.5293,2.5292,2.5297,2.5294,2.5298,2.5298,2.5298,2.5298,2.5298,2.5303,2.5363,2.5639,2.5693,2.5703,2.5703,2.5703,2.5703,2.5703,2.5703,2.5254,2.3887,1.9609,1.6211,1.5508,1.5391,1.4648,1.2578,1.7227,1.9511,1.673,1.5817,1.4838,1.3454,1.3236,1.3755,1.5121,1.9266,1.8744,1.2539,1.3691,1.5078,1.6445,1.9219,2.0605,2.0605,2.0605,2.0605,2.0605,2.0605,2.0605,2.0605,2.0605,2.1387,2.2695,2.3379,2.3652,2.3809,2.5176,2.5703,2.5703,2.5703,2.5703,2.5703,1.7441,1.8649,1.9703,1.9703,1.8172,1.669,1.5924,1.5802,1.5787,1.5793,1.579,1.5799,1.5799,1.5799,1.5794,1.5802,1.0647,0.9781,1.5418,1.0531,1.0075,1.612,1.6979,1.7358,1.7449,1.8267,1.9293,2.0464,1.9327,1.9303,2.0318,1.9243,2.0396,2.338,2.4181,2.482,2.5291,2.5312,2.5303,2.529,2.5292,2.5297,2.5297,2.5297,2.5297,2.5297,2.5297,2.5306,2.5305,2.5383,2.5418,2.5401,2.5316,2.5294,2.5312,2.5396,2.5413,2.5411,2.5411,2.5411,2.5411,2.5411,2.5414,2.5464,2.5659,2.5698,2.5703,2.5703,2.5703,2.5703,2.5703,2.5703,2.5703,2.5703,1.7871,1.3359,1.7793,1.8437,1.7539,1.5117,1.9121,1.8984,1.1077,1.4272,1.6435,1.5474,1.4387,1.4192,1.5207,1.9971,2.0268,1.498,1.4824,1.3848,1.1816,1.8652,2.1582,2.0605,2.0605,2.0605,2.0605,2.0605,2.0605,2.0605,2.0605,2.0605,2.0879,2.4297,2.5703,2.5703,2.5703,2.5703,2.5703,2.5703,2.5703,2.5703,1.9639,1.9693,1.9692,1.9714,1.9687,1.8791,1.6192,1.5809,1.5786,1.5815,1.5794,1.5799,1.5799,1.5799,1.5802,1.5806,1.5725,1.5692,1.5791,1.5719,1.6276,1.7711,1.7777,1.7962,1.8295,1.9342,2.0043,2.0405,2.2884,2.2997,2.0904,2.1133,2.128,2.144,2.4094,2.529,2.5302,2.5299,2.529,2.5297,2.5302,2.5294,2.5294,2.5294,2.5294,2.5294,2.5294,2.5294,2.5333,2.5605,2.5707,2.5644,2.5372,2.5294,2.5352,2.563,2.5707,2.5707,2.5707,2.5707,2.5707,2.5707,2.571,2.5698,2.5698,2.5698,2.5703,2.5703,2.5703,2.5703,2.5703,2.5703,2.5703,2.5703,1.9863,1.7734,2.4609,2.5586,2.5566,2.5527,2.5586,2.1602,1.1309,1.6339,1.8888,1.5648,1.2277,1.1825,1.5218,1.5472,1.8587,2.5293,2.5508,2.2246,1.5391,2.2187,2.3945,2.0605,2.0605,2.0605,2.0605,2.0605,2.0605,2.0605,2.0605,2.0605,2.0879,2.4297,2.5703,2.5703,2.5703,2.5703,2.5703,2.5703,2.5703,2.5703,1.7393,1.8467,1.9708,1.9685,1.9708,1.9403,1.8609,1.2329,0.9631,1.5091,1.5803,1.5799,1.5799,1.5799,1.5807,1.5798,1.5806,1.5788,1.5806,1.5801,1.6398,1.7737,1.7807,1.7515,1.6873,1.9094,2.0245,2.0246,2.1206,2.1668,2.1659,2.1868,2.262,2.3796,2.4657,2.5182,2.5425,2.5345,2.5409,2.5579,2.5561,2.5571,2.5571,2.5571,2.5571,2.5571,2.5571,2.5574,2.5584,2.5662,2.5698,2.5694,2.5595,2.5564,2.5584,2.5662,2.5701,2.5694,2.5694,2.5694,2.5694,2.5694,2.5698,2.5701,2.5701,2.5703,2.5703,2.5703,2.5703,2.5703,2.5703,2.5703,2.5703,2.5703,2.3867,2.3184,2.5391,2.5703,2.5703,2.5703,1.9492,1.3905,1.0629,1.6498,2.0015,1.883,1.5578,1.4154,1.5337,1.5405,1.7499,2.207,2.2227,2.0605,1.7207,2.0527,2.2266,2.2363,2.1172,2.0605,2.0605,2.0605,2.0605,2.0605,2.0605,2.1914,2.416,2.5254,2.5703,2.5703,2.5703,2.5703,2.5703,2.5703,2.5703,2.5703,1.6998,1.6211,1.6208,1.918,1.969,1.9705,1.9686,1.3239,1.0154,1.5156,1.5792,1.5797,1.5792,1.5792,1.5792,1.5792,1.579,1.459,1.1736,1.4687,1.6915,1.7773,1.7795,1.5948,1.2004,1.6028,1.9173,2.1203,2.1824,2.2443,2.3064,2.3239,2.3897,2.4934,2.5067,2.5263,2.551,2.5459,2.5547,2.5703,2.5701,2.5707,2.5707,2.5707,2.5707,2.5707,2.5707,2.5701,2.5694,2.5694,2.57,2.5703,2.5703,2.5701,2.5694,2.5694,2.5701,2.5703,2.5703,2.5703,2.5703,2.5703,2.5703,2.5703,2.5703,2.5703,2.5703,2.5703,2.5703,2.5703,2.5703,2.5703,2.5703,2.5703,2.5703,2.5703,2.5703,2.5703,2.4746,2.2148,1.6133,1.3222,1.5831,1.8824,2.0541,2.0414,1.7218,1.5306,1.5395,1.6639,1.8359,2.0527,2.0605,2.0078,1.8984,2.0488,2.1562,2.2207,2.1113,2.1269,2.2461,2.1191,2.1309,2.2519,2.2519,2.373,2.5703,2.5703,2.5703,2.5703,2.5703,2.5703,2.5703,2.5703,2.5703,2.5703,1.8238,1.3766,1.1047,1.8418,1.979,1.989,1.9899,1.7702,1.6008,1.5822,1.5814,1.5792,1.5802,1.5883,1.5941,1.5941,1.5947,1.2947,0.5882,1.3193,1.7797,1.7789,1.8014,1.4362,0.6328,1.2074,1.7768,2.3042,2.4227,2.4799,2.4818,2.4968,2.5034,2.5038,2.5346,2.5498,2.5518,2.5648,2.5701,2.5705,2.5702,2.5703,2.5703,2.5703,2.5703,2.5703,2.5703,2.5703,2.5703,2.5703,2.5703,2.5703,2.5703,2.5703,2.5703,2.5703,2.5703,2.5703,2.5703,2.5703,2.5703,2.5703,2.5703,2.5703,2.5703,2.5703,2.5703,2.5703,2.5703,2.5703,2.5703,2.5703,2.5703,2.5703,2.5703,2.5703,2.5703,2.5703,2.3047,1.5898,1.5469,1.8281,2.4727,2.2475,2.0591,2.0594,1.7581,1.5664,1.5415,1.8709,2.0605,2.0605,2.0605,2.0605,2.0605,2.1641,2.1641,2.0605,2.0605,2.2383,2.5586,2.2402,2.2695,2.5703,2.5703,2.5703,2.5703,2.5703,2.5703,2.5703,2.5703,2.5703,2.5703,2.5703,2.5703,2.5703,1.9337,1.8176,1.7497,1.9354,2.0799,2.1664,2.1695,2.0045,1.8054,1.6061,1.5806,1.5816,1.5806,1.6706,1.733,1.733,1.7333,1.657,1.4772,1.6622,1.78,1.7811,2.0016,2.0716,1.9629,2.1124,2.2741,2.4429,2.4726,2.4911,2.4949,2.5141,2.5265,2.5305,2.5391,2.5485,2.5574,2.5615,2.5652,2.5702,2.5703,2.5703,2.5703,2.5703,2.5703,2.5703,2.5703,2.5703,2.5703,2.5703,2.5703,2.5703,2.5703,2.5703,2.5703,2.5703,2.5703,2.5703,2.5703,2.5703,2.5703,2.5703,2.5703,2.5703,2.5703,2.5703,2.5703,2.5703,2.5703,2.5703,2.5703,2.5703,2.5703,2.5703,2.5703,2.5703,2.5703,2.5703,2.2168,1.2637,1.6152,2.0019,2.1641,2.1074,2.0605,2.0605,1.9843,1.8202,1.5546,1.8711,2.0605,2.0605,2.0605,2.0605,2.0605,2.0879,2.0879,2.0605,2.0605,2.2383,2.5664,2.4863,2.4922,2.5703,2.5703,2.5703,2.5703,2.5703,2.5703,2.5703,2.5703,2.5703,2.5703,2.5703,2.5703,2.5703,2.073,2.0255,1.9686,1.9693,2.1126,2.2307,2.2293,2.0334,1.8322,1.6902,1.6701,1.6719,1.6692,1.7363,1.7802,1.7796,1.7798,1.7812,1.7803,1.7787,1.779,1.7805,2.1245,2.3491,2.4186,2.4198,2.4498,2.5082,2.5088,2.5102,2.5152,2.5274,2.5371,2.5394,2.5451,2.5539,2.5603,2.5634,2.5661,2.5703,2.5703,2.5703,2.5703,2.5703,2.5703,2.5703,2.5703,2.5703,2.5703,2.5703,2.5703,2.5703,2.5703,2.5703,2.5703,2.5703,2.5703,2.5703,2.5703,2.5703,2.5703,2.5703,2.5703,2.5703,2.5703,2.5703,2.5703,2.5703,2.5703,2.5703,2.5703,2.5703,2.5703,2.5703,2.5703,2.5156,2.3594,2.0644,1.7754,1.5293,1.9707,2.2324,2.0742,2.2012,2.2285,2.0723,2.0605,1.9766,1.7871,2.0332,2.1426,2.0625,2.0565,2.0565,2.0605,2.0605,2.0605,2.0605,2.0605,2.2383,2.5703,2.5703,2.5703,2.5703,2.5703,2.5703,2.5703,2.5703,2.5703,2.5703,2.5703,2.5703,2.5703,2.5703,2.5703,2.5703,2.202,2.1103,2.0081,2.0094,2.0924,2.1778,2.2231,1.9741,1.7807,1.7802,1.7808,1.7798,1.7795,1.7786,1.779,1.7805,1.78,1.78,1.7811,1.78,1.7794,1.7794,2.1911,2.4192,2.4208,2.4302,2.4677,2.5303,2.5303,2.5303,2.5313,2.5371,2.5413,2.5421,2.5547,2.5603,2.5629,2.5682,2.5703,2.5703,2.5703,2.5703,2.5703,2.5703,2.5703,2.5703,2.5703,2.5703,2.5703,2.5703,2.5703,2.5703,2.5703,2.5703,2.5703,2.5703,2.5703,2.5703,2.5703,2.5703,2.5703,2.5703,2.5703,2.5703,2.5703,2.5703,2.5703,2.5703,2.5703,2.5703,2.5703,2.5703,2.5703,2.5703,2.5273,2.373,2.0293,1.4316,1.3047,2.0488,2.3926,2.4355,2.0937,2.3691,2.4277,2.0859,2.1074,2.1133,2.0625,2.2168,2.2305,2.0644,2.0678,2.0678,2.0605,2.0605,2.0605,2.0605,2.0605,2.2383,2.5703,2.5703,2.543,2.4961,2.5488,2.5703,2.5703,2.5703,2.5702,2.5701,2.5702,2.5703,2.5703,2.5703,2.5703,2.5703,2.2246,2.2071,2.1907,2.1881,2.0007,1.9372,2.1913,1.9743,1.7804,1.7796,1.7792,1.7805,1.7794,1.7794,1.78,1.7789,1.78,1.7804,1.7794,1.78,1.7803,1.7799,2.1904,2.421,2.4207,2.4814,2.5191,2.5303,2.5303,2.5303,2.5313,2.5371,2.5428,2.5498,2.5561,2.5634,2.5683,2.5703,2.5703,2.5703,2.5703,2.5703,2.5703,2.5703,2.5703,2.5703,2.5703,2.5703,2.5703,2.5703,2.5703,2.5703,2.5703,2.5703,2.5703,2.5703,2.5703,2.5703,2.5703,2.5703,2.5703,2.5703,2.5703,2.5703,2.5703,2.5703,2.5703,2.5703,2.5703,2.5703,2.5703,2.5703,2.5703,2.5703,2.3281,2.0176,1.6699,1.2793,1.3926,2.373,2.5371,2.4355,2.0937,2.3691,2.4277,2.0859,2.3281,2.3652,2.0742,2.1777,2.1875,2.0644,2.1308,2.1328,2.0605,2.0605,2.0605,2.0605,2.0605,2.2383,2.5703,2.5703,2.4121,2.1543,2.4453,2.5701,2.5705,2.5705,2.571,2.5699,2.5696,2.5705,2.5709,2.5702,2.5703,2.5703,2.2312,2.2299,2.179,2.0159,1.872,1.8275,1.9664,1.8697,1.7806,1.7805,1.7811,1.7811,1.7811,1.7811,1.7805,1.7795,1.7799,1.8028,1.8568,1.811,1.8026,1.859,2.22,2.4395,2.4767,2.5126,2.5302,2.5303,2.5303,2.5303,2.5313,2.5332,2.5415,2.5552,2.5584,2.5636,2.5703,2.5703,2.5703,2.5703,2.5703,2.5703,2.5703,2.5703,2.5703,2.5703,2.5703,2.5703,2.5703,2.5703,2.5703,2.5703,2.5703,2.5703,2.5703,2.5703,2.5703,2.5703,2.5703,2.5703,2.5703,2.5703,2.5703,2.5703,2.5703,2.5703,2.5703,2.5703,2.5703,2.5703,2.5703,2.5703,2.5703,2.5703,2.1269,1.7246,1.5625,1.7246,2.0352,2.5137,2.5703,2.5078,2.3496,2.4766,2.5059,2.3477,2.4805,2.4609,2.207,2.1582,2.1133,2.0625,2.0996,2.0996,2.0541,2.1484,2.1484,2.0625,2.2461,2.418,2.5703,2.5703,2.4844,2.3437,2.5019,2.5703,2.5698,2.5542,2.5478,2.5488,2.5479,2.5561,2.5699,2.5703,2.5703,2.5703,2.2302,2.1737,2.05,1.82,1.7806,1.7797,1.7817,1.7815,1.7803,1.7805,1.7811,1.7811,1.7811,1.7805,1.7791,1.7811,1.8006,1.8487,1.9251,1.8566,1.8834,2.0369,2.2849,2.4537,2.5286,2.5304,2.5305,2.5303,2.5303,2.5303,2.5313,2.5294,2.5376,2.5532,2.5603,2.5655,2.5703,2.5703,2.5703,2.5703,2.5703,2.5703,2.5703,2.5703,2.5703,2.5703,2.5703,2.5703,2.5703,2.5703,2.5703,2.5703,2.5703,2.5703,2.5703,2.5703,2.5703,2.5703,2.5703,2.5703,2.5703,2.5703,2.5703,2.5703,2.5703,2.5703,2.5703,2.5703,2.5703,2.5703,2.5703,2.5703,2.5703,2.5703,2.125,1.7519,1.6719,2.1855,2.5703,2.5703,2.5703,2.5703,2.5703,2.5703,2.5703,2.5703,2.5703,2.4766,2.2637,2.1543,2.0879,2.0605,2.0605,2.0585,2.0516,2.1852,2.2265,2.1816,2.4453,2.5703,2.5703,2.5703,2.5703,2.5703,2.5703,2.5703,2.5682,2.5487,2.5388,2.5386,2.5388,2.5525,2.5698,2.5701,2.5701,2.5698,2.2302,2.0042,1.8054,1.7845,1.7786,1.78,1.7789,1.7805,1.7805,1.7811,1.7811,1.7811,1.7811,1.78,1.779,1.7793,1.8642,1.9219,1.9309,1.9237,2.0572,2.3694,2.4062,2.4549,2.5284,2.5308,2.5293,2.5303,2.5303,2.5303,2.5313,2.5294,2.5312,2.5338,2.5584,2.5694,2.5703,2.5703,2.5703,2.5703,2.5703,2.5703,2.5703,2.5703,2.5703,2.5703,2.5703,2.5703,2.5703,2.5703,2.5703,2.5703,2.5703,2.5703,2.5703,2.5703,2.5703,2.5703,2.5703,2.5703,2.5703,2.5703,2.5703,2.5703,2.5703,2.5703,2.5703,2.5703,2.5703,2.5703,2.5703,2.5703,2.5703,2.5703,2.5273,2.3848,2.0664,2.3379,2.5703,2.5703,2.5703,2.5703,2.5703,2.5703,2.5703,2.5703,2.5703,2.4258,2.0957,2.168,2.1699,2.0625,2.0605,2.0605,2.0586,2.0714,2.2318,2.5332,2.558,2.5697,2.5703,2.5703,2.5703,2.5703,2.5703,2.57,2.5703,2.5683,2.5665,2.5667,2.5671,2.5681,2.5706,2.569,2.5701,2.5706,2.2297,1.9855,1.7804,1.7796,1.7809,1.7792,1.7805,1.7811,1.7811,1.7811,1.7799,1.7805,1.7793,1.7791,1.8059,1.869,1.9076,1.9288,1.9304,2.1207,2.2887,2.4134,2.4636,2.5015,2.529,2.5299,2.5303,2.5303,2.5303,2.5303,2.5303,2.5293,2.5302,2.5313,2.5496,2.562,2.5703,2.5703,2.5703,2.5703,2.5703,2.5703,2.5703,2.5703,2.5703,2.5703,2.5703,2.5703,2.5703,2.5703,2.5703,2.5703,2.5703,2.5703,2.5703,2.5703,2.5703,2.5703,2.5703,2.5703,2.5703,2.5703,2.5703,2.5703,2.5703,2.5703,2.5703,2.5703,2.5703,2.5703,2.5703,2.5703,2.5703,2.5703,2.5703,2.5254,2.3945,2.4883,2.5703,2.5703,2.5703,2.5703,2.5703,2.5703,2.5703,2.5703,2.5703,2.5137,2.3828,2.2168,2.1288,2.134,2.0859,2.0937,2.1641,2.203,2.2264,2.2383,2.4628,2.5702,2.5703,2.5703,2.5703,2.5703,2.5703,2.5703,2.57,2.57,2.5697,2.5691,2.5698,2.5709,2.5681,2.5517,2.546,2.544,2.2306,1.988,1.8114,1.9043,1.8413,1.7804,1.7806,1.7813,1.7813,1.7813,1.7806,1.8148,1.9107,1.9569,1.9679,1.9326,1.9305,1.9312,1.9287,2.2585,2.4433,2.4204,2.4908,2.5298,2.5291,2.5301,2.5303,2.5303,2.5303,2.5303,2.5303,2.5303,2.534,2.543,2.5513,2.5606,2.5703,2.5703,2.5703,2.5703,2.5703,2.5703,2.5703,2.5703,2.5703,2.5703,2.5703,2.5703,2.5703,2.5703,2.5703,2.5703,2.5703,2.5703,2.5703,2.5703,2.5703,2.5703,2.5703,2.5703,2.5703,2.5703,2.5703,2.5703,2.5703,2.5703,2.5703,2.5703,2.5703,2.5703,2.5703,2.5703,2.5703,2.5703,2.5703,2.5703,2.5703,2.5703,2.5703,2.5703,2.5703,2.5703,2.5703,2.5703,2.5703,2.5703,2.5703,2.5703,2.5703,2.3477,2.1952,2.1437,2.1151,2.1504,2.2536,2.3138,2.2943,2.2009,2.3425,2.4656,2.5701,2.5701,2.5702,2.5703,2.5703,2.5703,2.5703,2.5703,2.5703,2.5703,2.5703,2.5696,2.5662,2.5408,2.5308,2.5292,2.2302,1.99,1.8775,2.179,1.9816,1.7838,1.7838,1.7838,1.7838,1.7838,1.7845,1.899,2.199,2.3433,2.2886,1.9615,1.9308,1.931,1.9328,2.3078,2.4964,2.4238,2.4903,2.5291,2.5303,2.5303,2.5303,2.5303,2.5303,2.5303,2.5303,2.5303,2.5437,2.5707,2.5707,2.5704,2.5703,2.5703,2.5703,2.5703,2.5703,2.5703,2.5703,2.5703,2.5703,2.5703,2.5703,2.5703,2.5703,2.5703,2.5703,2.5703,2.5703,2.5703,2.5703,2.5703,2.5703,2.5703,2.5703,2.5703,2.5703,2.5703,2.5703,2.5703,2.5703,2.5703,2.5703,2.5703,2.5703,2.5703,2.5703,2.5703,2.5703,2.5703,2.5703,2.5703,2.5703,2.5703,2.5703,2.5703,2.5703,2.5703,2.5703,2.5703,2.5703,2.5703,2.5703,2.5703,2.5703,2.5703,2.4141,2.0742,2.1465,2.2282,2.3098,2.363,2.4491,2.5659,2.2269,2.241,2.5698,2.5698,2.5694,2.5703,2.5703,2.5703,2.5703,2.5703,2.5703,2.5703,2.5703,2.5707,2.5668,2.5391,2.5311,2.5303,2.2302,2.1583,2.1235,2.2139,2.1566,2.0967,2.0978,2.0964,2.0947,2.0965,2.0976,2.1634,2.344,2.3971,2.3818,2.2813,2.0625,2.049,2.3328,2.4632,2.5201,2.4982,2.5184,2.5291,2.5303,2.5299,2.5302,2.5294,2.5294,2.5294,2.5302,2.5294,2.535,2.5435,2.5609,2.5707,2.5703,2.5703,2.5703,2.5703,2.5703,2.5703,2.5703,2.5703,2.5703,2.5703,2.5703,2.5703,2.5703,2.5703,2.5703,2.5703,2.5703,2.5703,2.5703,2.5703,2.5703,2.5703,2.5703,2.5703,2.5703,2.5703,2.5703,2.5703,2.5703,2.5703,2.5703,2.5703,2.5703,2.5703,2.5703,2.5703,2.5703,2.5703,2.5703,2.5703,2.5703,2.5703,2.5703,2.5703,2.5703,2.5703,2.5703,2.5703,2.5703,2.5703,2.5703,2.5703,2.5703,2.5703,2.5211,2.4141,2.281,2.2675,2.3853,2.3522,2.4098,2.5559,2.4429,2.4429,2.5422,2.5609,2.5705,2.5693,2.5702,2.5703,2.5703,2.5703,2.5703,2.5703,2.5703,2.5697,2.5678,2.541,2.5292,2.531,2.2287,2.2285,2.2297,2.2312,2.2717,2.3041,2.3044,2.3061,2.2863,2.2367,2.2749,2.3343,2.4133,2.4196,2.4189,2.4207,2.2649,2.2716,2.5143,2.5305,2.5308,2.5303,2.5299,2.5308,2.5303,2.5309,2.5348,2.5464,2.5456,2.5406,2.5297,2.5309,2.5357,2.5474,2.5623,2.5694,2.5703,2.5703,2.5703,2.5703,2.5703,2.5703,2.5703,2.5703,2.5703,2.5703,2.5703,2.5703,2.5703,2.5703,2.5703,2.5703,2.5703,2.5703,2.5703,2.5703,2.5703,2.5703,2.5703,2.5703,2.5703,2.5703,2.5703,2.5703,2.5703,2.5703,2.5703,2.5703,2.5703,2.5703,2.5703,2.5703,2.5703,2.5703,2.5703,2.5703,2.5703,2.5703,2.5703,2.5703,2.5703,2.5703,2.5703,2.5703,2.5703,2.5703,2.5703,2.5703,2.5703,2.5703,2.5681,2.5637,2.4252,2.3575,2.3708,2.3274,2.3901,2.5587,2.5385,2.5307,2.5315,2.5469,2.5609,2.5701,2.5696,2.5702,2.5703,2.5703,2.5703,2.5703,2.5703,2.5699,2.5676,2.5511,2.5387,2.5309,2.2306,2.2401,2.2468,2.2465,2.3419,2.42,2.4188,2.4206,2.3773,2.2635,2.3468,2.4194,2.4197,2.4202,2.4192,2.4206,2.4879,2.5297,2.5303,2.5303,2.5303,2.5303,2.5303,2.5303,2.5293,2.5303,2.5425,2.5665,2.5685,2.5569,2.5297,2.5304,2.5447,2.5707,2.5707,2.5696,2.5703,2.5703,2.5703,2.5703,2.5703,2.5703,2.5703,2.5703,2.5703,2.5703,2.5703,2.5703,2.5703,2.5703,2.5703,2.5703,2.5703,2.5703,2.5703,2.5703,2.5703,2.5703,2.5703,2.5703,2.5703,2.5703,2.5703,2.5703,2.5703,2.5703,2.5703,2.5703,2.5703,2.5703,2.5703,2.5703,2.5703,2.5703,2.5703,2.5703,2.5703,2.5703,2.5703,2.5703,2.5703,2.5703,2.5703,2.5703,2.5703,2.5703,2.5703,2.5703,2.5703,2.5703,2.5703,2.5703,2.5572,2.4778,2.3237,2.3203,2.4024,2.565,2.5416,2.5301,2.5302,2.5302,2.5432,2.5671,2.5696,2.5693,2.5703,2.5703,2.5703,2.5703,2.5703,2.57,2.5698,2.5691,2.5529,2.529,2.2306,2.311,2.3791,2.3795,2.4031,2.4208,2.4215,2.42,2.4118,2.3808,2.4018,2.4203,2.4203,2.4192,2.4204,2.4197,2.4869,2.5302,2.5303,2.5303,2.5303,2.5303,2.5303,2.5303,2.5303,2.5297,2.5337,2.5379,2.5604,2.5565,2.5297,2.5304,2.544,2.5693,2.5709,2.5703,2.5703,2.5703,2.5703,2.5703,2.5703,2.5703,2.5703,2.5703,2.5703,2.5703,2.5703,2.5703,2.5703,2.5703,2.5703,2.5703,2.5703,2.5703,2.5703,2.5703,2.5703,2.5703,2.5703,2.5703,2.5703,2.5703,2.5703,2.5703,2.5703,2.5703,2.5703,2.5703,2.5703,2.5703,2.5703,2.5703,2.5703,2.5703,2.5703,2.5703,2.5703,2.5703,2.5703,2.5703,2.5703,2.5703,2.5703,2.5703,2.5703,2.5703,2.5703,2.5703,2.5703,2.5703,2.5702,2.5709,2.5675,2.5425,2.4963,2.4849,2.5003,2.5389,2.5335,2.5297,2.5293,2.529,2.533,2.5395,2.5613,2.5703,2.5709,2.5702,2.5703,2.5703,2.5703,2.5703,2.57,2.5703,2.5522,2.5293,2.2295,2.3329,2.4198,2.4208,2.4194,2.4198,2.4189,2.4202,2.4218,2.4189,2.4202,2.4203,2.421,2.4205,2.4337,2.4685,2.5069,2.5299,2.5303,2.5303,2.5303,2.5303,2.5303,2.5293,2.5293,2.3734,2.3697,2.5297,2.5437,2.5437,2.5297,2.5305,2.5438,2.5693,2.5703,2.5701,2.5703,2.5703,2.5703,2.5703,2.5703,2.5703,2.5703,2.5703,2.5703,2.5703,2.5703,2.5703,2.5703,2.5703,2.5703,2.5703,2.5703,2.5703,2.5703,2.5703,2.5703,2.5703,2.5703,2.5703,2.5703,2.5703,2.5703,2.5703,2.5703,2.5703,2.5703,2.5703,2.5703,2.5703,2.5703,2.5703,2.5703,2.5703,2.5703,2.5703,2.5703,2.5703,2.5703,2.5703,2.7168,2.8184,2.8184,2.668,2.5703,2.5703,2.5703,2.5703,2.5703,2.5703,2.5703,2.5697,2.569,2.5609,2.5414,2.5466,2.5426,2.5301,2.5299,2.5292,2.5313,2.5301,2.5302,2.5316,2.5443,2.5582,2.5701,2.5694,2.5701,2.5703,2.5703,2.5702,2.5694,2.5699,2.5526,2.5329,2.2564,2.3477,2.4203,2.4188,2.419,2.419,2.419,2.419,2.4209,2.4192,2.4192,2.4192,2.4213,2.4316,2.4633,2.5263,2.531,2.5303,2.5303,2.5303,2.5303,2.5303,2.5303,2.5313,2.5293,2.2585,2.2516,2.5309,2.5292,2.5301,2.5297,2.5291,2.542,2.5628,2.5673,2.5697,2.5703,2.5703,2.5703,2.5703,2.5703,2.5703,2.5703,2.5703,2.5703,2.5703,2.5703,2.5703,2.5703,2.5703,2.5703,2.5703,2.5703,2.5703,2.5703,2.5703,2.5703,2.5703,2.5703,2.5703,2.5703,2.5703,2.5703,2.5859,2.6445,2.6133,2.5879,2.6465,2.6582,2.6582,2.6582,2.6582,2.6582,2.6582,2.6582,2.6582,2.6582,2.6582,2.6582,2.6582,2.9141,3.0898,3.0898,2.8281,2.6582,2.6582,2.6582,2.6582,2.6582,2.6582,2.6582,2.6582,2.6005,2.5583,2.5375,2.5582,2.5599,2.5369,2.5912,2.5861,2.5293,2.5303,2.5301,2.5306,2.5297,2.5429,2.5632,2.5676,2.5694,2.5703,2.5703,2.5698,2.5683,2.5644,2.5526,2.5389,2.3732,2.4069,2.4203,2.4188,2.419,2.419,2.419,2.419,2.4192,2.4205,2.4204,2.4195,2.4193,2.4769,2.5194,2.5292,2.5293,2.5303,2.5303,2.5303,2.5303,2.5303,2.5303,2.5303,2.5293,2.487,2.4841,2.5303,2.5293,2.5301,2.5297,2.529,2.5317,2.5361,2.56,2.5703,2.5703,2.5703,2.5703,2.5703,2.5703,2.5703,2.5703,2.5703,2.5703,2.5703,2.5703,2.5703,2.5703,2.5703,2.5703,2.5703,2.5703,2.5703,2.5703,2.5703,2.5703,2.5703,2.5703,2.5703,2.5703,2.5703,2.5703,2.6484,2.9512,2.7851,2.6562,2.957,3.0195,3.0195,3.0195,3.0195,3.0195,3.0195,3.0195,3.0195,3.0195,3.0195,3.0195,3.0195,3.0605,3.0898,3.0898,3.0469,3.0195,3.0195,3.0195,3.0195,3.0195,3.0195,3.0195,3.0195,2.7276,2.5672,2.5644,2.5678,2.5687,2.5681,2.8413,2.8163,2.531,2.5301,2.5309,2.5303,2.5292,2.5309,2.5371,2.5609,2.5694,2.5703,2.5693,2.5696,2.5663,2.543,2.5473,2.5645,2.3957,2.4197,2.42,2.4189,2.419,2.419,2.419,2.4192,2.419,2.42,2.4554,2.4802,2.4815,2.5122,2.531,2.5303,2.5303,2.5303,2.5303,2.5303,2.5303,2.5303,2.5303,2.5303,2.5305,2.5293,2.5303,2.5307,2.5303,2.5301,2.5297,2.5447,2.5527,2.5525,2.5652,2.57,2.5703,2.5703,2.5703,2.5703,2.5703,2.5703,2.5703,2.5703,2.5703,2.5703,2.5703,2.5703,2.5703,2.5703,2.5703,2.5703,2.5703,2.5703,2.5703,2.5703,2.5703,2.5703,2.5703,2.5703,2.5703,2.5703,2.7168,2.9004,3.0547,2.9707,2.9043,3.0586,3.0898,3.0898,3.0898,3.0898,3.0898,3.0898,3.0898,3.0898,3.0898,3.0898,3.0898,3.0898,3.0898,3.0898,3.0898,3.0898,3.0898,3.0898,3.0898,3.0898,3.0898,3.0898,3.0898,3.0898,2.9412,2.8592,2.8594,2.8606,2.8594,2.8628,3.0017,2.9796,2.8155,2.8139,2.7201,2.5517,2.5365,2.5293,2.5324,2.5595,2.5694,2.5703,2.5701,2.5697,2.5694,2.5566,2.5601,2.5701]}]]